<?xml version='1.0' encoding='UTF-8'?><gpx version="1.1" creator="JPX - https://github.com/jenetics/jpx" xmlns="http://www.topografix.com/GPX/1/1"><trk><trkseg><trkpt lat="44.4542937" lon="11.2182402"><ele>331.0</ele><time>2026-04-04T15:57:57.285Z</time></trkpt><trkpt lat="44.4543708" lon="11.2182949"><ele>331.0</ele><time>2026-04-04T15:57:59.285Z</time></trkpt><trkpt lat="44.4544321" lon="11.2184149"><ele>331.0</ele><time>2026-04-04T15:58:01.285Z</time></trkpt><trkpt lat="44.4544714" lon="11.2185644"><ele>331.0</ele><time>2026-04-04T15:58:03.285Z</time></trkpt><trkpt lat="44.4545095" lon="11.2186801"><ele>331.0</ele><time>2026-04-04T15:58:05.285Z</time></trkpt><trkpt lat="44.4545384" lon="11.2188238"><ele>331.0</ele><time>2026-04-04T15:58:07.285Z</time></trkpt><trkpt lat="44.4545811" lon="11.2189371"><ele>331.0</ele><time>2026-04-04T15:58:09.285Z</time></trkpt><trkpt lat="44.454673" lon="11.2189651"><ele>331.0</ele><time>2026-04-04T15:58:11.285Z</time></trkpt><trkpt lat="44.4547403" lon="11.2189429"><ele>331.0</ele><time>2026-04-04T15:58:13.285Z</time></trkpt><trkpt lat="44.4548265" lon="11.2189298"><ele>331.0</ele><time>2026-04-04T15:58:15.285Z</time></trkpt><trkpt lat="44.4549129" lon="11.218926"><ele>331.0</ele><time>2026-04-04T15:58:17.285Z</time></trkpt><trkpt lat="44.454985" lon="11.2188988"><ele>332.5</ele><time>2026-04-04T15:58:21.285Z</time></trkpt><trkpt lat="44.4550565" lon="11.2188363"><ele>334.0</ele><time>2026-04-04T15:58:22.285Z</time></trkpt><trkpt lat="44.4551394" lon="11.2188195"><ele>335.5</ele><time>2026-04-04T15:58:23.285Z</time></trkpt><trkpt lat="44.4553374" lon="11.2187881"><ele>337.0</ele><time>2026-04-04T15:58:25.285Z</time></trkpt><trkpt lat="44.4554731" lon="11.2187771"><ele>337.8</ele><time>2026-04-04T15:58:26.285Z</time></trkpt><trkpt lat="44.4555841" lon="11.2187494"><ele>338.6</ele><time>2026-04-04T15:58:27.285Z</time></trkpt><trkpt lat="44.4556602" lon="11.2186919"><ele>339.40000000000003</ele><time>2026-04-04T15:58:28.286Z</time></trkpt><trkpt lat="44.4557624" lon="11.2186595"><ele>340.20000000000005</ele><time>2026-04-04T15:58:29.285Z</time></trkpt><trkpt lat="44.4558528" lon="11.218607"><ele>341.0</ele><time>2026-04-04T15:58:30.285Z</time></trkpt><trkpt lat="44.455965" lon="11.2185326"><ele>341.0</ele><time>2026-04-04T15:58:32.286Z</time></trkpt><trkpt lat="44.456028" lon="11.2184748"><ele>341.0</ele><time>2026-04-04T15:58:36.285Z</time></trkpt><trkpt lat="44.4560777" lon="11.2184047"><ele>341.0</ele><time>2026-04-04T15:58:40.285Z</time></trkpt><trkpt lat="44.4561363" lon="11.2183391"><ele>341.0</ele><time>2026-04-04T15:58:43.285Z</time></trkpt><trkpt lat="44.4562123" lon="11.2183078"><ele>341.0</ele><time>2026-04-04T15:58:45.285Z</time></trkpt><trkpt lat="44.4563063" lon="11.2182361"><ele>341.0</ele><time>2026-04-04T15:58:47.285Z</time></trkpt><trkpt lat="44.4563571" lon="11.2181675"><ele>336.5</ele><time>2026-04-04T15:58:49.285Z</time></trkpt><trkpt lat="44.4564408" lon="11.2180824"><ele>332.0</ele><time>2026-04-04T15:58:51.285Z</time></trkpt><trkpt lat="44.4564948" lon="11.2180098"><ele>327.5</ele><time>2026-04-04T15:58:52.285Z</time></trkpt><trkpt lat="44.4566584" lon="11.2178951"><ele>323.0</ele><time>2026-04-04T15:58:55.285Z</time></trkpt><trkpt lat="44.4567311" lon="11.2178069"><ele>323.0</ele><time>2026-04-04T15:58:56.285Z</time></trkpt><trkpt lat="44.4568107" lon="11.2178022"><ele>323.0</ele><time>2026-04-04T15:58:58.285Z</time></trkpt><trkpt lat="44.4569027" lon="11.2178084"><ele>323.0</ele><time>2026-04-04T15:59:00.285Z</time></trkpt><trkpt lat="44.4570049" lon="11.2178683"><ele>323.0</ele><time>2026-04-04T15:59:02.285Z</time></trkpt><trkpt lat="44.4570757" lon="11.2179883"><ele>323.0</ele><time>2026-04-04T15:59:04.285Z</time></trkpt><trkpt lat="44.4571467" lon="11.2181172"><ele>322.0</ele><time>2026-04-04T15:59:06.285Z</time></trkpt><trkpt lat="44.4571983" lon="11.2181926"><ele>321.0</ele><time>2026-04-04T15:59:07.285Z</time></trkpt><trkpt lat="44.4572613" lon="11.2182501"><ele>320.0</ele><time>2026-04-04T15:59:08.285Z</time></trkpt><trkpt lat="44.4573061" lon="11.2183242"><ele>319.0</ele><time>2026-04-04T15:59:09.285Z</time></trkpt><trkpt lat="44.4573549" lon="11.218406"><ele>318.0</ele><time>2026-04-04T15:59:11.285Z</time></trkpt><trkpt lat="44.4574164" lon="11.2184426"><ele>317.0</ele><time>2026-04-04T15:59:12.285Z</time></trkpt><trkpt lat="44.4575592" lon="11.2185599"><ele>317.0</ele><time>2026-04-04T15:59:14.285Z</time></trkpt><trkpt lat="44.4576223" lon="11.2186098"><ele>317.0</ele><time>2026-04-04T15:59:16.285Z</time></trkpt><trkpt lat="44.4577113" lon="11.2187195"><ele>317.0</ele><time>2026-04-04T15:59:18.285Z</time></trkpt><trkpt lat="44.4577646" lon="11.2187693"><ele>317.0</ele><time>2026-04-04T15:59:19.285Z</time></trkpt><trkpt lat="44.4577828" lon="11.218866"><ele>317.0</ele><time>2026-04-04T15:59:22.285Z</time></trkpt><trkpt lat="44.4577381" lon="11.2189302"><ele>317.0</ele><time>2026-04-04T15:59:24.285Z</time></trkpt><trkpt lat="44.4576933" lon="11.2190218"><ele>317.2857142857143</ele><time>2026-04-04T15:59:26.285Z</time></trkpt><trkpt lat="44.4576694" lon="11.2191061"><ele>317.57142857142856</ele><time>2026-04-04T15:59:27.285Z</time></trkpt><trkpt lat="44.4576528" lon="11.2191932"><ele>317.8571428571429</ele><time>2026-04-04T15:59:29.285Z</time></trkpt><trkpt lat="44.4576425" lon="11.2192835"><ele>318.1428571428571</ele><time>2026-04-04T15:59:33.285Z</time></trkpt><trkpt lat="44.457642" lon="11.2193756"><ele>318.4285714285714</ele><time>2026-04-04T15:59:38.285Z</time></trkpt><trkpt lat="44.4576174" lon="11.2194743"><ele>318.7142857142857</ele><time>2026-04-04T15:59:47.285Z</time></trkpt><trkpt lat="44.4576036" lon="11.2195817"><ele>319.0</ele><time>2026-04-04T15:59:50.285Z</time></trkpt><trkpt lat="44.4576422" lon="11.2197019"><ele>319.0</ele><time>2026-04-04T15:59:53.285Z</time></trkpt><trkpt lat="44.4576957" lon="11.2197633"><ele>319.0</ele><time>2026-04-04T15:59:55.285Z</time></trkpt><trkpt lat="44.4577633" lon="11.2198393"><ele>319.0</ele><time>2026-04-04T15:59:57.285Z</time></trkpt><trkpt lat="44.4577926" lon="11.2199734"><ele>319.0</ele><time>2026-04-04T16:00:02.286Z</time></trkpt><trkpt lat="44.4578753" lon="11.2198374"><ele>319.0</ele><time>2026-04-04T16:00:05.286Z</time></trkpt><trkpt lat="44.4579251" lon="11.2197601"><ele>315.25</ele><time>2026-04-04T16:00:06.285Z</time></trkpt><trkpt lat="44.4580476" lon="11.2197308"><ele>311.5</ele><time>2026-04-04T16:00:08.285Z</time></trkpt><trkpt lat="44.4581789" lon="11.2197644"><ele>307.75</ele><time>2026-04-04T16:00:10.285Z</time></trkpt><trkpt lat="44.4582452" lon="11.2196778"><ele>304.0</ele><time>2026-04-04T16:00:12.285Z</time></trkpt><trkpt lat="44.4583148" lon="11.2195608"><ele>304.0</ele><time>2026-04-04T16:00:14.285Z</time></trkpt><trkpt lat="44.4583737" lon="11.2194405"><ele>304.0</ele><time>2026-04-04T16:00:16.285Z</time></trkpt><trkpt lat="44.4584575" lon="11.219312"><ele>304.0</ele><time>2026-04-04T16:00:18.285Z</time></trkpt><trkpt lat="44.4584905" lon="11.2192284"><ele>304.0</ele><time>2026-04-04T16:00:19.285Z</time></trkpt><trkpt lat="44.4585995" lon="11.2191753"><ele>304.0</ele><time>2026-04-04T16:00:20.285Z</time></trkpt><trkpt lat="44.4586743" lon="11.2191637"><ele>307.5</ele><time>2026-04-04T16:00:21.285Z</time></trkpt><trkpt lat="44.4587965" lon="11.2191542"><ele>311.0</ele><time>2026-04-04T16:00:23.285Z</time></trkpt><trkpt lat="44.458874" lon="11.2191538"><ele>314.5</ele><time>2026-04-04T16:00:24.285Z</time></trkpt><trkpt lat="44.4590589" lon="11.2191528"><ele>318.0</ele><time>2026-04-04T16:00:26.285Z</time></trkpt><trkpt lat="44.459161" lon="11.2191044"><ele>318.0</ele><time>2026-04-04T16:00:27.285Z</time></trkpt><trkpt lat="44.4592684" lon="11.2190378"><ele>318.0</ele><time>2026-04-04T16:00:28.286Z</time></trkpt><trkpt lat="44.4593648" lon="11.2189866"><ele>318.0</ele><time>2026-04-04T16:00:29.286Z</time></trkpt><trkpt lat="44.4594345" lon="11.2189243"><ele>318.0</ele><time>2026-04-04T16:00:30.285Z</time></trkpt><trkpt lat="44.4595109" lon="11.21887"><ele>318.0</ele><time>2026-04-04T16:00:31.285Z</time></trkpt><trkpt lat="44.4595847" lon="11.2188225"><ele>315.3333333333333</ele><time>2026-04-04T16:00:32.285Z</time></trkpt><trkpt lat="44.4596538" lon="11.218785"><ele>312.6666666666667</ele><time>2026-04-04T16:00:33.285Z</time></trkpt><trkpt lat="44.4597393" lon="11.2187557"><ele>310.0</ele><time>2026-04-04T16:00:34.286Z</time></trkpt><trkpt lat="44.4598097" lon="11.2187488"><ele>307.33333333333337</ele><time>2026-04-04T16:00:35.285Z</time></trkpt><trkpt lat="44.4598815" lon="11.2187483"><ele>304.6666666666667</ele><time>2026-04-04T16:00:36.285Z</time></trkpt><trkpt lat="44.459956" lon="11.2188356"><ele>302.0</ele><time>2026-04-04T16:00:37.285Z</time></trkpt><trkpt lat="44.4600474" lon="11.2188946"><ele>302.0</ele><time>2026-04-04T16:00:38.285Z</time></trkpt><trkpt lat="44.4601448" lon="11.2189566"><ele>302.0</ele><time>2026-04-04T16:00:39.285Z</time></trkpt><trkpt lat="44.4602661" lon="11.2189912"><ele>302.0</ele><time>2026-04-04T16:00:40.285Z</time></trkpt><trkpt lat="44.4603801" lon="11.2189991"><ele>302.0</ele><time>2026-04-04T16:00:41.285Z</time></trkpt><trkpt lat="44.4605397" lon="11.2189648"><ele>300.4</ele><time>2026-04-04T16:00:42.285Z</time></trkpt><trkpt lat="44.4606503" lon="11.2189338"><ele>298.79999999999995</ele><time>2026-04-04T16:00:43.285Z</time></trkpt><trkpt lat="44.4607484" lon="11.2189201"><ele>297.2</ele><time>2026-04-04T16:00:44.285Z</time></trkpt><trkpt lat="44.4608223" lon="11.2189214"><ele>295.59999999999997</ele><time>2026-04-04T16:00:45.285Z</time></trkpt><trkpt lat="44.4609498" lon="11.2190208"><ele>294.0</ele><time>2026-04-04T16:00:47.285Z</time></trkpt><trkpt lat="44.4610189" lon="11.2190819"><ele>291.4</ele><time>2026-04-04T16:00:48.285Z</time></trkpt><trkpt lat="44.4610694" lon="11.2191456"><ele>288.79999999999995</ele><time>2026-04-04T16:00:49.285Z</time></trkpt><trkpt lat="44.4611333" lon="11.2192372"><ele>286.20000000000005</ele><time>2026-04-04T16:00:50.285Z</time></trkpt><trkpt lat="44.4611991" lon="11.2193377"><ele>283.6</ele><time>2026-04-04T16:00:51.286Z</time></trkpt><trkpt lat="44.4612897" lon="11.2194776"><ele>281.0</ele><time>2026-04-04T16:00:52.285Z</time></trkpt><trkpt lat="44.4613366" lon="11.2196307"><ele>281.0</ele><time>2026-04-04T16:00:53.285Z</time></trkpt><trkpt lat="44.4614056" lon="11.219805"><ele>281.0</ele><time>2026-04-04T16:00:54.285Z</time></trkpt><trkpt lat="44.4614684" lon="11.2199737"><ele>281.0</ele><time>2026-04-04T16:00:55.285Z</time></trkpt><trkpt lat="44.4615285" lon="11.2201366"><ele>281.0</ele><time>2026-04-04T16:00:56.286Z</time></trkpt><trkpt lat="44.461594" lon="11.2203151"><ele>286.0</ele><time>2026-04-04T16:00:57.285Z</time></trkpt><trkpt lat="44.4616441" lon="11.2204869"><ele>291.0</ele><time>2026-04-04T16:00:58.285Z</time></trkpt><trkpt lat="44.461718" lon="11.220607"><ele>296.0</ele><time>2026-04-04T16:00:59.285Z</time></trkpt><trkpt lat="44.4618368" lon="11.2207196"><ele>301.0</ele><time>2026-04-04T16:01:00.286Z</time></trkpt><trkpt lat="44.4619215" lon="11.2207763"><ele>300.5</ele><time>2026-04-04T16:01:01.285Z</time></trkpt><trkpt lat="44.4620171" lon="11.2208318"><ele>300.0</ele><time>2026-04-04T16:01:02.285Z</time></trkpt><trkpt lat="44.4620915" lon="11.2208775"><ele>299.5</ele><time>2026-04-04T16:01:03.285Z</time></trkpt><trkpt lat="44.4621732" lon="11.2209374"><ele>299.0</ele><time>2026-04-04T16:01:05.286Z</time></trkpt><trkpt lat="44.4621248" lon="11.2208682"><ele>298.5</ele><time>2026-04-04T16:02:03.285Z</time></trkpt><trkpt lat="44.4620363" lon="11.2208436"><ele>298.0</ele><time>2026-04-04T16:02:05.285Z</time></trkpt><trkpt lat="44.4619066" lon="11.2207776"><ele>298.5</ele><time>2026-04-04T16:02:07.285Z</time></trkpt><trkpt lat="44.4618298" lon="11.2207304"><ele>299.0</ele><time>2026-04-04T16:02:08.285Z</time></trkpt><trkpt lat="44.4617521" lon="11.2206786"><ele>299.5</ele><time>2026-04-04T16:02:09.285Z</time></trkpt><trkpt lat="44.4616789" lon="11.2206193"><ele>300.0</ele><time>2026-04-04T16:02:10.285Z</time></trkpt><trkpt lat="44.4616099" lon="11.2205469"><ele>300.5</ele><time>2026-04-04T16:02:11.285Z</time></trkpt><trkpt lat="44.4615557" lon="11.2204506"><ele>301.0</ele><time>2026-04-04T16:02:12.285Z</time></trkpt><trkpt lat="44.4615182" lon="11.2203365"><ele>301.0</ele><time>2026-04-04T16:02:13.285Z</time></trkpt><trkpt lat="44.4614758" lon="11.2202225"><ele>301.0</ele><time>2026-04-04T16:02:14.285Z</time></trkpt><trkpt lat="44.4614365" lon="11.2201041"><ele>301.0</ele><time>2026-04-04T16:02:15.285Z</time></trkpt><trkpt lat="44.4613956" lon="11.2199804"><ele>301.0</ele><time>2026-04-04T16:02:16.285Z</time></trkpt><trkpt lat="44.4613602" lon="11.2198582"><ele>301.0</ele><time>2026-04-04T16:02:17.285Z</time></trkpt><trkpt lat="44.4613059" lon="11.2197297"><ele>304.0</ele><time>2026-04-04T16:02:18.285Z</time></trkpt><trkpt lat="44.4612348" lon="11.2196104"><ele>307.0</ele><time>2026-04-04T16:02:19.285Z</time></trkpt><trkpt lat="44.4611696" lon="11.2194719"><ele>310.0</ele><time>2026-04-04T16:02:20.285Z</time></trkpt><trkpt lat="44.4611044" lon="11.2193501"><ele>313.0</ele><time>2026-04-04T16:02:21.285Z</time></trkpt><trkpt lat="44.4610316" lon="11.2192427"><ele>316.0</ele><time>2026-04-04T16:02:22.285Z</time></trkpt><trkpt lat="44.4609763" lon="11.2191362"><ele>316.0</ele><time>2026-04-04T16:02:23.285Z</time></trkpt><trkpt lat="44.4609082" lon="11.2190473"><ele>316.0</ele><time>2026-04-04T16:02:24.285Z</time></trkpt><trkpt lat="44.4608189" lon="11.218958"><ele>316.0</ele><time>2026-04-04T16:02:25.286Z</time></trkpt><trkpt lat="44.4607533" lon="11.2189027"><ele>316.0</ele><time>2026-04-04T16:02:26.286Z</time></trkpt><trkpt lat="44.4606696" lon="11.2188384"><ele>316.0</ele><time>2026-04-04T16:02:27.285Z</time></trkpt><trkpt lat="44.4605722" lon="11.2188268"><ele>313.66666666666663</ele><time>2026-04-04T16:02:28.285Z</time></trkpt><trkpt lat="44.4604969" lon="11.2188249"><ele>311.3333333333333</ele><time>2026-04-04T16:02:29.285Z</time></trkpt><trkpt lat="44.460391" lon="11.2188291"><ele>309.0</ele><time>2026-04-04T16:02:30.285Z</time></trkpt><trkpt lat="44.4603282" lon="11.2188627"><ele>306.6666666666667</ele><time>2026-04-04T16:02:31.285Z</time></trkpt><trkpt lat="44.460245" lon="11.2189151"><ele>304.33333333333337</ele><time>2026-04-04T16:02:32.285Z</time></trkpt><trkpt lat="44.4601688" lon="11.2189098"><ele>302.0</ele><time>2026-04-04T16:02:33.285Z</time></trkpt><trkpt lat="44.460091" lon="11.2188973"><ele>302.0</ele><time>2026-04-04T16:02:34.285Z</time></trkpt><trkpt lat="44.4599683" lon="11.2188429"><ele>302.0</ele><time>2026-04-04T16:02:36.285Z</time></trkpt><trkpt lat="44.459892" lon="11.2187868"><ele>302.0</ele><time>2026-04-04T16:02:37.285Z</time></trkpt><trkpt lat="44.4597808" lon="11.2187313"><ele>302.0</ele><time>2026-04-04T16:02:39.285Z</time></trkpt><trkpt lat="44.4596552" lon="11.2187801"><ele>302.0</ele><time>2026-04-04T16:02:41.285Z</time></trkpt><trkpt lat="44.4595535" lon="11.2188503"><ele>302.0</ele><time>2026-04-04T16:02:43.285Z</time></trkpt><trkpt lat="44.4594971" lon="11.218898"><ele>302.0</ele><time>2026-04-04T16:02:44.285Z</time></trkpt><trkpt lat="44.4594372" lon="11.2189495"><ele>302.0</ele><time>2026-04-04T16:02:45.285Z</time></trkpt><trkpt lat="44.4593468" lon="11.2190035"><ele>302.0</ele><time>2026-04-04T16:02:46.285Z</time></trkpt><trkpt lat="44.4592722" lon="11.2190511"><ele>302.0</ele><time>2026-04-04T16:02:47.285Z</time></trkpt><trkpt lat="44.4592037" lon="11.2191024"><ele>302.28571428571433</ele><time>2026-04-04T16:02:48.285Z</time></trkpt><trkpt lat="44.4591339" lon="11.2191483"><ele>302.57142857142856</ele><time>2026-04-04T16:02:49.285Z</time></trkpt><trkpt lat="44.4590625" lon="11.219157"><ele>302.8571428571429</ele><time>2026-04-04T16:02:50.285Z</time></trkpt><trkpt lat="44.45899" lon="11.2191486"><ele>303.14285714285717</ele><time>2026-04-04T16:02:51.285Z</time></trkpt><trkpt lat="44.4589254" lon="11.2191291"><ele>303.42857142857144</ele><time>2026-04-04T16:02:52.285Z</time></trkpt><trkpt lat="44.4588556" lon="11.2191303"><ele>303.7142857142857</ele><time>2026-04-04T16:02:53.285Z</time></trkpt><trkpt lat="44.4587925" lon="11.2191399"><ele>304.0</ele><time>2026-04-04T16:02:54.285Z</time></trkpt><trkpt lat="44.458737" lon="11.2191967"><ele>304.0</ele><time>2026-04-04T16:02:55.285Z</time></trkpt><trkpt lat="44.4586892" lon="11.2192628"><ele>304.0</ele><time>2026-04-04T16:02:56.285Z</time></trkpt><trkpt lat="44.4586299" lon="11.219312"><ele>304.0</ele><time>2026-04-04T16:02:57.285Z</time></trkpt><trkpt lat="44.4585706" lon="11.219372"><ele>304.0</ele><time>2026-04-04T16:02:58.285Z</time></trkpt><trkpt lat="44.4584998" lon="11.2194589"><ele>304.0</ele><time>2026-04-04T16:02:59.285Z</time></trkpt><trkpt lat="44.4584503" lon="11.219552"><ele>304.0</ele><time>2026-04-04T16:03:00.285Z</time></trkpt><trkpt lat="44.4583838" lon="11.2196362"><ele>304.0</ele><time>2026-04-04T16:03:01.285Z</time></trkpt><trkpt lat="44.4582657" lon="11.2197169"><ele>304.0</ele><time>2026-04-04T16:03:02.285Z</time></trkpt><trkpt lat="44.4581821" lon="11.219755"><ele>304.0</ele><time>2026-04-04T16:03:03.285Z</time></trkpt><trkpt lat="44.4580634" lon="11.2197741"><ele>304.0</ele><time>2026-04-04T16:03:04.285Z</time></trkpt><trkpt lat="44.4579836" lon="11.2198308"><ele>304.0</ele><time>2026-04-04T16:03:05.285Z</time></trkpt><trkpt lat="44.4579295" lon="11.2198868"><ele>306.66666666666663</ele><time>2026-04-04T16:03:06.285Z</time></trkpt><trkpt lat="44.4578643" lon="11.2199692"><ele>309.3333333333333</ele><time>2026-04-04T16:03:07.285Z</time></trkpt><trkpt lat="44.4578226" lon="11.22008"><ele>312.0</ele><time>2026-04-04T16:03:08.285Z</time></trkpt><trkpt lat="44.4577889" lon="11.2201741"><ele>314.6666666666667</ele><time>2026-04-04T16:03:09.285Z</time></trkpt><trkpt lat="44.4577553" lon="11.2202565"><ele>317.33333333333337</ele><time>2026-04-04T16:03:10.285Z</time></trkpt><trkpt lat="44.4576685" lon="11.2202412"><ele>320.0</ele><time>2026-04-04T16:03:12.285Z</time></trkpt><trkpt lat="44.4576416" lon="11.2201038"><ele>320.0</ele><time>2026-04-04T16:03:14.285Z</time></trkpt><trkpt lat="44.457611" lon="11.2200164"><ele>320.0</ele><time>2026-04-04T16:03:16.285Z</time></trkpt><trkpt lat="44.4575446" lon="11.2199541"><ele>320.0</ele><time>2026-04-04T16:03:18.285Z</time></trkpt><trkpt lat="44.4575394" lon="11.2198126"><ele>320.0</ele><time>2026-04-04T16:03:19.285Z</time></trkpt><trkpt lat="44.4575431" lon="11.2197115"><ele>320.0</ele><time>2026-04-04T16:03:20.285Z</time></trkpt><trkpt lat="44.4575508" lon="11.2195778"><ele>320.0</ele><time>2026-04-04T16:03:21.285Z</time></trkpt><trkpt lat="44.4576668" lon="11.219503"><ele>319.8</ele><time>2026-04-04T16:03:22.285Z</time></trkpt><trkpt lat="44.457708" lon="11.2194082"><ele>319.6</ele><time>2026-04-04T16:03:23.285Z</time></trkpt><trkpt lat="44.4577553" lon="11.2193382"><ele>319.4</ele><time>2026-04-04T16:03:24.285Z</time></trkpt><trkpt lat="44.4577554" lon="11.2191534"><ele>319.2</ele><time>2026-04-04T16:03:26.285Z</time></trkpt><trkpt lat="44.4577352" lon="11.2189666"><ele>319.0</ele><time>2026-04-04T16:03:28.285Z</time></trkpt><trkpt lat="44.4577135" lon="11.2187984"><ele>318.59999999999997</ele><time>2026-04-04T16:03:30.285Z</time></trkpt><trkpt lat="44.4577153" lon="11.218669"><ele>318.2</ele><time>2026-04-04T16:03:31.285Z</time></trkpt><trkpt lat="44.4576997" lon="11.2185689"><ele>317.79999999999995</ele><time>2026-04-04T16:03:32.285Z</time></trkpt><trkpt lat="44.4576858" lon="11.2184737"><ele>317.4</ele><time>2026-04-04T16:03:33.286Z</time></trkpt><trkpt lat="44.4576669" lon="11.2183362"><ele>317.0</ele><time>2026-04-04T16:03:36.285Z</time></trkpt><trkpt lat="44.4576512" lon="11.2180907"><ele>314.5</ele><time>2026-04-04T16:03:48.285Z</time></trkpt><trkpt lat="44.4576461" lon="11.2180027"><ele>312.0</ele><time>2026-04-04T16:03:58.285Z</time></trkpt><trkpt lat="44.4576526" lon="11.2179108"><ele>309.5</ele><time>2026-04-04T16:04:13.285Z</time></trkpt><trkpt lat="44.4576235" lon="11.2178117"><ele>307.0</ele><time>2026-04-04T16:04:16.285Z</time></trkpt><trkpt lat="44.4576094" lon="11.2177082"><ele>304.5</ele><time>2026-04-04T16:04:18.285Z</time></trkpt><trkpt lat="44.4575886" lon="11.2175691"><ele>302.0</ele><time>2026-04-04T16:04:20.285Z</time></trkpt><trkpt lat="44.4575636" lon="11.2174564"><ele>302.0</ele><time>2026-04-04T16:04:22.285Z</time></trkpt><trkpt lat="44.4575377" lon="11.2173411"><ele>302.0</ele><time>2026-04-04T16:04:24.285Z</time></trkpt><trkpt lat="44.4575247" lon="11.2172343"><ele>302.0</ele><time>2026-04-04T16:04:26.285Z</time></trkpt><trkpt lat="44.457521" lon="11.2170992"><ele>302.0</ele><time>2026-04-04T16:04:28.285Z</time></trkpt><trkpt lat="44.4575131" lon="11.2169279"><ele>302.0</ele><time>2026-04-04T16:04:30.285Z</time></trkpt><trkpt lat="44.4575043" lon="11.2167759"><ele>298.2</ele><time>2026-04-04T16:04:31.285Z</time></trkpt><trkpt lat="44.4574632" lon="11.2166368"><ele>294.4</ele><time>2026-04-04T16:04:33.285Z</time></trkpt><trkpt lat="44.45733" lon="11.216509"><ele>290.6</ele><time>2026-04-04T16:04:35.285Z</time></trkpt><trkpt lat="44.4572654" lon="11.2164485"><ele>286.8</ele><time>2026-04-04T16:04:36.285Z</time></trkpt><trkpt lat="44.4572018" lon="11.2163888"><ele>283.0</ele><time>2026-04-04T16:04:37.286Z</time></trkpt><trkpt lat="44.4571348" lon="11.2163455"><ele>285.5</ele><time>2026-04-04T16:04:38.285Z</time></trkpt><trkpt lat="44.4570096" lon="11.216255"><ele>288.0</ele><time>2026-04-04T16:04:40.285Z</time></trkpt><trkpt lat="44.4569398" lon="11.2162093"><ele>290.5</ele><time>2026-04-04T16:04:41.285Z</time></trkpt><trkpt lat="44.4568699" lon="11.2161565"><ele>293.0</ele><time>2026-04-04T16:04:42.285Z</time></trkpt><trkpt lat="44.4568061" lon="11.2161093"><ele>295.5</ele><time>2026-04-04T16:04:45.285Z</time></trkpt><trkpt lat="44.4568582" lon="11.2160486"><ele>298.0</ele><time>2026-04-04T16:04:51.285Z</time></trkpt><trkpt lat="44.4569461" lon="11.2159696"><ele>298.0</ele><time>2026-04-04T16:04:53.285Z</time></trkpt><trkpt lat="44.4569928" lon="11.2158868"><ele>298.0</ele><time>2026-04-04T16:04:54.285Z</time></trkpt><trkpt lat="44.4570883" lon="11.2157917"><ele>298.0</ele><time>2026-04-04T16:04:56.285Z</time></trkpt><trkpt lat="44.4571608" lon="11.2157737"><ele>298.0</ele><time>2026-04-04T16:04:57.285Z</time></trkpt><trkpt lat="44.4572736" lon="11.2157629"><ele>298.0</ele><time>2026-04-04T16:04:59.285Z</time></trkpt><trkpt lat="44.4573386" lon="11.2157639"><ele>298.0</ele><time>2026-04-04T16:05:00.285Z</time></trkpt><trkpt lat="44.457424" lon="11.2157666"><ele>295.0</ele><time>2026-04-04T16:05:01.285Z</time></trkpt><trkpt lat="44.4574947" lon="11.2157626"><ele>292.0</ele><time>2026-04-04T16:05:02.285Z</time></trkpt><trkpt lat="44.4575921" lon="11.2157133"><ele>289.0</ele><time>2026-04-04T16:05:03.285Z</time></trkpt><trkpt lat="44.457673" lon="11.2156587"><ele>286.0</ele><time>2026-04-04T16:05:04.285Z</time></trkpt><trkpt lat="44.4577548" lon="11.2156029"><ele>283.0</ele><time>2026-04-04T16:05:05.285Z</time></trkpt><trkpt lat="44.4578486" lon="11.2155569"><ele>282.5</ele><time>2026-04-04T16:05:06.285Z</time></trkpt><trkpt lat="44.4579925" lon="11.2154635"><ele>282.0</ele><time>2026-04-04T16:05:08.285Z</time></trkpt><trkpt lat="44.4581153" lon="11.2154327"><ele>281.5</ele><time>2026-04-04T16:05:09.286Z</time></trkpt><trkpt lat="44.4582061" lon="11.2153322"><ele>281.0</ele><time>2026-04-04T16:05:11.285Z</time></trkpt><trkpt lat="44.4582311" lon="11.215177"><ele>281.0</ele><time>2026-04-04T16:05:13.285Z</time></trkpt><trkpt lat="44.4582629" lon="11.2150697"><ele>281.0</ele><time>2026-04-04T16:05:15.285Z</time></trkpt><trkpt lat="44.4582926" lon="11.2149865"><ele>281.0</ele><time>2026-04-04T16:05:18.285Z</time></trkpt><trkpt lat="44.4582761" lon="11.2148803"><ele>281.0</ele><time>2026-04-04T16:05:23.285Z</time></trkpt><trkpt lat="44.4582721" lon="11.2147798"><ele>281.0</ele><time>2026-04-04T16:05:25.286Z</time></trkpt><trkpt lat="44.4583444" lon="11.2147146"><ele>281.0</ele><time>2026-04-04T16:05:28.285Z</time></trkpt><trkpt lat="44.4584721" lon="11.2146831"><ele>276.6</ele><time>2026-04-04T16:05:29.285Z</time></trkpt><trkpt lat="44.4584982" lon="11.2145705"><ele>272.20000000000005</ele><time>2026-04-04T16:05:32.285Z</time></trkpt><trkpt lat="44.4586217" lon="11.2145469"><ele>267.79999999999995</ele><time>2026-04-04T16:05:34.285Z</time></trkpt><trkpt lat="44.4586717" lon="11.2144572"><ele>263.4</ele><time>2026-04-04T16:05:36.285Z</time></trkpt><trkpt lat="44.4587053" lon="11.2143599"><ele>259.0</ele><time>2026-04-04T16:05:37.285Z</time></trkpt><trkpt lat="44.4588088" lon="11.2141984"><ele>259.0</ele><time>2026-04-04T16:05:39.286Z</time></trkpt><trkpt lat="44.458865" lon="11.2141346"><ele>259.0</ele><time>2026-04-04T16:05:40.285Z</time></trkpt><trkpt lat="44.4589241" lon="11.2140278"><ele>259.0</ele><time>2026-04-04T16:05:41.286Z</time></trkpt><trkpt lat="44.4589915" lon="11.2139731"><ele>259.0</ele><time>2026-04-04T16:05:42.285Z</time></trkpt><trkpt lat="44.459076" lon="11.2138166"><ele>259.0</ele><time>2026-04-04T16:05:44.285Z</time></trkpt><trkpt lat="44.4591535" lon="11.2137465"><ele>261.16666666666663</ele><time>2026-04-04T16:05:45.285Z</time></trkpt><trkpt lat="44.4592182" lon="11.2136646"><ele>263.3333333333333</ele><time>2026-04-04T16:05:46.285Z</time></trkpt><trkpt lat="44.4593134" lon="11.2135871"><ele>265.5</ele><time>2026-04-04T16:05:47.285Z</time></trkpt><trkpt lat="44.4593919" lon="11.2135512"><ele>267.6666666666667</ele><time>2026-04-04T16:06:13.285Z</time></trkpt><trkpt lat="44.4594628" lon="11.2135605"><ele>269.83333333333337</ele><time>2026-04-04T16:06:14.285Z</time></trkpt><trkpt lat="44.4595506" lon="11.2135375"><ele>272.0</ele><time>2026-04-04T16:06:16.285Z</time></trkpt><trkpt lat="44.4596624" lon="11.2135559"><ele>272.0</ele><time>2026-04-04T16:06:18.285Z</time></trkpt><trkpt lat="44.4597838" lon="11.2135778"><ele>272.0</ele><time>2026-04-04T16:06:20.285Z</time></trkpt><trkpt lat="44.4599636" lon="11.2135949"><ele>272.0</ele><time>2026-04-04T16:06:21.286Z</time></trkpt><trkpt lat="44.460048" lon="11.2135709"><ele>272.0</ele><time>2026-04-04T16:06:22.285Z</time></trkpt><trkpt lat="44.4601191" lon="11.2135718"><ele>272.0</ele><time>2026-04-04T16:06:23.285Z</time></trkpt><trkpt lat="44.4602145" lon="11.2135592"><ele>272.0</ele><time>2026-04-04T16:06:24.285Z</time></trkpt><trkpt lat="44.4603579" lon="11.2136089"><ele>272.0</ele><time>2026-04-04T16:06:28.285Z</time></trkpt><trkpt lat="44.4604199" lon="11.2136364"><ele>272.0</ele><time>2026-04-04T16:06:29.285Z</time></trkpt><trkpt lat="44.4604884" lon="11.2136349"><ele>272.0</ele><time>2026-04-04T16:06:30.285Z</time></trkpt><trkpt lat="44.4605563" lon="11.2136527"><ele>272.0</ele><time>2026-04-04T16:06:31.286Z</time></trkpt><trkpt lat="44.4606277" lon="11.2136183"><ele>270.6666666666667</ele><time>2026-04-04T16:06:36.285Z</time></trkpt><trkpt lat="44.4606937" lon="11.2135694"><ele>269.33333333333337</ele><time>2026-04-04T16:06:40.285Z</time></trkpt><trkpt lat="44.4607694" lon="11.21353"><ele>268.0</ele><time>2026-04-04T16:06:44.285Z</time></trkpt><trkpt lat="44.4608621" lon="11.2135479"><ele>266.6666666666667</ele><time>2026-04-04T16:06:46.285Z</time></trkpt><trkpt lat="44.4609563" lon="11.2136148"><ele>265.3333333333333</ele><time>2026-04-04T16:06:47.285Z</time></trkpt><trkpt lat="44.4610354" lon="11.213677"><ele>264.0</ele><time>2026-04-04T16:06:48.285Z</time></trkpt><trkpt lat="44.4611144" lon="11.2137282"><ele>264.0</ele><time>2026-04-04T16:06:49.285Z</time></trkpt><trkpt lat="44.4611717" lon="11.2137977"><ele>264.0</ele><time>2026-04-04T16:06:50.285Z</time></trkpt><trkpt lat="44.4612619" lon="11.2138423"><ele>264.0</ele><time>2026-04-04T16:06:51.285Z</time></trkpt><trkpt lat="44.4613322" lon="11.2138862"><ele>264.0</ele><time>2026-04-04T16:06:52.285Z</time></trkpt><trkpt lat="44.461373" lon="11.2139574"><ele>264.0</ele><time>2026-04-04T16:06:54.285Z</time></trkpt><trkpt lat="44.4613802" lon="11.2140819"><ele>264.0</ele><time>2026-04-04T16:07:15.285Z</time></trkpt><trkpt lat="44.4614566" lon="11.2141178"><ele>257.5</ele><time>2026-04-04T16:07:19.285Z</time></trkpt><trkpt lat="44.4615268" lon="11.2141717"><ele>251.0</ele><time>2026-04-04T16:07:24.286Z</time></trkpt><trkpt lat="44.4615" lon="11.2143203"><ele>244.5</ele><time>2026-04-04T16:07:59.285Z</time></trkpt><trkpt lat="44.4614517" lon="11.2144322"><ele>238.0</ele><time>2026-04-04T16:09:18.285Z</time></trkpt><trkpt lat="44.4615059" lon="11.2144884"><ele>231.5</ele><time>2026-04-04T16:09:28.285Z</time></trkpt><trkpt lat="44.4614939" lon="11.2143995"><ele>225.0</ele><time>2026-04-04T16:10:02.285Z</time></trkpt><trkpt lat="44.4615238" lon="11.2143185"><ele>225.0</ele><time>2026-04-04T16:11:56.285Z</time></trkpt><trkpt lat="44.4614783" lon="11.2142183"><ele>225.0</ele><time>2026-04-04T16:12:22.285Z</time></trkpt><trkpt lat="44.4614367" lon="11.2141384"><ele>225.0</ele><time>2026-04-04T16:12:25.285Z</time></trkpt><trkpt lat="44.4613758" lon="11.2140895"><ele>225.0</ele><time>2026-04-04T16:12:33.285Z</time></trkpt><trkpt lat="44.461309" lon="11.2140336"><ele>225.0</ele><time>2026-04-04T16:12:37.285Z</time></trkpt><trkpt lat="44.4612543" lon="11.2139783"><ele>225.0</ele><time>2026-04-04T16:12:40.285Z</time></trkpt><trkpt lat="44.4611735" lon="11.2139299"><ele>231.5</ele><time>2026-04-04T16:12:43.285Z</time></trkpt><trkpt lat="44.4611099" lon="11.2139179"><ele>238.0</ele><time>2026-04-04T16:12:45.286Z</time></trkpt><trkpt lat="44.4610388" lon="11.2138963"><ele>244.5</ele><time>2026-04-04T16:12:48.285Z</time></trkpt><trkpt lat="44.4609826" lon="11.2137945"><ele>251.0</ele><time>2026-04-04T16:12:57.285Z</time></trkpt><trkpt lat="44.4609107" lon="11.2137508"><ele>257.5</ele><time>2026-04-04T16:13:02.285Z</time></trkpt><trkpt lat="44.4608305" lon="11.2136878"><ele>264.0</ele><time>2026-04-04T16:13:05.285Z</time></trkpt><trkpt lat="44.4607595" lon="11.2136713"><ele>264.0</ele><time>2026-04-04T16:13:07.285Z</time></trkpt><trkpt lat="44.4606398" lon="11.213647"><ele>264.0</ele><time>2026-04-04T16:13:09.285Z</time></trkpt><trkpt lat="44.4605694" lon="11.2136288"><ele>264.0</ele><time>2026-04-04T16:13:11.285Z</time></trkpt><trkpt lat="44.4604845" lon="11.2136159"><ele>264.0</ele><time>2026-04-04T16:13:22.285Z</time></trkpt><trkpt lat="44.4604038" lon="11.2135943"><ele>264.0</ele><time>2026-04-04T16:13:24.285Z</time></trkpt><trkpt lat="44.4603164" lon="11.2135954"><ele>264.0</ele><time>2026-04-04T16:13:26.285Z</time></trkpt><trkpt lat="44.4602466" lon="11.2135872"><ele>265.3333333333333</ele><time>2026-04-04T16:13:27.285Z</time></trkpt><trkpt lat="44.4601772" lon="11.2135881"><ele>266.6666666666667</ele><time>2026-04-04T16:13:28.285Z</time></trkpt><trkpt lat="44.4600684" lon="11.2136007"><ele>268.0</ele><time>2026-04-04T16:13:30.285Z</time></trkpt><trkpt lat="44.4599783" lon="11.2136286"><ele>269.33333333333337</ele><time>2026-04-04T16:13:32.285Z</time></trkpt><trkpt lat="44.4598826" lon="11.2136313"><ele>270.6666666666667</ele><time>2026-04-04T16:13:34.285Z</time></trkpt><trkpt lat="44.4598118" lon="11.2136273"><ele>272.0</ele><time>2026-04-04T16:13:36.286Z</time></trkpt><trkpt lat="44.4597432" lon="11.2136233"><ele>272.0</ele><time>2026-04-04T16:13:38.286Z</time></trkpt><trkpt lat="44.4596652" lon="11.2136083"><ele>272.0</ele><time>2026-04-04T16:13:39.286Z</time></trkpt><trkpt lat="44.4595767" lon="11.2136144"><ele>272.0</ele><time>2026-04-04T16:13:41.285Z</time></trkpt><trkpt lat="44.4594917" lon="11.2136189"><ele>272.0</ele><time>2026-04-04T16:13:43.285Z</time></trkpt><trkpt lat="44.4594198" lon="11.2135916"><ele>272.0</ele><time>2026-04-04T16:13:45.285Z</time></trkpt><trkpt lat="44.4593494" lon="11.2136066"><ele>272.0</ele><time>2026-04-04T16:13:48.285Z</time></trkpt><trkpt lat="44.4592739" lon="11.2136532"><ele>269.83333333333337</ele><time>2026-04-04T16:13:54.285Z</time></trkpt><trkpt lat="44.4591658" lon="11.2137923"><ele>267.6666666666667</ele><time>2026-04-04T16:13:57.285Z</time></trkpt><trkpt lat="44.4591294" lon="11.213877"><ele>265.5</ele><time>2026-04-04T16:13:59.285Z</time></trkpt><trkpt lat="44.4590886" lon="11.2139507"><ele>263.3333333333333</ele><time>2026-04-04T16:14:01.285Z</time></trkpt><trkpt lat="44.4590231" lon="11.213945"><ele>261.16666666666663</ele><time>2026-04-04T16:14:03.285Z</time></trkpt><trkpt lat="44.4589465" lon="11.2139691"><ele>259.0</ele><time>2026-04-04T16:14:06.285Z</time></trkpt><trkpt lat="44.4588863" lon="11.2140195"><ele>259.0</ele><time>2026-04-04T16:14:09.285Z</time></trkpt><trkpt lat="44.4588114" lon="11.2140804"><ele>259.0</ele><time>2026-04-04T16:14:10.285Z</time></trkpt><trkpt lat="44.4587185" lon="11.2141455"><ele>259.0</ele><time>2026-04-04T16:14:12.285Z</time></trkpt><trkpt lat="44.4586685" lon="11.2142456"><ele>259.0</ele><time>2026-04-04T16:14:14.285Z</time></trkpt><trkpt lat="44.458638" lon="11.2143232"><ele>259.0</ele><time>2026-04-04T16:14:15.285Z</time></trkpt><trkpt lat="44.4586103" lon="11.2144422"><ele>259.0</ele><time>2026-04-04T16:14:17.285Z</time></trkpt><trkpt lat="44.4585721" lon="11.2145551"><ele>263.4</ele><time>2026-04-04T16:14:19.285Z</time></trkpt><trkpt lat="44.4584789" lon="11.2147498"><ele>267.79999999999995</ele><time>2026-04-04T16:14:21.286Z</time></trkpt><trkpt lat="44.458442" lon="11.2148845"><ele>272.20000000000005</ele><time>2026-04-04T16:14:22.285Z</time></trkpt><trkpt lat="44.4583781" lon="11.2149583"><ele>276.6</ele><time>2026-04-04T16:14:24.285Z</time></trkpt><trkpt lat="44.4583067" lon="11.2149171"><ele>281.0</ele><time>2026-04-04T16:14:27.285Z</time></trkpt><trkpt lat="44.4582412" lon="11.2149206"><ele>281.0</ele><time>2026-04-04T16:14:29.285Z</time></trkpt><trkpt lat="44.4581715" lon="11.2149368"><ele>281.0</ele><time>2026-04-04T16:14:34.285Z</time></trkpt><trkpt lat="44.4580877" lon="11.2149762"><ele>281.0</ele><time>2026-04-04T16:14:38.285Z</time></trkpt><trkpt lat="44.4580326" lon="11.2150505"><ele>281.0</ele><time>2026-04-04T16:14:40.285Z</time></trkpt><trkpt lat="44.4579603" lon="11.2151201"><ele>281.0</ele><time>2026-04-04T16:14:43.285Z</time></trkpt><trkpt lat="44.4579015" lon="11.2151541"><ele>281.0</ele><time>2026-04-04T16:14:45.285Z</time></trkpt><trkpt lat="44.4578044" lon="11.2151972"><ele>287.40000000000003</ele><time>2026-04-04T16:14:46.285Z</time></trkpt><trkpt lat="44.4576628" lon="11.2152503"><ele>293.8</ele><time>2026-04-04T16:14:48.285Z</time></trkpt><trkpt lat="44.4575833" lon="11.2152896"><ele>300.20000000000005</ele><time>2026-04-04T16:14:49.285Z</time></trkpt><trkpt lat="44.4575156" lon="11.2153815"><ele>306.6</ele><time>2026-04-04T16:14:50.285Z</time></trkpt><trkpt lat="44.4574405" lon="11.2154778"><ele>313.0</ele><time>2026-04-04T16:14:51.286Z</time></trkpt><trkpt lat="44.4573731" lon="11.2155236"><ele>313.0</ele><time>2026-04-04T16:14:52.285Z</time></trkpt><trkpt lat="44.457301" lon="11.2156145"><ele>313.0</ele><time>2026-04-04T16:14:53.285Z</time></trkpt><trkpt lat="44.4572032" lon="11.215699"><ele>313.0</ele><time>2026-04-04T16:14:55.285Z</time></trkpt><trkpt lat="44.4571432" lon="11.2157434"><ele>313.0</ele><time>2026-04-04T16:14:56.285Z</time></trkpt><trkpt lat="44.4570647" lon="11.2158439"><ele>313.0</ele><time>2026-04-04T16:14:58.285Z</time></trkpt><trkpt lat="44.4569848" lon="11.2159043"><ele>310.5</ele><time>2026-04-04T16:15:01.285Z</time></trkpt><trkpt lat="44.456903" lon="11.21599"><ele>308.0</ele><time>2026-04-04T16:15:03.285Z</time></trkpt><trkpt lat="44.4568307" lon="11.2160778"><ele>305.5</ele><time>2026-04-04T16:15:05.285Z</time></trkpt><trkpt lat="44.4567579" lon="11.2161618"><ele>303.0</ele><time>2026-04-04T16:15:07.285Z</time></trkpt><trkpt lat="44.4567015" lon="11.2162286"><ele>300.5</ele><time>2026-04-04T16:15:09.285Z</time></trkpt><trkpt lat="44.4566354" lon="11.2162997"><ele>298.0</ele><time>2026-04-04T16:15:12.285Z</time></trkpt><trkpt lat="44.4565772" lon="11.216335"><ele>298.0</ele><time>2026-04-04T16:15:44.285Z</time></trkpt><trkpt lat="44.4564745" lon="11.2163896"><ele>298.0</ele><time>2026-04-04T16:15:56.286Z</time></trkpt><trkpt lat="44.4564027" lon="11.2164434"><ele>298.0</ele><time>2026-04-04T16:16:00.286Z</time></trkpt><trkpt lat="44.4563359" lon="11.216489"><ele>298.0</ele><time>2026-04-04T16:16:03.285Z</time></trkpt><trkpt lat="44.4562793" lon="11.2165599"><ele>298.0</ele><time>2026-04-04T16:16:06.285Z</time></trkpt><trkpt lat="44.4562175" lon="11.2165797"><ele>298.0</ele><time>2026-04-04T16:16:10.285Z</time></trkpt><trkpt lat="44.4561582" lon="11.2166455"><ele>301.3333333333333</ele><time>2026-04-04T16:17:30.285Z</time></trkpt><trkpt lat="44.4561041" lon="11.2167447"><ele>304.66666666666663</ele><time>2026-04-04T16:17:33.285Z</time></trkpt><trkpt lat="44.4560592" lon="11.216851"><ele>308.0</ele><time>2026-04-04T16:17:35.285Z</time></trkpt><trkpt lat="44.4560144" lon="11.2169182"><ele>311.3333333333333</ele><time>2026-04-04T16:17:37.285Z</time></trkpt><trkpt lat="44.455923" lon="11.2169512"><ele>314.6666666666667</ele><time>2026-04-04T16:17:53.285Z</time></trkpt><trkpt lat="44.4558735" lon="11.2170232"><ele>318.0</ele><time>2026-04-04T16:18:31.285Z</time></trkpt><trkpt lat="44.4558223" lon="11.217085"><ele>318.0</ele><time>2026-04-04T16:18:35.285Z</time></trkpt><trkpt lat="44.4557602" lon="11.2171004"><ele>318.0</ele><time>2026-04-04T16:18:46.285Z</time></trkpt><trkpt lat="44.4557044" lon="11.2171468"><ele>318.0</ele><time>2026-04-04T16:18:58.285Z</time></trkpt><trkpt lat="44.4556443" lon="11.2171898"><ele>318.0</ele><time>2026-04-04T16:19:02.285Z</time></trkpt><trkpt lat="44.4555757" lon="11.2172201"><ele>318.0</ele><time>2026-04-04T16:19:06.285Z</time></trkpt><trkpt lat="44.4555154" lon="11.2172614"><ele>318.0</ele><time>2026-04-04T16:19:11.285Z</time></trkpt><trkpt lat="44.455431" lon="11.2172996"><ele>318.0</ele><time>2026-04-04T16:19:25.285Z</time></trkpt><trkpt lat="44.4553727" lon="11.2173724"><ele>320.0</ele><time>2026-04-04T16:19:29.285Z</time></trkpt><trkpt lat="44.4553512" lon="11.2174712"><ele>322.0</ele><time>2026-04-04T16:19:32.285Z</time></trkpt><trkpt lat="44.4553495" lon="11.2175666"><ele>324.0</ele><time>2026-04-04T16:19:35.286Z</time></trkpt><trkpt lat="44.4552977" lon="11.2176809"><ele>326.0</ele><time>2026-04-04T16:19:38.285Z</time></trkpt><trkpt lat="44.4552522" lon="11.2177702"><ele>328.0</ele><time>2026-04-04T16:19:40.285Z</time></trkpt><trkpt lat="44.4552131" lon="11.2178395"><ele>330.0</ele><time>2026-04-04T16:19:42.285Z</time></trkpt><trkpt lat="44.4551523" lon="11.2178955"><ele>330.0</ele><time>2026-04-04T16:19:45.285Z</time></trkpt><trkpt lat="44.4550687" lon="11.2179505"><ele>330.0</ele><time>2026-04-04T16:19:48.285Z</time></trkpt><trkpt lat="44.4550138" lon="11.2180055"><ele>330.0</ele><time>2026-04-04T16:19:50.285Z</time></trkpt><trkpt lat="44.4549425" lon="11.218039"><ele>330.0</ele><time>2026-04-04T16:19:53.285Z</time></trkpt><trkpt lat="44.4548785" lon="11.2180861"><ele>330.0</ele><time>2026-04-04T16:19:58.285Z</time></trkpt><trkpt lat="44.4547936" lon="11.2181296"><ele>330.0</ele><time>2026-04-04T16:20:01.285Z</time></trkpt><trkpt lat="44.4547225" lon="11.2181337"><ele>330.00000000000006</ele><time>2026-04-04T16:20:03.286Z</time></trkpt><trkpt lat="44.4546585" lon="11.2181485"><ele>330.0</ele><time>2026-04-04T16:20:05.285Z</time></trkpt><trkpt lat="44.4545921" lon="11.2181734"><ele>330.0</ele><time>2026-04-04T16:20:07.285Z</time></trkpt><trkpt lat="44.4545255" lon="11.2182065"><ele>330.0</ele><time>2026-04-04T16:20:09.285Z</time></trkpt><trkpt lat="44.4544387" lon="11.2182467"><ele>330.0</ele><time>2026-04-04T16:20:11.285Z</time></trkpt><trkpt lat="44.4543669" lon="11.2182711"><ele>330.00000000000006</ele><time>2026-04-04T16:20:14.285Z</time></trkpt><trkpt lat="44.4543086" lon="11.2182045"><ele>330.0</ele><time>2026-04-04T16:20:17.285Z</time></trkpt><trkpt lat="44.4542686" lon="11.2181327"><ele>330.1666666666667</ele><time>2026-04-04T16:20:20.286Z</time></trkpt><trkpt lat="44.4542101" lon="11.2180942"><ele>330.3333333333333</ele><time>2026-04-04T16:24:26.285Z</time></trkpt><trkpt lat="44.454221" lon="11.2180029"><ele>330.5</ele><time>2026-04-04T16:28:25.285Z</time></trkpt><trkpt lat="44.4542407" lon="11.2181306"><ele>330.66666666666663</ele><time>2026-04-04T16:28:28.286Z</time></trkpt><trkpt lat="44.4542416" lon="11.2182692"><ele>330.8333333333333</ele><time>2026-04-04T16:28:30.285Z</time></trkpt><trkpt lat="44.4542652" lon="11.2183899"><ele>331.0</ele><time>2026-04-04T16:28:32.285Z</time></trkpt><trkpt lat="44.454294" lon="11.2184716"><ele>331.0</ele><time>2026-04-04T16:28:33.285Z</time></trkpt><trkpt lat="44.4543124" lon="11.2185867"><ele>331.0</ele><time>2026-04-04T16:28:34.285Z</time></trkpt><trkpt lat="44.4543193" lon="11.2187178"><ele>331.0</ele><time>2026-04-04T16:28:35.285Z</time></trkpt><trkpt lat="44.454331" lon="11.2188551"><ele>331.0</ele><time>2026-04-04T16:28:36.285Z</time></trkpt><trkpt lat="44.4543496" lon="11.2189913"><ele>331.0</ele><time>2026-04-04T16:28:37.285Z</time></trkpt><trkpt lat="44.4543842" lon="11.2191262"><ele>333.5</ele><time>2026-04-04T16:28:38.285Z</time></trkpt><trkpt lat="44.4544259" lon="11.2192491"><ele>336.0</ele><time>2026-04-04T16:28:39.285Z</time></trkpt><trkpt lat="44.4544624" lon="11.2193701"><ele>338.5</ele><time>2026-04-04T16:28:40.285Z</time></trkpt><trkpt lat="44.4544946" lon="11.2194796"><ele>341.0</ele><time>2026-04-04T16:28:41.285Z</time></trkpt><trkpt lat="44.4545252" lon="11.2195834"><ele>343.5</ele><time>2026-04-04T16:28:42.286Z</time></trkpt><trkpt lat="44.4545407" lon="11.2196909"><ele>346.0</ele><time>2026-04-04T16:28:43.285Z</time></trkpt><trkpt lat="44.4545503" lon="11.2197947"><ele>348.8333333333333</ele><time>2026-04-04T16:28:44.286Z</time></trkpt><trkpt lat="44.4545452" lon="11.2198961"><ele>351.66666666666663</ele><time>2026-04-04T16:28:45.286Z</time></trkpt><trkpt lat="44.4545174" lon="11.2199788"><ele>354.5</ele><time>2026-04-04T16:28:46.285Z</time></trkpt><trkpt lat="44.4544624" lon="11.2200374"><ele>357.3333333333333</ele><time>2026-04-04T16:28:47.285Z</time></trkpt><trkpt lat="44.4543904" lon="11.2200577"><ele>360.1666666666667</ele><time>2026-04-04T16:28:48.285Z</time></trkpt><trkpt lat="44.4543112" lon="11.2200661"><ele>363.0</ele><time>2026-04-04T16:28:49.285Z</time></trkpt><trkpt lat="44.4541928" lon="11.2200451"><ele>363.0</ele><time>2026-04-04T16:28:50.285Z</time></trkpt><trkpt lat="44.454094" lon="11.2200371"><ele>363.0</ele><time>2026-04-04T16:28:51.285Z</time></trkpt><trkpt lat="44.4539965" lon="11.2200381"><ele>363.0</ele><time>2026-04-04T16:28:52.285Z</time></trkpt><trkpt lat="44.453901" lon="11.2200494"><ele>363.0</ele><time>2026-04-04T16:28:53.285Z</time></trkpt><trkpt lat="44.4538126" lon="11.22007"><ele>363.0</ele><time>2026-04-04T16:28:54.285Z</time></trkpt><trkpt lat="44.4537258" lon="11.2200911"><ele>363.5</ele><time>2026-04-04T16:28:55.286Z</time></trkpt><trkpt lat="44.4536353" lon="11.2201188"><ele>364.0</ele><time>2026-04-04T16:28:56.285Z</time></trkpt><trkpt lat="44.4535495" lon="11.2201587"><ele>364.5</ele><time>2026-04-04T16:28:57.285Z</time></trkpt><trkpt lat="44.4534728" lon="11.220204"><ele>365.0</ele><time>2026-04-04T16:28:58.285Z</time></trkpt><trkpt lat="44.4534162" lon="11.220254"><ele>365.5</ele><time>2026-04-04T16:28:59.285Z</time></trkpt><trkpt lat="44.4533177" lon="11.2203254"><ele>366.0</ele><time>2026-04-04T16:29:01.285Z</time></trkpt><trkpt lat="44.4532115" lon="11.2203749"><ele>366.0</ele><time>2026-04-04T16:29:03.285Z</time></trkpt><trkpt lat="44.4531494" lon="11.2203898"><ele>366.0</ele><time>2026-04-04T16:29:04.285Z</time></trkpt><trkpt lat="44.45305" lon="11.220366"><ele>366.0</ele><time>2026-04-04T16:29:05.285Z</time></trkpt><trkpt lat="44.4529777" lon="11.2203536"><ele>366.0</ele><time>2026-04-04T16:29:06.285Z</time></trkpt><trkpt lat="44.4528541" lon="11.2203306"><ele>366.0</ele><time>2026-04-04T16:29:08.285Z</time></trkpt><trkpt lat="44.4527567" lon="11.2202993"><ele>366.5</ele><time>2026-04-04T16:29:10.285Z</time></trkpt><trkpt lat="44.4526435" lon="11.2202493"><ele>367.0</ele><time>2026-04-04T16:29:12.285Z</time></trkpt><trkpt lat="44.4525741" lon="11.2202085"><ele>367.5</ele><time>2026-04-04T16:29:13.285Z</time></trkpt><trkpt lat="44.452513" lon="11.2201679"><ele>368.0</ele><time>2026-04-04T16:29:14.285Z</time></trkpt><trkpt lat="44.452449" lon="11.2201104"><ele>368.5</ele><time>2026-04-04T16:29:15.285Z</time></trkpt><trkpt lat="44.4523897" lon="11.2200548"><ele>369.0</ele><time>2026-04-04T16:29:16.285Z</time></trkpt><trkpt lat="44.4523353" lon="11.219991"><ele>369.0</ele><time>2026-04-04T16:29:17.285Z</time></trkpt><trkpt lat="44.4522822" lon="11.2199269"><ele>369.0</ele><time>2026-04-04T16:29:18.285Z</time></trkpt><trkpt lat="44.4522239" lon="11.2198677"><ele>369.0</ele><time>2026-04-04T16:29:19.285Z</time></trkpt><trkpt lat="44.4521712" lon="11.2198114"><ele>369.0</ele><time>2026-04-04T16:29:20.285Z</time></trkpt><trkpt lat="44.4521075" lon="11.2197608"><ele>369.0</ele><time>2026-04-04T16:29:21.285Z</time></trkpt><trkpt lat="44.4520415" lon="11.219717"><ele>369.0</ele><time>2026-04-04T16:29:22.285Z</time></trkpt><trkpt lat="44.4519469" lon="11.2196546"><ele>367.6666666666667</ele><time>2026-04-04T16:29:24.285Z</time></trkpt><trkpt lat="44.45186" lon="11.2196043"><ele>366.3333333333333</ele><time>2026-04-04T16:29:26.285Z</time></trkpt><trkpt lat="44.4517776" lon="11.2195361"><ele>365.0</ele><time>2026-04-04T16:29:29.285Z</time></trkpt><trkpt lat="44.4517016" lon="11.2194831"><ele>363.66666666666663</ele><time>2026-04-04T16:29:31.285Z</time></trkpt><trkpt lat="44.4516448" lon="11.2194294"><ele>362.3333333333333</ele><time>2026-04-04T16:29:33.285Z</time></trkpt><trkpt lat="44.4516013" lon="11.2193597"><ele>361.0</ele><time>2026-04-04T16:29:36.285Z</time></trkpt><trkpt lat="44.451654" lon="11.219462"><ele>361.0</ele><time>2026-04-04T16:29:42.285Z</time></trkpt><trkpt lat="44.451793" lon="11.219531"><ele>361.0</ele><time>2026-04-04T16:29:45.285Z</time></trkpt><trkpt lat="44.4518675" lon="11.2196309"><ele>361.0</ele><time>2026-04-04T16:29:47.285Z</time></trkpt><trkpt lat="44.4519233" lon="11.2196948"><ele>361.0</ele><time>2026-04-04T16:29:49.285Z</time></trkpt><trkpt lat="44.4519924" lon="11.2197092"><ele>361.0</ele><time>2026-04-04T16:30:36.285Z</time></trkpt><trkpt lat="44.4519089" lon="11.2196247"><ele>361.0</ele><time>2026-04-04T16:30:40.285Z</time></trkpt><trkpt lat="44.4518371" lon="11.2195804"><ele>361.0</ele><time>2026-04-04T16:30:42.285Z</time></trkpt><trkpt lat="44.4517646" lon="11.2195134"><ele>361.0</ele><time>2026-04-04T16:30:44.285Z</time></trkpt><trkpt lat="44.4516941" lon="11.2194551"><ele>361.0</ele><time>2026-04-04T16:30:46.285Z</time></trkpt><trkpt lat="44.451621" lon="11.2194218"><ele>361.0</ele><time>2026-04-04T16:30:48.285Z</time></trkpt><trkpt lat="44.4515449" lon="11.2193908"><ele>361.0</ele><time>2026-04-04T16:30:50.285Z</time></trkpt><trkpt lat="44.4514613" lon="11.219353"><ele>361.0</ele><time>2026-04-04T16:30:52.286Z</time></trkpt><trkpt lat="44.4513603" lon="11.2193176"><ele>361.0</ele><time>2026-04-04T16:30:54.285Z</time></trkpt><trkpt lat="44.4512681" lon="11.2192767"><ele>361.0</ele><time>2026-04-04T16:30:56.285Z</time></trkpt><trkpt lat="44.4511733" lon="11.2192334"><ele>361.0</ele><time>2026-04-04T16:30:58.285Z</time></trkpt><trkpt lat="44.4510692" lon="11.219182"><ele>361.0</ele><time>2026-04-04T16:31:00.285Z</time></trkpt><trkpt lat="44.4509706" lon="11.2191488"><ele>362.4</ele><time>2026-04-04T16:31:02.285Z</time></trkpt><trkpt lat="44.4508538" lon="11.2191007"><ele>363.8</ele><time>2026-04-04T16:31:04.285Z</time></trkpt><trkpt lat="44.4507235" lon="11.219046"><ele>365.2</ele><time>2026-04-04T16:31:06.285Z</time></trkpt><trkpt lat="44.4506635" lon="11.2190161"><ele>366.59999999999997</ele><time>2026-04-04T16:31:07.285Z</time></trkpt><trkpt lat="44.4506009" lon="11.2189827"><ele>368.0</ele><time>2026-04-04T16:31:08.285Z</time></trkpt><trkpt lat="44.4505384" lon="11.2189417"><ele>368.14285714285717</ele><time>2026-04-04T16:31:09.285Z</time></trkpt><trkpt lat="44.4504659" lon="11.2188906"><ele>368.2857142857143</ele><time>2026-04-04T16:31:10.285Z</time></trkpt><trkpt lat="44.4504069" lon="11.2188504"><ele>368.42857142857144</ele><time>2026-04-04T16:31:11.285Z</time></trkpt><trkpt lat="44.4503487" lon="11.218807"><ele>368.57142857142856</ele><time>2026-04-04T16:31:12.285Z</time></trkpt><trkpt lat="44.4502911" lon="11.2187627"><ele>368.71428571428567</ele><time>2026-04-04T16:31:13.285Z</time></trkpt><trkpt lat="44.4502346" lon="11.218705"><ele>368.85714285714283</ele><time>2026-04-04T16:31:14.285Z</time></trkpt><trkpt lat="44.4501766" lon="11.2186378"><ele>369.0</ele><time>2026-04-04T16:31:15.286Z</time></trkpt><trkpt lat="44.4501169" lon="11.2185582"><ele>369.0</ele><time>2026-04-04T16:31:16.285Z</time></trkpt><trkpt lat="44.4500732" lon="11.2184748"><ele>369.0</ele><time>2026-04-04T16:31:17.285Z</time></trkpt><trkpt lat="44.4500289" lon="11.2183923"><ele>369.0</ele><time>2026-04-04T16:31:18.285Z</time></trkpt><trkpt lat="44.4499894" lon="11.21831"><ele>369.0</ele><time>2026-04-04T16:31:19.285Z</time></trkpt><trkpt lat="44.4499358" lon="11.2181824"><ele>369.0</ele><time>2026-04-04T16:31:21.285Z</time></trkpt><trkpt lat="44.4498922" lon="11.2180795"><ele>369.0</ele><time>2026-04-04T16:31:23.285Z</time></trkpt><trkpt lat="44.449797" lon="11.2179229"><ele>367.6</ele><time>2026-04-04T16:31:25.285Z</time></trkpt><trkpt lat="44.4497035" lon="11.2177973"><ele>366.2</ele><time>2026-04-04T16:31:26.285Z</time></trkpt><trkpt lat="44.4496144" lon="11.2177145"><ele>364.8</ele><time>2026-04-04T16:31:27.285Z</time></trkpt><trkpt lat="44.449513" lon="11.2176469"><ele>363.40000000000003</ele><time>2026-04-04T16:31:28.285Z</time></trkpt><trkpt lat="44.4494166" lon="11.2176135"><ele>362.0</ele><time>2026-04-04T16:31:29.286Z</time></trkpt><trkpt lat="44.4493225" lon="11.2176021"><ele>362.0</ele><time>2026-04-04T16:31:30.285Z</time></trkpt><trkpt lat="44.449237" lon="11.2175785"><ele>362.0</ele><time>2026-04-04T16:31:31.285Z</time></trkpt><trkpt lat="44.4491548" lon="11.2175662"><ele>362.0</ele><time>2026-04-04T16:31:32.285Z</time></trkpt><trkpt lat="44.4490664" lon="11.2175386"><ele>362.0</ele><time>2026-04-04T16:31:33.285Z</time></trkpt><trkpt lat="44.4489805" lon="11.2175185"><ele>362.0</ele><time>2026-04-04T16:31:34.285Z</time></trkpt><trkpt lat="44.4488893" lon="11.2174883"><ele>362.0</ele><time>2026-04-04T16:31:35.285Z</time></trkpt><trkpt lat="44.4487968" lon="11.2174395"><ele>361.6</ele><time>2026-04-04T16:31:36.285Z</time></trkpt><trkpt lat="44.4487076" lon="11.2174022"><ele>361.20000000000005</ele><time>2026-04-04T16:31:37.285Z</time></trkpt><trkpt lat="44.448613" lon="11.217346"><ele>360.8</ele><time>2026-04-04T16:31:38.285Z</time></trkpt><trkpt lat="44.4485162" lon="11.2173"><ele>360.4</ele><time>2026-04-04T16:31:39.285Z</time></trkpt><trkpt lat="44.4484268" lon="11.2172435"><ele>360.0</ele><time>2026-04-04T16:31:40.285Z</time></trkpt><trkpt lat="44.4483388" lon="11.2171964"><ele>358.4</ele><time>2026-04-04T16:31:41.285Z</time></trkpt><trkpt lat="44.4482464" lon="11.2171368"><ele>356.8</ele><time>2026-04-04T16:31:42.285Z</time></trkpt><trkpt lat="44.4481526" lon="11.2170973"><ele>355.20000000000005</ele><time>2026-04-04T16:31:43.285Z</time></trkpt><trkpt lat="44.4480669" lon="11.2170547"><ele>353.6</ele><time>2026-04-04T16:31:44.285Z</time></trkpt><trkpt lat="44.447979" lon="11.2170072"><ele>352.0</ele><time>2026-04-04T16:31:45.285Z</time></trkpt><trkpt lat="44.4478854" lon="11.2169674"><ele>351.6</ele><time>2026-04-04T16:31:46.286Z</time></trkpt><trkpt lat="44.4477878" lon="11.2169249"><ele>351.20000000000005</ele><time>2026-04-04T16:31:47.285Z</time></trkpt><trkpt lat="44.447694" lon="11.2168779"><ele>350.8</ele><time>2026-04-04T16:31:48.285Z</time></trkpt><trkpt lat="44.4476066" lon="11.2168301"><ele>350.4</ele><time>2026-04-04T16:31:49.285Z</time></trkpt><trkpt lat="44.4475183" lon="11.2167799"><ele>350.0</ele><time>2026-04-04T16:31:50.285Z</time></trkpt><trkpt lat="44.4474351" lon="11.2167318"><ele>350.0</ele><time>2026-04-04T16:31:51.285Z</time></trkpt><trkpt lat="44.4473499" lon="11.2166689"><ele>350.0</ele><time>2026-04-04T16:31:52.285Z</time></trkpt><trkpt lat="44.4472642" lon="11.2166183"><ele>350.0</ele><time>2026-04-04T16:31:53.285Z</time></trkpt><trkpt lat="44.4471874" lon="11.2165576"><ele>350.0</ele><time>2026-04-04T16:31:54.285Z</time></trkpt><trkpt lat="44.4471128" lon="11.216509"><ele>350.0</ele><time>2026-04-04T16:31:55.285Z</time></trkpt><trkpt lat="44.4470209" lon="11.216452"><ele>349.33333333333337</ele><time>2026-04-04T16:31:56.285Z</time></trkpt><trkpt lat="44.446945" lon="11.2164119"><ele>348.6666666666667</ele><time>2026-04-04T16:31:57.285Z</time></trkpt><trkpt lat="44.4468652" lon="11.2163868"><ele>348.0</ele><time>2026-04-04T16:31:58.285Z</time></trkpt><trkpt lat="44.4467752" lon="11.2163657"><ele>347.3333333333333</ele><time>2026-04-04T16:31:59.285Z</time></trkpt><trkpt lat="44.4466828" lon="11.216355"><ele>346.66666666666663</ele><time>2026-04-04T16:32:00.285Z</time></trkpt><trkpt lat="44.4465955" lon="11.216376"><ele>346.0</ele><time>2026-04-04T16:32:01.285Z</time></trkpt><trkpt lat="44.4465055" lon="11.21638"><ele>346.0</ele><time>2026-04-04T16:32:02.285Z</time></trkpt><trkpt lat="44.4464221" lon="11.2163837"><ele>346.0</ele><time>2026-04-04T16:32:03.286Z</time></trkpt><trkpt lat="44.4463392" lon="11.2163928"><ele>346.0</ele><time>2026-04-04T16:32:04.285Z</time></trkpt><trkpt lat="44.4462589" lon="11.2164043"><ele>346.0</ele><time>2026-04-04T16:32:05.285Z</time></trkpt><trkpt lat="44.4461782" lon="11.2164229"><ele>346.0</ele><time>2026-04-04T16:32:06.285Z</time></trkpt><trkpt lat="44.4461039" lon="11.216439"><ele>346.0</ele><time>2026-04-04T16:32:07.285Z</time></trkpt><trkpt lat="44.446012" lon="11.2164697"><ele>346.5</ele><time>2026-04-04T16:32:08.285Z</time></trkpt><trkpt lat="44.4459275" lon="11.2164863"><ele>347.0</ele><time>2026-04-04T16:32:09.285Z</time></trkpt><trkpt lat="44.4458383" lon="11.2165042"><ele>347.5</ele><time>2026-04-04T16:32:10.285Z</time></trkpt><trkpt lat="44.4457492" lon="11.2165169"><ele>348.0</ele><time>2026-04-04T16:32:11.286Z</time></trkpt><trkpt lat="44.4456627" lon="11.2165269"><ele>348.5</ele><time>2026-04-04T16:32:12.286Z</time></trkpt><trkpt lat="44.4455739" lon="11.2165355"><ele>349.0</ele><time>2026-04-04T16:32:13.285Z</time></trkpt><trkpt lat="44.4454816" lon="11.2165305"><ele>347.4</ele><time>2026-04-04T16:32:14.285Z</time></trkpt><trkpt lat="44.4453856" lon="11.2165335"><ele>345.79999999999995</ele><time>2026-04-04T16:32:15.285Z</time></trkpt><trkpt lat="44.4452847" lon="11.2165137"><ele>344.20000000000005</ele><time>2026-04-04T16:32:16.285Z</time></trkpt><trkpt lat="44.4451832" lon="11.2164984"><ele>342.6</ele><time>2026-04-04T16:32:17.285Z</time></trkpt><trkpt lat="44.4450825" lon="11.2164773"><ele>341.0</ele><time>2026-04-04T16:32:18.285Z</time></trkpt><trkpt lat="44.4449811" lon="11.2164493"><ele>341.8</ele><time>2026-04-04T16:32:19.286Z</time></trkpt><trkpt lat="44.4448757" lon="11.2164142"><ele>342.6</ele><time>2026-04-04T16:32:20.285Z</time></trkpt><trkpt lat="44.4447853" lon="11.2163384"><ele>343.4</ele><time>2026-04-04T16:32:21.286Z</time></trkpt><trkpt lat="44.4446995" lon="11.2162701"><ele>344.2</ele><time>2026-04-04T16:32:22.286Z</time></trkpt><trkpt lat="44.4446352" lon="11.216166"><ele>345.0</ele><time>2026-04-04T16:32:23.285Z</time></trkpt><trkpt lat="44.4445637" lon="11.2160726"><ele>345.0</ele><time>2026-04-04T16:32:24.286Z</time></trkpt><trkpt lat="44.4444888" lon="11.2159831"><ele>345.0</ele><time>2026-04-04T16:32:25.285Z</time></trkpt><trkpt lat="44.4444111" lon="11.2159044"><ele>345.0</ele><time>2026-04-04T16:32:26.285Z</time></trkpt><trkpt lat="44.4443164" lon="11.2158576"><ele>345.0</ele><time>2026-04-04T16:32:27.285Z</time></trkpt><trkpt lat="44.4442168" lon="11.2158318"><ele>345.0</ele><time>2026-04-04T16:32:28.285Z</time></trkpt><trkpt lat="44.4441159" lon="11.2158657"><ele>345.0</ele><time>2026-04-04T16:32:29.285Z</time></trkpt><trkpt lat="44.4440109" lon="11.2158884"><ele>345.0</ele><time>2026-04-04T16:32:30.286Z</time></trkpt><trkpt lat="44.4439104" lon="11.2159438"><ele>345.0</ele><time>2026-04-04T16:32:31.285Z</time></trkpt><trkpt lat="44.4438029" lon="11.2159649"><ele>345.0</ele><time>2026-04-04T16:32:32.285Z</time></trkpt><trkpt lat="44.4437062" lon="11.2159568"><ele>345.0</ele><time>2026-04-04T16:32:33.286Z</time></trkpt><trkpt lat="44.4435979" lon="11.2159348"><ele>344.0</ele><time>2026-04-04T16:32:34.285Z</time></trkpt><trkpt lat="44.4434983" lon="11.2159224"><ele>343.0</ele><time>2026-04-04T16:32:35.285Z</time></trkpt><trkpt lat="44.4433959" lon="11.2158841"><ele>342.0</ele><time>2026-04-04T16:32:36.285Z</time></trkpt><trkpt lat="44.4432814" lon="11.2158493"><ele>341.0</ele><time>2026-04-04T16:32:37.285Z</time></trkpt><trkpt lat="44.4431661" lon="11.2158236"><ele>340.0</ele><time>2026-04-04T16:32:38.285Z</time></trkpt><trkpt lat="44.4430444" lon="11.2158089"><ele>339.75</ele><time>2026-04-04T16:32:39.285Z</time></trkpt><trkpt lat="44.4429218" lon="11.2158237"><ele>339.5</ele><time>2026-04-04T16:32:40.285Z</time></trkpt><trkpt lat="44.4427888" lon="11.2158467"><ele>339.25</ele><time>2026-04-04T16:32:41.285Z</time></trkpt><trkpt lat="44.4426492" lon="11.2158583"><ele>339.0</ele><time>2026-04-04T16:32:42.285Z</time></trkpt><trkpt lat="44.4425078" lon="11.2158771"><ele>339.0</ele><time>2026-04-04T16:32:43.285Z</time></trkpt><trkpt lat="44.442383" lon="11.2158699"><ele>339.0</ele><time>2026-04-04T16:32:44.285Z</time></trkpt><trkpt lat="44.4422539" lon="11.2158815"><ele>339.0</ele><time>2026-04-04T16:32:45.285Z</time></trkpt><trkpt lat="44.4421297" lon="11.2158763"><ele>339.0</ele><time>2026-04-04T16:32:46.285Z</time></trkpt><trkpt lat="44.4420145" lon="11.2158676"><ele>339.0</ele><time>2026-04-04T16:32:47.285Z</time></trkpt><trkpt lat="44.4419078" lon="11.2158594"><ele>339.0</ele><time>2026-04-04T16:32:48.285Z</time></trkpt><trkpt lat="44.4417992" lon="11.2158566"><ele>339.0</ele><time>2026-04-04T16:32:49.285Z</time></trkpt><trkpt lat="44.4416743" lon="11.2158576"><ele>339.0</ele><time>2026-04-04T16:32:50.285Z</time></trkpt><trkpt lat="44.441548" lon="11.2158576"><ele>339.0</ele><time>2026-04-04T16:32:51.285Z</time></trkpt><trkpt lat="44.4414207" lon="11.2158917"><ele>339.0</ele><time>2026-04-04T16:32:52.285Z</time></trkpt><trkpt lat="44.4413119" lon="11.2159327"><ele>339.0</ele><time>2026-04-04T16:32:53.285Z</time></trkpt><trkpt lat="44.4412054" lon="11.2159797"><ele>339.0</ele><time>2026-04-04T16:32:54.285Z</time></trkpt><trkpt lat="44.4411" lon="11.2160341"><ele>336.2</ele><time>2026-04-04T16:32:55.285Z</time></trkpt><trkpt lat="44.4410105" lon="11.2161011"><ele>333.4</ele><time>2026-04-04T16:32:56.285Z</time></trkpt><trkpt lat="44.4409398" lon="11.2162071"><ele>330.6</ele><time>2026-04-04T16:32:57.285Z</time></trkpt><trkpt lat="44.4408791" lon="11.2163366"><ele>327.8</ele><time>2026-04-04T16:32:58.285Z</time></trkpt><trkpt lat="44.4408581" lon="11.2165029"><ele>325.0</ele><time>2026-04-04T16:32:59.285Z</time></trkpt><trkpt lat="44.440827" lon="11.2166771"><ele>324.5</ele><time>2026-04-04T16:33:00.285Z</time></trkpt><trkpt lat="44.4408078" lon="11.2168509"><ele>324.0</ele><time>2026-04-04T16:33:01.285Z</time></trkpt><trkpt lat="44.4407805" lon="11.2170288"><ele>323.5</ele><time>2026-04-04T16:33:02.285Z</time></trkpt><trkpt lat="44.4407476" lon="11.2171995"><ele>323.0</ele><time>2026-04-04T16:33:03.285Z</time></trkpt><trkpt lat="44.4407082" lon="11.2173712"><ele>322.25</ele><time>2026-04-04T16:33:04.285Z</time></trkpt><trkpt lat="44.4406584" lon="11.2175333"><ele>321.5</ele><time>2026-04-04T16:33:05.285Z</time></trkpt><trkpt lat="44.4405943" lon="11.2176829"><ele>320.75</ele><time>2026-04-04T16:33:06.285Z</time></trkpt><trkpt lat="44.4405241" lon="11.2178262"><ele>320.0</ele><time>2026-04-04T16:33:07.285Z</time></trkpt><trkpt lat="44.4404544" lon="11.2179909"><ele>322.0</ele><time>2026-04-04T16:33:08.285Z</time></trkpt><trkpt lat="44.4403838" lon="11.2181549"><ele>324.0</ele><time>2026-04-04T16:33:09.285Z</time></trkpt><trkpt lat="44.4403113" lon="11.2183114"><ele>326.0</ele><time>2026-04-04T16:33:10.285Z</time></trkpt><trkpt lat="44.4402308" lon="11.2184904"><ele>328.0</ele><time>2026-04-04T16:33:11.285Z</time></trkpt><trkpt lat="44.4401556" lon="11.2186601"><ele>328.0</ele><time>2026-04-04T16:33:12.285Z</time></trkpt><trkpt lat="44.4400796" lon="11.2188254"><ele>328.0</ele><time>2026-04-04T16:33:13.285Z</time></trkpt><trkpt lat="44.4399969" lon="11.2190064"><ele>328.0</ele><time>2026-04-04T16:33:14.285Z</time></trkpt><trkpt lat="44.4399114" lon="11.2191949"><ele>330.66666666666663</ele><time>2026-04-04T16:33:15.285Z</time></trkpt><trkpt lat="44.4398178" lon="11.2194023"><ele>333.3333333333333</ele><time>2026-04-04T16:33:16.285Z</time></trkpt><trkpt lat="44.4397201" lon="11.2196203"><ele>336.0</ele><time>2026-04-04T16:33:17.285Z</time></trkpt><trkpt lat="44.4396229" lon="11.219838"><ele>337.0</ele><time>2026-04-04T16:33:18.285Z</time></trkpt><trkpt lat="44.4395376" lon="11.2200303"><ele>338.0</ele><time>2026-04-04T16:33:19.286Z</time></trkpt><trkpt lat="44.4394615" lon="11.2201962"><ele>339.0</ele><time>2026-04-04T16:33:20.285Z</time></trkpt><trkpt lat="44.4393784" lon="11.2203627"><ele>340.0</ele><time>2026-04-04T16:33:21.285Z</time></trkpt><trkpt lat="44.4393037" lon="11.2205286"><ele>344.25</ele><time>2026-04-04T16:33:22.285Z</time></trkpt><trkpt lat="44.4392232" lon="11.2206921"><ele>348.5</ele><time>2026-04-04T16:33:23.285Z</time></trkpt><trkpt lat="44.4391302" lon="11.2208535"><ele>352.75</ele><time>2026-04-04T16:33:24.285Z</time></trkpt><trkpt lat="44.4390196" lon="11.2210135"><ele>357.0</ele><time>2026-04-04T16:33:25.285Z</time></trkpt><trkpt lat="44.4389209" lon="11.2211563"><ele>357.0</ele><time>2026-04-04T16:33:26.286Z</time></trkpt><trkpt lat="44.4388258" lon="11.221291"><ele>357.0</ele><time>2026-04-04T16:33:27.285Z</time></trkpt><trkpt lat="44.4387372" lon="11.2213646"><ele>357.0</ele><time>2026-04-04T16:33:28.285Z</time></trkpt><trkpt lat="44.4386332" lon="11.221441"><ele>357.0</ele><time>2026-04-04T16:33:29.286Z</time></trkpt><trkpt lat="44.4385115" lon="11.2214682"><ele>355.8</ele><time>2026-04-04T16:33:30.285Z</time></trkpt><trkpt lat="44.4383923" lon="11.2214676"><ele>354.6</ele><time>2026-04-04T16:33:31.285Z</time></trkpt><trkpt lat="44.4382827" lon="11.2214477"><ele>353.40000000000003</ele><time>2026-04-04T16:33:32.285Z</time></trkpt><trkpt lat="44.4381843" lon="11.2214516"><ele>352.20000000000005</ele><time>2026-04-04T16:33:33.285Z</time></trkpt><trkpt lat="44.4381029" lon="11.2215111"><ele>351.0</ele><time>2026-04-04T16:33:34.286Z</time></trkpt><trkpt lat="44.4380393" lon="11.2215987"><ele>351.4</ele><time>2026-04-04T16:33:35.285Z</time></trkpt><trkpt lat="44.4379954" lon="11.2217199"><ele>351.8</ele><time>2026-04-04T16:33:36.285Z</time></trkpt><trkpt lat="44.4379563" lon="11.221845"><ele>352.2</ele><time>2026-04-04T16:33:37.285Z</time></trkpt><trkpt lat="44.4379427" lon="11.2219804"><ele>352.59999999999997</ele><time>2026-04-04T16:33:38.285Z</time></trkpt><trkpt lat="44.4379205" lon="11.2221254"><ele>353.0</ele><time>2026-04-04T16:33:39.285Z</time></trkpt><trkpt lat="44.437905" lon="11.2222811"><ele>355.79999999999995</ele><time>2026-04-04T16:33:40.285Z</time></trkpt><trkpt lat="44.4378763" lon="11.2224316"><ele>358.6</ele><time>2026-04-04T16:33:41.285Z</time></trkpt><trkpt lat="44.437831" lon="11.2225671"><ele>361.4</ele><time>2026-04-04T16:33:42.285Z</time></trkpt><trkpt lat="44.4377603" lon="11.2226731"><ele>364.20000000000005</ele><time>2026-04-04T16:33:43.285Z</time></trkpt><trkpt lat="44.4376678" lon="11.2227416"><ele>367.0</ele><time>2026-04-04T16:33:44.285Z</time></trkpt><trkpt lat="44.4375609" lon="11.2227941"><ele>367.0</ele><time>2026-04-04T16:33:45.285Z</time></trkpt><trkpt lat="44.4374578" lon="11.2228444"><ele>367.0</ele><time>2026-04-04T16:33:46.285Z</time></trkpt><trkpt lat="44.4373606" lon="11.2229013"><ele>367.0</ele><time>2026-04-04T16:33:47.285Z</time></trkpt><trkpt lat="44.4372667" lon="11.2229421"><ele>367.0</ele><time>2026-04-04T16:33:48.285Z</time></trkpt><trkpt lat="44.4371759" lon="11.2229801"><ele>367.0</ele><time>2026-04-04T16:33:49.285Z</time></trkpt><trkpt lat="44.4370778" lon="11.2230114"><ele>366.8</ele><time>2026-04-04T16:33:50.285Z</time></trkpt><trkpt lat="44.4369749" lon="11.2230032"><ele>366.6</ele><time>2026-04-04T16:33:51.285Z</time></trkpt><trkpt lat="44.436866" lon="11.222989"><ele>366.40000000000003</ele><time>2026-04-04T16:33:52.285Z</time></trkpt><trkpt lat="44.4367598" lon="11.2230193"><ele>366.20000000000005</ele><time>2026-04-04T16:33:53.285Z</time></trkpt><trkpt lat="44.4366545" lon="11.2230718"><ele>366.0</ele><time>2026-04-04T16:33:54.285Z</time></trkpt><trkpt lat="44.4365562" lon="11.2231398"><ele>366.6</ele><time>2026-04-04T16:33:55.285Z</time></trkpt><trkpt lat="44.4364621" lon="11.2232198"><ele>367.20000000000005</ele><time>2026-04-04T16:33:56.285Z</time></trkpt><trkpt lat="44.4363858" lon="11.2233121"><ele>367.79999999999995</ele><time>2026-04-04T16:33:57.285Z</time></trkpt><trkpt lat="44.4363215" lon="11.223423"><ele>368.4</ele><time>2026-04-04T16:33:58.285Z</time></trkpt><trkpt lat="44.4362644" lon="11.2235353"><ele>369.0</ele><time>2026-04-04T16:33:59.285Z</time></trkpt><trkpt lat="44.4362258" lon="11.2236335"><ele>369.0</ele><time>2026-04-04T16:34:00.285Z</time></trkpt><trkpt lat="44.4361938" lon="11.2237196"><ele>369.0</ele><time>2026-04-04T16:34:01.285Z</time></trkpt><trkpt lat="44.4361605" lon="11.2238054"><ele>369.0</ele><time>2026-04-04T16:34:02.285Z</time></trkpt><trkpt lat="44.4361171" lon="11.2239174"><ele>369.0</ele><time>2026-04-04T16:34:04.285Z</time></trkpt><trkpt lat="44.4361699" lon="11.2239757"><ele>369.0</ele><time>2026-04-04T16:34:08.285Z</time></trkpt><trkpt lat="44.4363456" lon="11.2238548"><ele>371.79999999999995</ele><time>2026-04-04T16:34:10.285Z</time></trkpt><trkpt lat="44.4364414" lon="11.2237904"><ele>374.59999999999997</ele><time>2026-04-04T16:34:11.285Z</time></trkpt><trkpt lat="44.4365483" lon="11.2237197"><ele>377.4</ele><time>2026-04-04T16:34:12.285Z</time></trkpt><trkpt lat="44.4366511" lon="11.2236615"><ele>380.2</ele><time>2026-04-04T16:34:13.285Z</time></trkpt><trkpt lat="44.4367567" lon="11.2236112"><ele>383.0</ele><time>2026-04-04T16:34:14.285Z</time></trkpt><trkpt lat="44.4368583" lon="11.2235654"><ele>383.0</ele><time>2026-04-04T16:34:15.285Z</time></trkpt><trkpt lat="44.4369865" lon="11.2235429"><ele>383.0</ele><time>2026-04-04T16:34:16.285Z</time></trkpt><trkpt lat="44.4371352" lon="11.22356"><ele>383.0</ele><time>2026-04-04T16:34:17.285Z</time></trkpt><trkpt lat="44.4372566" lon="11.2235877"><ele>383.0</ele><time>2026-04-04T16:34:18.285Z</time></trkpt><trkpt lat="44.4373627" lon="11.2236313"><ele>384.4</ele><time>2026-04-04T16:34:19.285Z</time></trkpt><trkpt lat="44.4374861" lon="11.2236521"><ele>385.79999999999995</ele><time>2026-04-04T16:34:20.285Z</time></trkpt><trkpt lat="44.437591" lon="11.2236287"><ele>387.2</ele><time>2026-04-04T16:34:21.285Z</time></trkpt><trkpt lat="44.4376908" lon="11.2236104"><ele>388.6</ele><time>2026-04-04T16:34:22.285Z</time></trkpt><trkpt lat="44.4377673" lon="11.2236116"><ele>390.0</ele><time>2026-04-04T16:34:23.286Z</time></trkpt><trkpt lat="44.4378384" lon="11.22362"><ele>390.0</ele><time>2026-04-04T16:34:24.285Z</time></trkpt><trkpt lat="44.4379092" lon="11.2236305"><ele>390.0</ele><time>2026-04-04T16:34:25.285Z</time></trkpt><trkpt lat="44.4380127" lon="11.2236304"><ele>390.0</ele><time>2026-04-04T16:34:27.285Z</time></trkpt><trkpt lat="44.4381244" lon="11.2235732"><ele>390.0</ele><time>2026-04-04T16:34:29.285Z</time></trkpt><trkpt lat="44.4382024" lon="11.2235501"><ele>390.0</ele><time>2026-04-04T16:34:30.285Z</time></trkpt><trkpt lat="44.4382828" lon="11.2235236"><ele>391.4</ele><time>2026-04-04T16:34:31.285Z</time></trkpt><trkpt lat="44.4383725" lon="11.22351"><ele>392.8</ele><time>2026-04-04T16:34:32.285Z</time></trkpt><trkpt lat="44.4384698" lon="11.2235098"><ele>394.20000000000005</ele><time>2026-04-04T16:34:33.285Z</time></trkpt><trkpt lat="44.4385609" lon="11.2235041"><ele>395.6</ele><time>2026-04-04T16:34:34.285Z</time></trkpt><trkpt lat="44.4386498" lon="11.2234974"><ele>397.0</ele><time>2026-04-04T16:34:35.285Z</time></trkpt><trkpt lat="44.4387396" lon="11.2234896"><ele>397.20000000000005</ele><time>2026-04-04T16:34:36.285Z</time></trkpt><trkpt lat="44.4388293" lon="11.2234911"><ele>397.4</ele><time>2026-04-04T16:34:37.285Z</time></trkpt><trkpt lat="44.4389207" lon="11.2234745"><ele>397.6</ele><time>2026-04-04T16:34:38.285Z</time></trkpt><trkpt lat="44.4390211" lon="11.2234291"><ele>397.79999999999995</ele><time>2026-04-04T16:34:39.285Z</time></trkpt><trkpt lat="44.4391065" lon="11.2233513"><ele>398.0</ele><time>2026-04-04T16:34:40.285Z</time></trkpt><trkpt lat="44.4391856" lon="11.2232724"><ele>398.0</ele><time>2026-04-04T16:34:41.285Z</time></trkpt><trkpt lat="44.4392623" lon="11.223179"><ele>398.0</ele><time>2026-04-04T16:34:42.285Z</time></trkpt><trkpt lat="44.4393352" lon="11.2230804"><ele>398.0</ele><time>2026-04-04T16:34:43.285Z</time></trkpt><trkpt lat="44.4394186" lon="11.222979"><ele>398.0</ele><time>2026-04-04T16:34:44.285Z</time></trkpt><trkpt lat="44.4394875" lon="11.2229156"><ele>398.0</ele><time>2026-04-04T16:34:45.285Z</time></trkpt><trkpt lat="44.4395719" lon="11.22285"><ele>396.66666666666663</ele><time>2026-04-04T16:34:46.285Z</time></trkpt><trkpt lat="44.4396667" lon="11.2228274"><ele>395.33333333333337</ele><time>2026-04-04T16:34:47.285Z</time></trkpt><trkpt lat="44.4397503" lon="11.222816"><ele>394.0</ele><time>2026-04-04T16:34:48.285Z</time></trkpt><trkpt lat="44.4396544" lon="11.2232232"><ele>394.6666666666667</ele><time>2026-04-04T16:34:50.285Z</time></trkpt><trkpt lat="44.4396194" lon="11.2233152"><ele>395.33333333333337</ele><time>2026-04-04T16:34:51.285Z</time></trkpt><trkpt lat="44.4395815" lon="11.2234327"><ele>396.0</ele><time>2026-04-04T16:34:52.286Z</time></trkpt><trkpt lat="44.4395517" lon="11.2235582"><ele>396.66666666666663</ele><time>2026-04-04T16:34:53.285Z</time></trkpt><trkpt lat="44.4395259" lon="11.2236996"><ele>397.3333333333333</ele><time>2026-04-04T16:34:54.285Z</time></trkpt><trkpt lat="44.4395186" lon="11.2238089"><ele>398.0</ele><time>2026-04-04T16:34:55.285Z</time></trkpt><trkpt lat="44.4395194" lon="11.2239257"><ele>399.2</ele><time>2026-04-04T16:34:56.285Z</time></trkpt><trkpt lat="44.4395333" lon="11.2240232"><ele>400.4</ele><time>2026-04-04T16:34:57.286Z</time></trkpt><trkpt lat="44.4395446" lon="11.2241144"><ele>401.59999999999997</ele><time>2026-04-04T16:34:58.285Z</time></trkpt><trkpt lat="44.4395669" lon="11.2243286"><ele>402.79999999999995</ele><time>2026-04-04T16:35:01.285Z</time></trkpt><trkpt lat="44.4395897" lon="11.2244396"><ele>404.0</ele><time>2026-04-04T16:35:03.286Z</time></trkpt><trkpt lat="44.4395981" lon="11.2242873"><ele>404.0</ele><time>2026-04-04T16:35:13.285Z</time></trkpt><trkpt lat="44.4395612" lon="11.224071"><ele>404.0</ele><time>2026-04-04T16:35:15.285Z</time></trkpt><trkpt lat="44.4395522" lon="11.2239342"><ele>404.0</ele><time>2026-04-04T16:35:16.285Z</time></trkpt><trkpt lat="44.4395672" lon="11.2238004"><ele>404.0</ele><time>2026-04-04T16:35:17.285Z</time></trkpt><trkpt lat="44.439597" lon="11.2236673"><ele>402.79999999999995</ele><time>2026-04-04T16:35:18.285Z</time></trkpt><trkpt lat="44.4396458" lon="11.2235766"><ele>401.59999999999997</ele><time>2026-04-04T16:35:20.285Z</time></trkpt><trkpt lat="44.4397001" lon="11.2235036"><ele>400.4</ele><time>2026-04-04T16:37:21.285Z</time></trkpt><trkpt lat="44.4396366" lon="11.2235305"><ele>399.2</ele><time>2026-04-04T16:37:38.285Z</time></trkpt><trkpt lat="44.4395489" lon="11.2236986"><ele>398.0</ele><time>2026-04-04T16:37:42.286Z</time></trkpt><trkpt lat="44.4395395" lon="11.2238448"><ele>398.0</ele><time>2026-04-04T16:37:43.285Z</time></trkpt><trkpt lat="44.4395505" lon="11.2239686"><ele>398.0</ele><time>2026-04-04T16:37:44.285Z</time></trkpt><trkpt lat="44.4395656" lon="11.2241014"><ele>398.0</ele><time>2026-04-04T16:37:45.285Z</time></trkpt><trkpt lat="44.4395808" lon="11.2242345"><ele>398.0</ele><time>2026-04-04T16:37:46.285Z</time></trkpt><trkpt lat="44.4395905" lon="11.2243662"><ele>398.0</ele><time>2026-04-04T16:37:47.285Z</time></trkpt><trkpt lat="44.4395948" lon="11.2245136"><ele>399.2</ele><time>2026-04-04T16:37:48.285Z</time></trkpt><trkpt lat="44.4395968" lon="11.2246552"><ele>400.4</ele><time>2026-04-04T16:37:49.285Z</time></trkpt><trkpt lat="44.4396036" lon="11.2248042"><ele>401.59999999999997</ele><time>2026-04-04T16:37:50.285Z</time></trkpt><trkpt lat="44.4396298" lon="11.2249619"><ele>402.79999999999995</ele><time>2026-04-04T16:37:51.285Z</time></trkpt><trkpt lat="44.4396924" lon="11.2251058"><ele>404.0</ele><time>2026-04-04T16:37:52.285Z</time></trkpt><trkpt lat="44.4397481" lon="11.2252684"><ele>394.66666666666663</ele><time>2026-04-04T16:37:53.285Z</time></trkpt><trkpt lat="44.4399449" lon="11.2254819"><ele>385.3333333333333</ele><time>2026-04-04T16:37:55.285Z</time></trkpt><trkpt lat="44.4400464" lon="11.2255585"><ele>376.0</ele><time>2026-04-04T16:37:56.285Z</time></trkpt><trkpt lat="44.440155" lon="11.2256009"><ele>376.0</ele><time>2026-04-04T16:37:57.285Z</time></trkpt><trkpt lat="44.4402737" lon="11.2256307"><ele>376.0</ele><time>2026-04-04T16:37:58.285Z</time></trkpt><trkpt lat="44.4403861" lon="11.2256348"><ele>376.0</ele><time>2026-04-04T16:37:59.285Z</time></trkpt><trkpt lat="44.4404993" lon="11.2256543"><ele>376.0</ele><time>2026-04-04T16:38:00.285Z</time></trkpt><trkpt lat="44.4406105" lon="11.22566"><ele>375.6</ele><time>2026-04-04T16:38:01.286Z</time></trkpt><trkpt lat="44.4407196" lon="11.2256595"><ele>375.20000000000005</ele><time>2026-04-04T16:38:02.285Z</time></trkpt><trkpt lat="44.4408097" lon="11.2256969"><ele>374.79999999999995</ele><time>2026-04-04T16:38:03.285Z</time></trkpt><trkpt lat="44.4409017" lon="11.2257622"><ele>374.4</ele><time>2026-04-04T16:38:04.285Z</time></trkpt><trkpt lat="44.4409909" lon="11.2258532"><ele>374.0</ele><time>2026-04-04T16:38:05.285Z</time></trkpt><trkpt lat="44.4410825" lon="11.2259596"><ele>374.0</ele><time>2026-04-04T16:38:06.285Z</time></trkpt><trkpt lat="44.4411827" lon="11.2260897"><ele>374.0</ele><time>2026-04-04T16:38:07.285Z</time></trkpt><trkpt lat="44.4412837" lon="11.2261837"><ele>374.0</ele><time>2026-04-04T16:38:08.285Z</time></trkpt><trkpt lat="44.4413787" lon="11.2262831"><ele>374.0</ele><time>2026-04-04T16:38:09.285Z</time></trkpt><trkpt lat="44.4414747" lon="11.2263784"><ele>372.0</ele><time>2026-04-04T16:38:10.285Z</time></trkpt><trkpt lat="44.4415601" lon="11.2264777"><ele>370.0</ele><time>2026-04-04T16:38:11.285Z</time></trkpt><trkpt lat="44.4416499" lon="11.2265596"><ele>368.0</ele><time>2026-04-04T16:38:12.285Z</time></trkpt><trkpt lat="44.4417319" lon="11.2266527"><ele>366.0</ele><time>2026-04-04T16:38:13.285Z</time></trkpt><trkpt lat="44.4418147" lon="11.2267363"><ele>364.0</ele><time>2026-04-04T16:38:14.285Z</time></trkpt><trkpt lat="44.4418905" lon="11.2268098"><ele>363.4</ele><time>2026-04-04T16:38:15.286Z</time></trkpt><trkpt lat="44.4419699" lon="11.2268893"><ele>362.79999999999995</ele><time>2026-04-04T16:38:16.286Z</time></trkpt><trkpt lat="44.4420446" lon="11.2269846"><ele>362.20000000000005</ele><time>2026-04-04T16:38:17.286Z</time></trkpt><trkpt lat="44.4421086" lon="11.2270957"><ele>361.6</ele><time>2026-04-04T16:38:18.285Z</time></trkpt><trkpt lat="44.442171" lon="11.2272126"><ele>361.0</ele><time>2026-04-04T16:38:19.285Z</time></trkpt><trkpt lat="44.4422333" lon="11.2273336"><ele>360.20000000000005</ele><time>2026-04-04T16:38:20.285Z</time></trkpt><trkpt lat="44.4423017" lon="11.2274505"><ele>359.40000000000003</ele><time>2026-04-04T16:38:21.286Z</time></trkpt><trkpt lat="44.4423757" lon="11.2275618"><ele>358.6</ele><time>2026-04-04T16:38:22.285Z</time></trkpt><trkpt lat="44.4424551" lon="11.2276519"><ele>357.8</ele><time>2026-04-04T16:38:23.285Z</time></trkpt><trkpt lat="44.442543" lon="11.2277276"><ele>357.0</ele><time>2026-04-04T16:38:24.285Z</time></trkpt><trkpt lat="44.4426346" lon="11.2277861"><ele>357.0</ele><time>2026-04-04T16:38:25.285Z</time></trkpt><trkpt lat="44.4427306" lon="11.2278515"><ele>357.0</ele><time>2026-04-04T16:38:26.285Z</time></trkpt><trkpt lat="44.4428234" lon="11.227923"><ele>357.0</ele><time>2026-04-04T16:38:27.285Z</time></trkpt><trkpt lat="44.4429108" lon="11.2280071"><ele>357.0</ele><time>2026-04-04T16:38:28.285Z</time></trkpt><trkpt lat="44.4429892" lon="11.2281054"><ele>357.0</ele><time>2026-04-04T16:38:29.286Z</time></trkpt><trkpt lat="44.4430618" lon="11.2282054"><ele>355.0</ele><time>2026-04-04T16:38:30.285Z</time></trkpt><trkpt lat="44.4431374" lon="11.2282931"><ele>353.0</ele><time>2026-04-04T16:38:31.285Z</time></trkpt><trkpt lat="44.4432181" lon="11.2283492"><ele>351.0</ele><time>2026-04-04T16:38:32.285Z</time></trkpt><trkpt lat="44.4433067" lon="11.2283921"><ele>349.0</ele><time>2026-04-04T16:38:33.285Z</time></trkpt><trkpt lat="44.4434022" lon="11.2284164"><ele>347.0</ele><time>2026-04-04T16:38:34.286Z</time></trkpt><trkpt lat="44.4435034" lon="11.2284483"><ele>347.0</ele><time>2026-04-04T16:38:35.285Z</time></trkpt><trkpt lat="44.4435933" lon="11.2284706"><ele>347.0</ele><time>2026-04-04T16:38:36.285Z</time></trkpt><trkpt lat="44.4436814" lon="11.228547"><ele>347.0</ele><time>2026-04-04T16:38:37.285Z</time></trkpt><trkpt lat="44.4437551" lon="11.2286684"><ele>347.0</ele><time>2026-04-04T16:38:38.285Z</time></trkpt><trkpt lat="44.4438093" lon="11.2287813"><ele>347.0</ele><time>2026-04-04T16:38:39.285Z</time></trkpt><trkpt lat="44.4438496" lon="11.2288728"><ele>345.40000000000003</ele><time>2026-04-04T16:38:40.286Z</time></trkpt><trkpt lat="44.4438963" lon="11.2289962"><ele>343.8</ele><time>2026-04-04T16:38:42.285Z</time></trkpt><trkpt lat="44.4439454" lon="11.2290669"><ele>342.2</ele><time>2026-04-04T16:38:44.285Z</time></trkpt><trkpt lat="44.4440184" lon="11.2292018"><ele>340.6</ele><time>2026-04-04T16:38:46.285Z</time></trkpt><trkpt lat="44.4440793" lon="11.2292888"><ele>339.0</ele><time>2026-04-04T16:38:47.285Z</time></trkpt><trkpt lat="44.4441593" lon="11.2293772"><ele>339.0</ele><time>2026-04-04T16:38:48.285Z</time></trkpt><trkpt lat="44.4442502" lon="11.2294761"><ele>339.0</ele><time>2026-04-04T16:38:49.285Z</time></trkpt><trkpt lat="44.4443409" lon="11.2295695"><ele>339.0</ele><time>2026-04-04T16:38:50.285Z</time></trkpt><trkpt lat="44.4444327" lon="11.2296543"><ele>339.0</ele><time>2026-04-04T16:38:51.285Z</time></trkpt><trkpt lat="44.4445237" lon="11.2297408"><ele>339.0</ele><time>2026-04-04T16:38:52.286Z</time></trkpt><trkpt lat="44.4446137" lon="11.2298303"><ele>338.0</ele><time>2026-04-04T16:38:53.285Z</time></trkpt><trkpt lat="44.4446945" lon="11.2299272"><ele>337.0</ele><time>2026-04-04T16:38:54.285Z</time></trkpt><trkpt lat="44.444767" lon="11.2300212"><ele>336.0</ele><time>2026-04-04T16:38:55.285Z</time></trkpt><trkpt lat="44.4447901" lon="11.2301309"><ele>335.0</ele><time>2026-04-04T16:38:56.285Z</time></trkpt><trkpt lat="44.4448177" lon="11.2302433"><ele>334.0</ele><time>2026-04-04T16:38:58.285Z</time></trkpt><trkpt lat="44.4448301" lon="11.230349"><ele>333.0</ele><time>2026-04-04T16:39:18.285Z</time></trkpt><trkpt lat="44.4448182" lon="11.2302412"><ele>333.0</ele><time>2026-04-04T16:40:19.285Z</time></trkpt><trkpt lat="44.4447401" lon="11.2300975"><ele>333.0</ele><time>2026-04-04T16:40:21.285Z</time></trkpt><trkpt lat="44.4446845" lon="11.2299919"><ele>333.0</ele><time>2026-04-04T16:40:22.285Z</time></trkpt><trkpt lat="44.4446179" lon="11.2299019"><ele>333.0</ele><time>2026-04-04T16:40:23.286Z</time></trkpt><trkpt lat="44.4445353" lon="11.2298143"><ele>333.0</ele><time>2026-04-04T16:40:24.285Z</time></trkpt><trkpt lat="44.4444519" lon="11.2297319"><ele>334.5</ele><time>2026-04-04T16:40:25.285Z</time></trkpt><trkpt lat="44.4443701" lon="11.2296471"><ele>336.0</ele><time>2026-04-04T16:40:26.285Z</time></trkpt><trkpt lat="44.4442872" lon="11.2295645"><ele>337.5</ele><time>2026-04-04T16:40:27.285Z</time></trkpt><trkpt lat="44.4441819" lon="11.2294547"><ele>339.0</ele><time>2026-04-04T16:40:28.285Z</time></trkpt><trkpt lat="44.4440856" lon="11.2293329"><ele>339.0</ele><time>2026-04-04T16:40:29.285Z</time></trkpt><trkpt lat="44.4439988" lon="11.2292"><ele>339.0</ele><time>2026-04-04T16:40:30.285Z</time></trkpt><trkpt lat="44.4439283" lon="11.2290709"><ele>339.0</ele><time>2026-04-04T16:40:31.285Z</time></trkpt><trkpt lat="44.4438723" lon="11.2289495"><ele>339.0</ele><time>2026-04-04T16:40:32.285Z</time></trkpt><trkpt lat="44.4438204" lon="11.2288335"><ele>339.0</ele><time>2026-04-04T16:40:33.285Z</time></trkpt><trkpt lat="44.4437687" lon="11.2287211"><ele>340.3333333333333</ele><time>2026-04-04T16:40:34.286Z</time></trkpt><trkpt lat="44.4437199" lon="11.2286252"><ele>341.6666666666667</ele><time>2026-04-04T16:40:35.285Z</time></trkpt><trkpt lat="44.4436667" lon="11.228549"><ele>343.0</ele><time>2026-04-04T16:40:36.285Z</time></trkpt><trkpt lat="44.4436081" lon="11.228494"><ele>344.33333333333337</ele><time>2026-04-04T16:40:37.285Z</time></trkpt><trkpt lat="44.4435327" lon="11.2284577"><ele>345.6666666666667</ele><time>2026-04-04T16:40:38.286Z</time></trkpt><trkpt lat="44.4434544" lon="11.2284342"><ele>347.0</ele><time>2026-04-04T16:40:39.286Z</time></trkpt><trkpt lat="44.4433723" lon="11.228408"><ele>347.0</ele><time>2026-04-04T16:40:40.286Z</time></trkpt><trkpt lat="44.4432794" lon="11.228374"><ele>347.0</ele><time>2026-04-04T16:40:41.286Z</time></trkpt><trkpt lat="44.4431836" lon="11.2283139"><ele>347.0</ele><time>2026-04-04T16:40:42.285Z</time></trkpt><trkpt lat="44.4430829" lon="11.2282332"><ele>347.0</ele><time>2026-04-04T16:40:43.285Z</time></trkpt><trkpt lat="44.4429782" lon="11.2281384"><ele>347.0</ele><time>2026-04-04T16:40:44.286Z</time></trkpt><trkpt lat="44.4428485" lon="11.2279583"><ele>350.33333333333337</ele><time>2026-04-04T16:40:45.285Z</time></trkpt><trkpt lat="44.4426889" lon="11.2278507"><ele>353.6666666666667</ele><time>2026-04-04T16:40:46.285Z</time></trkpt><trkpt lat="44.4425356" lon="11.2277379"><ele>357.0</ele><time>2026-04-04T16:40:47.285Z</time></trkpt><trkpt lat="44.4423978" lon="11.2275964"><ele>357.0</ele><time>2026-04-04T16:40:48.285Z</time></trkpt><trkpt lat="44.442286" lon="11.22743"><ele>357.0</ele><time>2026-04-04T16:40:49.285Z</time></trkpt><trkpt lat="44.4421952" lon="11.2272612"><ele>357.0</ele><time>2026-04-04T16:40:50.285Z</time></trkpt><trkpt lat="44.4421107" lon="11.2271034"><ele>358.0</ele><time>2026-04-04T16:40:51.285Z</time></trkpt><trkpt lat="44.4420155" lon="11.2269804"><ele>359.0</ele><time>2026-04-04T16:40:52.286Z</time></trkpt><trkpt lat="44.4419169" lon="11.2268624"><ele>360.0</ele><time>2026-04-04T16:40:53.285Z</time></trkpt><trkpt lat="44.4418142" lon="11.2267453"><ele>361.0</ele><time>2026-04-04T16:40:54.285Z</time></trkpt><trkpt lat="44.4416954" lon="11.2266227"><ele>361.0</ele><time>2026-04-04T16:40:55.286Z</time></trkpt><trkpt lat="44.4415916" lon="11.2265004"><ele>361.0</ele><time>2026-04-04T16:40:56.285Z</time></trkpt><trkpt lat="44.441489" lon="11.2263824"><ele>361.0</ele><time>2026-04-04T16:40:57.285Z</time></trkpt><trkpt lat="44.4414003" lon="11.2262572"><ele>361.0</ele><time>2026-04-04T16:40:58.285Z</time></trkpt><trkpt lat="44.4412984" lon="11.2261494"><ele>364.25</ele><time>2026-04-04T16:40:59.285Z</time></trkpt><trkpt lat="44.4412015" lon="11.2260337"><ele>367.5</ele><time>2026-04-04T16:41:00.285Z</time></trkpt><trkpt lat="44.4410798" lon="11.225887"><ele>370.75</ele><time>2026-04-04T16:41:01.285Z</time></trkpt><trkpt lat="44.4409839" lon="11.2257674"><ele>374.0</ele><time>2026-04-04T16:41:02.285Z</time></trkpt><trkpt lat="44.44088" lon="11.2256934"><ele>374.0</ele><time>2026-04-04T16:41:03.286Z</time></trkpt><trkpt lat="44.4407523" lon="11.2256592"><ele>374.0</ele><time>2026-04-04T16:41:04.285Z</time></trkpt><trkpt lat="44.440624" lon="11.2256129"><ele>374.0</ele><time>2026-04-04T16:41:05.286Z</time></trkpt><trkpt lat="44.4404799" lon="11.2256396"><ele>374.0</ele><time>2026-04-04T16:41:06.285Z</time></trkpt><trkpt lat="44.4403376" lon="11.2256284"><ele>374.6666666666667</ele><time>2026-04-04T16:41:07.285Z</time></trkpt><trkpt lat="44.4401801" lon="11.2256045"><ele>375.3333333333333</ele><time>2026-04-04T16:41:08.285Z</time></trkpt><trkpt lat="44.4400453" lon="11.2255385"><ele>376.0</ele><time>2026-04-04T16:41:09.285Z</time></trkpt><trkpt lat="44.4399103" lon="11.2254202"><ele>376.0</ele><time>2026-04-04T16:41:10.285Z</time></trkpt><trkpt lat="44.4397911" lon="11.2252938"><ele>376.0</ele><time>2026-04-04T16:41:11.285Z</time></trkpt><trkpt lat="44.439703" lon="11.2251488"><ele>376.0</ele><time>2026-04-04T16:41:12.285Z</time></trkpt><trkpt lat="44.4396384" lon="11.2249865"><ele>376.0</ele><time>2026-04-04T16:41:13.285Z</time></trkpt><trkpt lat="44.4396082" lon="11.2247998"><ele>383.0</ele><time>2026-04-04T16:41:14.285Z</time></trkpt><trkpt lat="44.4395963" lon="11.2245971"><ele>390.0</ele><time>2026-04-04T16:41:15.286Z</time></trkpt><trkpt lat="44.4395779" lon="11.2243936"><ele>397.0</ele><time>2026-04-04T16:41:16.285Z</time></trkpt><trkpt lat="44.4395492" lon="11.2242039"><ele>404.0</ele><time>2026-04-04T16:41:17.285Z</time></trkpt><trkpt lat="44.439527" lon="11.2240037"><ele>402.5</ele><time>2026-04-04T16:41:18.285Z</time></trkpt><trkpt lat="44.4395355" lon="11.2238023"><ele>401.0</ele><time>2026-04-04T16:41:19.285Z</time></trkpt><trkpt lat="44.4395751" lon="11.2236121"><ele>399.5</ele><time>2026-04-04T16:41:20.286Z</time></trkpt><trkpt lat="44.4396518" lon="11.2234432"><ele>398.0</ele><time>2026-04-04T16:41:21.285Z</time></trkpt><trkpt lat="44.4396958" lon="11.223288"><ele>397.2</ele><time>2026-04-04T16:41:22.285Z</time></trkpt><trkpt lat="44.4396906" lon="11.2231317"><ele>396.4</ele><time>2026-04-04T16:41:23.285Z</time></trkpt><trkpt lat="44.4396861" lon="11.2229708"><ele>395.59999999999997</ele><time>2026-04-04T16:41:24.285Z</time></trkpt><trkpt lat="44.4396394" lon="11.2228347"><ele>394.79999999999995</ele><time>2026-04-04T16:41:25.285Z</time></trkpt><trkpt lat="44.4395735" lon="11.2227424"><ele>394.0</ele><time>2026-04-04T16:41:26.285Z</time></trkpt><trkpt lat="44.4395189" lon="11.2226709"><ele>395.0</ele><time>2026-04-04T16:41:27.285Z</time></trkpt><trkpt lat="44.43948" lon="11.2227977"><ele>396.0</ele><time>2026-04-04T16:41:28.285Z</time></trkpt><trkpt lat="44.4393575" lon="11.2230358"><ele>397.0</ele><time>2026-04-04T16:41:29.285Z</time></trkpt><trkpt lat="44.4392681" lon="11.2231387"><ele>398.0</ele><time>2026-04-04T16:41:30.285Z</time></trkpt><trkpt lat="44.4391725" lon="11.2232411"><ele>398.0</ele><time>2026-04-04T16:41:31.285Z</time></trkpt><trkpt lat="44.4390736" lon="11.2233395"><ele>398.0</ele><time>2026-04-04T16:41:32.285Z</time></trkpt><trkpt lat="44.4389638" lon="11.2233932"><ele>398.0</ele><time>2026-04-04T16:41:33.285Z</time></trkpt><trkpt lat="44.4388664" lon="11.2234239"><ele>398.0</ele><time>2026-04-04T16:41:34.285Z</time></trkpt><trkpt lat="44.4387692" lon="11.2234311"><ele>398.0</ele><time>2026-04-04T16:41:35.285Z</time></trkpt><trkpt lat="44.4386798" lon="11.2234393"><ele>397.8333333333333</ele><time>2026-04-04T16:41:36.285Z</time></trkpt><trkpt lat="44.4385992" lon="11.2234322"><ele>397.66666666666663</ele><time>2026-04-04T16:41:37.285Z</time></trkpt><trkpt lat="44.4385203" lon="11.2234451"><ele>397.5</ele><time>2026-04-04T16:41:38.285Z</time></trkpt><trkpt lat="44.4384537" lon="11.2234574"><ele>397.33333333333337</ele><time>2026-04-04T16:41:39.285Z</time></trkpt><trkpt lat="44.4383673" lon="11.2234684"><ele>397.1666666666667</ele><time>2026-04-04T16:41:40.285Z</time></trkpt><trkpt lat="44.4382825" lon="11.2234932"><ele>397.0</ele><time>2026-04-04T16:41:41.285Z</time></trkpt><trkpt lat="44.438201" lon="11.2235384"><ele>397.0</ele><time>2026-04-04T16:41:42.285Z</time></trkpt><trkpt lat="44.4381173" lon="11.2235571"><ele>397.0</ele><time>2026-04-04T16:41:43.285Z</time></trkpt><trkpt lat="44.4380162" lon="11.2235884"><ele>397.0</ele><time>2026-04-04T16:41:44.285Z</time></trkpt><trkpt lat="44.4379028" lon="11.2235917"><ele>397.0</ele><time>2026-04-04T16:41:45.285Z</time></trkpt><trkpt lat="44.4377906" lon="11.2236071"><ele>397.0</ele><time>2026-04-04T16:41:46.285Z</time></trkpt><trkpt lat="44.437678" lon="11.2236255"><ele>395.6</ele><time>2026-04-04T16:41:47.285Z</time></trkpt><trkpt lat="44.4375758" lon="11.2236518"><ele>394.20000000000005</ele><time>2026-04-04T16:41:48.285Z</time></trkpt><trkpt lat="44.437468" lon="11.2236589"><ele>392.8</ele><time>2026-04-04T16:41:49.285Z</time></trkpt><trkpt lat="44.4373584" lon="11.2236396"><ele>391.4</ele><time>2026-04-04T16:41:50.285Z</time></trkpt><trkpt lat="44.4372506" lon="11.2235968"><ele>390.0</ele><time>2026-04-04T16:41:51.286Z</time></trkpt><trkpt lat="44.4371469" lon="11.2235443"><ele>388.6</ele><time>2026-04-04T16:41:52.285Z</time></trkpt><trkpt lat="44.4370447" lon="11.2235281"><ele>387.2</ele><time>2026-04-04T16:41:53.285Z</time></trkpt><trkpt lat="44.4369371" lon="11.2235327"><ele>385.79999999999995</ele><time>2026-04-04T16:41:54.286Z</time></trkpt><trkpt lat="44.4368318" lon="11.2235692"><ele>384.4</ele><time>2026-04-04T16:41:55.286Z</time></trkpt><trkpt lat="44.4367191" lon="11.2236215"><ele>383.0</ele><time>2026-04-04T16:41:56.286Z</time></trkpt><trkpt lat="44.4366109" lon="11.2236858"><ele>383.0</ele><time>2026-04-04T16:41:57.285Z</time></trkpt><trkpt lat="44.4365081" lon="11.2237485"><ele>383.0</ele><time>2026-04-04T16:41:58.285Z</time></trkpt><trkpt lat="44.4364138" lon="11.2238134"><ele>383.0</ele><time>2026-04-04T16:41:59.285Z</time></trkpt><trkpt lat="44.4363371" lon="11.223866"><ele>383.0</ele><time>2026-04-04T16:42:00.285Z</time></trkpt><trkpt lat="44.4362768" lon="11.2239087"><ele>383.0</ele><time>2026-04-04T16:42:01.285Z</time></trkpt><trkpt lat="44.4361908" lon="11.2239538"><ele>382.2</ele><time>2026-04-04T16:42:03.285Z</time></trkpt><trkpt lat="44.4361104" lon="11.2240103"><ele>381.4</ele><time>2026-04-04T16:42:05.285Z</time></trkpt><trkpt lat="44.4360384" lon="11.2240554"><ele>380.59999999999997</ele><time>2026-04-04T16:42:06.285Z</time></trkpt><trkpt lat="44.4359557" lon="11.2241153"><ele>379.79999999999995</ele><time>2026-04-04T16:42:07.285Z</time></trkpt><trkpt lat="44.4358673" lon="11.224205"><ele>379.0</ele><time>2026-04-04T16:42:08.285Z</time></trkpt><trkpt lat="44.4357721" lon="11.2242963"><ele>379.0</ele><time>2026-04-04T16:42:09.285Z</time></trkpt><trkpt lat="44.4356704" lon="11.2244026"><ele>379.0</ele><time>2026-04-04T16:42:10.285Z</time></trkpt><trkpt lat="44.4355682" lon="11.2245295"><ele>379.0</ele><time>2026-04-04T16:42:11.285Z</time></trkpt><trkpt lat="44.43548" lon="11.2246772"><ele>379.0</ele><time>2026-04-04T16:42:12.285Z</time></trkpt><trkpt lat="44.4353884" lon="11.2248304"><ele>382.0</ele><time>2026-04-04T16:42:13.285Z</time></trkpt><trkpt lat="44.435306" lon="11.2249735"><ele>385.0</ele><time>2026-04-04T16:42:14.285Z</time></trkpt><trkpt lat="44.435228" lon="11.2251074"><ele>388.0</ele><time>2026-04-04T16:42:15.285Z</time></trkpt><trkpt lat="44.4351496" lon="11.2252281"><ele>391.0</ele><time>2026-04-04T16:42:16.285Z</time></trkpt><trkpt lat="44.4350744" lon="11.2253239"><ele>391.0</ele><time>2026-04-04T16:42:17.285Z</time></trkpt><trkpt lat="44.4349848" lon="11.2253991"><ele>391.0</ele><time>2026-04-04T16:42:18.285Z</time></trkpt><trkpt lat="44.4348977" lon="11.2254634"><ele>391.0</ele><time>2026-04-04T16:42:19.285Z</time></trkpt><trkpt lat="44.4348073" lon="11.2253603"><ele>391.0</ele><time>2026-04-04T16:42:20.285Z</time></trkpt><trkpt lat="44.4347097" lon="11.2252692"><ele>391.0</ele><time>2026-04-04T16:42:21.286Z</time></trkpt><trkpt lat="44.4346358" lon="11.2251618"><ele>390.5</ele><time>2026-04-04T16:42:22.285Z</time></trkpt><trkpt lat="44.434556" lon="11.2250528"><ele>390.0</ele><time>2026-04-04T16:42:23.285Z</time></trkpt><trkpt lat="44.434459" lon="11.224957"><ele>389.5</ele><time>2026-04-04T16:42:24.285Z</time></trkpt><trkpt lat="44.4343659" lon="11.2248567"><ele>389.0</ele><time>2026-04-04T16:42:25.285Z</time></trkpt><trkpt lat="44.4342593" lon="11.2247735"><ele>389.0</ele><time>2026-04-04T16:42:26.285Z</time></trkpt><trkpt lat="44.4341546" lon="11.2246756"><ele>389.0</ele><time>2026-04-04T16:42:27.286Z</time></trkpt><trkpt lat="44.43404" lon="11.2245772"><ele>389.0</ele><time>2026-04-04T16:42:28.285Z</time></trkpt><trkpt lat="44.4339213" lon="11.2244767"><ele>389.0</ele><time>2026-04-04T16:42:29.286Z</time></trkpt><trkpt lat="44.4338004" lon="11.224373"><ele>393.75</ele><time>2026-04-04T16:42:30.285Z</time></trkpt><trkpt lat="44.4336773" lon="11.2242747"><ele>398.5</ele><time>2026-04-04T16:42:31.285Z</time></trkpt><trkpt lat="44.4335396" lon="11.2241711"><ele>403.25</ele><time>2026-04-04T16:42:32.285Z</time></trkpt><trkpt lat="44.4334093" lon="11.2240734"><ele>408.0</ele><time>2026-04-04T16:42:33.285Z</time></trkpt><trkpt lat="44.433277" lon="11.2240012"><ele>408.75</ele><time>2026-04-04T16:42:34.285Z</time></trkpt><trkpt lat="44.4331424" lon="11.2239556"><ele>409.5</ele><time>2026-04-04T16:42:35.285Z</time></trkpt><trkpt lat="44.4330086" lon="11.2239302"><ele>410.25</ele><time>2026-04-04T16:42:36.285Z</time></trkpt><trkpt lat="44.4328847" lon="11.2239316"><ele>411.0</ele><time>2026-04-04T16:42:37.285Z</time></trkpt><trkpt lat="44.4327516" lon="11.2239117"><ele>411.0</ele><time>2026-04-04T16:42:38.286Z</time></trkpt><trkpt lat="44.432621" lon="11.2239003"><ele>411.0</ele><time>2026-04-04T16:42:39.285Z</time></trkpt><trkpt lat="44.4324853" lon="11.22387"><ele>411.0</ele><time>2026-04-04T16:42:40.285Z</time></trkpt><trkpt lat="44.4323519" lon="11.2238248"><ele>411.0</ele><time>2026-04-04T16:42:41.285Z</time></trkpt><trkpt lat="44.4322152" lon="11.2237618"><ele>411.75</ele><time>2026-04-04T16:42:42.285Z</time></trkpt><trkpt lat="44.4320757" lon="11.2236968"><ele>412.5</ele><time>2026-04-04T16:42:43.285Z</time></trkpt><trkpt lat="44.4319391" lon="11.2236328"><ele>413.25</ele><time>2026-04-04T16:42:44.285Z</time></trkpt><trkpt lat="44.4317977" lon="11.2235659"><ele>414.0</ele><time>2026-04-04T16:42:45.285Z</time></trkpt><trkpt lat="44.4316614" lon="11.2234999"><ele>414.0</ele><time>2026-04-04T16:42:46.285Z</time></trkpt><trkpt lat="44.4315292" lon="11.2234319"><ele>414.0</ele><time>2026-04-04T16:42:47.286Z</time></trkpt><trkpt lat="44.4313968" lon="11.2233643"><ele>414.0</ele><time>2026-04-04T16:42:48.285Z</time></trkpt><trkpt lat="44.4312776" lon="11.2232518"><ele>414.0</ele><time>2026-04-04T16:42:49.285Z</time></trkpt><trkpt lat="44.4311729" lon="11.2231412"><ele>411.5</ele><time>2026-04-04T16:42:50.286Z</time></trkpt><trkpt lat="44.4310696" lon="11.2230036"><ele>409.0</ele><time>2026-04-04T16:42:51.285Z</time></trkpt><trkpt lat="44.4309745" lon="11.2228963"><ele>406.5</ele><time>2026-04-04T16:42:52.285Z</time></trkpt><trkpt lat="44.4308669" lon="11.2227896"><ele>404.0</ele><time>2026-04-04T16:42:53.285Z</time></trkpt><trkpt lat="44.4307459" lon="11.222698"><ele>404.0</ele><time>2026-04-04T16:42:54.285Z</time></trkpt><trkpt lat="44.4306334" lon="11.2225953"><ele>404.0</ele><time>2026-04-04T16:42:55.285Z</time></trkpt><trkpt lat="44.4305227" lon="11.222491"><ele>404.0</ele><time>2026-04-04T16:42:56.285Z</time></trkpt><trkpt lat="44.4304128" lon="11.2223908"><ele>404.0</ele><time>2026-04-04T16:42:57.285Z</time></trkpt><trkpt lat="44.4303011" lon="11.2223134"><ele>402.25</ele><time>2026-04-04T16:42:58.285Z</time></trkpt><trkpt lat="44.4301891" lon="11.2222342"><ele>400.5</ele><time>2026-04-04T16:42:59.285Z</time></trkpt><trkpt lat="44.4300757" lon="11.2221796"><ele>398.75</ele><time>2026-04-04T16:43:00.286Z</time></trkpt><trkpt lat="44.4299533" lon="11.2221386"><ele>397.0</ele><time>2026-04-04T16:43:01.285Z</time></trkpt><trkpt lat="44.4298301" lon="11.222107"><ele>397.0</ele><time>2026-04-04T16:43:02.285Z</time></trkpt><trkpt lat="44.4297118" lon="11.2220716"><ele>397.0</ele><time>2026-04-04T16:43:03.285Z</time></trkpt><trkpt lat="44.4295974" lon="11.2220276"><ele>397.0</ele><time>2026-04-04T16:43:04.285Z</time></trkpt><trkpt lat="44.4294887" lon="11.2219722"><ele>397.0</ele><time>2026-04-04T16:43:05.285Z</time></trkpt><trkpt lat="44.4293946" lon="11.2219157"><ele>398.40000000000003</ele><time>2026-04-04T16:43:06.285Z</time></trkpt><trkpt lat="44.4293037" lon="11.2218518"><ele>399.8</ele><time>2026-04-04T16:43:07.285Z</time></trkpt><trkpt lat="44.42922" lon="11.2217876"><ele>401.2</ele><time>2026-04-04T16:43:08.285Z</time></trkpt><trkpt lat="44.4291364" lon="11.2217264"><ele>402.6</ele><time>2026-04-04T16:43:09.286Z</time></trkpt><trkpt lat="44.4290576" lon="11.2216652"><ele>404.0</ele><time>2026-04-04T16:43:10.285Z</time></trkpt><trkpt lat="44.4289954" lon="11.221619"><ele>403.99999999999994</ele><time>2026-04-04T16:43:11.285Z</time></trkpt><trkpt lat="44.4289156" lon="11.2216024"><ele>404.0</ele><time>2026-04-04T16:43:13.285Z</time></trkpt><trkpt lat="44.4288428" lon="11.2216812"><ele>404.0</ele><time>2026-04-04T16:43:15.285Z</time></trkpt><trkpt lat="44.4287903" lon="11.2217612"><ele>404.0</ele><time>2026-04-04T16:43:17.285Z</time></trkpt><trkpt lat="44.4287341" lon="11.221832"><ele>403.99999999999994</ele><time>2026-04-04T16:43:18.285Z</time></trkpt><trkpt lat="44.4286496" lon="11.2218906"><ele>404.0</ele><time>2026-04-04T16:43:19.285Z</time></trkpt><trkpt lat="44.4285345" lon="11.2219167"><ele>401.0</ele><time>2026-04-04T16:43:20.285Z</time></trkpt><trkpt lat="44.428428" lon="11.2219365"><ele>398.0</ele><time>2026-04-04T16:43:21.285Z</time></trkpt><trkpt lat="44.428331" lon="11.2219578"><ele>395.0</ele><time>2026-04-04T16:43:22.285Z</time></trkpt><trkpt lat="44.4282187" lon="11.221978"><ele>392.0</ele><time>2026-04-04T16:43:23.286Z</time></trkpt><trkpt lat="44.4280169" lon="11.2220443"><ele>390.5</ele><time>2026-04-04T16:43:25.285Z</time></trkpt><trkpt lat="44.4279088" lon="11.222103"><ele>389.0</ele><time>2026-04-04T16:43:26.285Z</time></trkpt><trkpt lat="44.427799" lon="11.2221812"><ele>387.5</ele><time>2026-04-04T16:43:27.285Z</time></trkpt><trkpt lat="44.4277115" lon="11.2222899"><ele>386.0</ele><time>2026-04-04T16:43:28.285Z</time></trkpt><trkpt lat="44.4275884" lon="11.2224221"><ele>386.0</ele><time>2026-04-04T16:43:29.285Z</time></trkpt><trkpt lat="44.4274786" lon="11.2225398"><ele>386.0</ele><time>2026-04-04T16:43:30.285Z</time></trkpt><trkpt lat="44.4273795" lon="11.2226005"><ele>386.0</ele><time>2026-04-04T16:43:31.285Z</time></trkpt><trkpt lat="44.4272836" lon="11.2226889"><ele>386.0</ele><time>2026-04-04T16:43:32.285Z</time></trkpt><trkpt lat="44.4272177" lon="11.2228161"><ele>386.0</ele><time>2026-04-04T16:43:33.285Z</time></trkpt><trkpt lat="44.4271775" lon="11.2229222"><ele>386.0</ele><time>2026-04-04T16:43:34.285Z</time></trkpt><trkpt lat="44.4271451" lon="11.2230475"><ele>386.0</ele><time>2026-04-04T16:43:35.285Z</time></trkpt><trkpt lat="44.4271264" lon="11.2231715"><ele>386.0</ele><time>2026-04-04T16:43:36.285Z</time></trkpt><trkpt lat="44.4271394" lon="11.2233057"><ele>386.0</ele><time>2026-04-04T16:43:37.285Z</time></trkpt><trkpt lat="44.4271485" lon="11.2234382"><ele>388.6</ele><time>2026-04-04T16:43:38.285Z</time></trkpt><trkpt lat="44.4271467" lon="11.2235889"><ele>391.20000000000005</ele><time>2026-04-04T16:43:39.285Z</time></trkpt><trkpt lat="44.4271503" lon="11.223747"><ele>393.79999999999995</ele><time>2026-04-04T16:43:40.285Z</time></trkpt><trkpt lat="44.4271593" lon="11.2238938"><ele>396.4</ele><time>2026-04-04T16:43:41.285Z</time></trkpt><trkpt lat="44.4271782" lon="11.2240292"><ele>399.0</ele><time>2026-04-04T16:43:42.285Z</time></trkpt><trkpt lat="44.4272211" lon="11.2241468"><ele>399.6</ele><time>2026-04-04T16:43:43.285Z</time></trkpt><trkpt lat="44.4272842" lon="11.224251"><ele>400.2</ele><time>2026-04-04T16:43:44.285Z</time></trkpt><trkpt lat="44.4273509" lon="11.2243393"><ele>400.8</ele><time>2026-04-04T16:43:45.285Z</time></trkpt><trkpt lat="44.4274068" lon="11.2244255"><ele>401.40000000000003</ele><time>2026-04-04T16:43:46.285Z</time></trkpt><trkpt lat="44.4274405" lon="11.2245934"><ele>402.0</ele><time>2026-04-04T16:43:48.285Z</time></trkpt><trkpt lat="44.4274116" lon="11.2246852"><ele>402.0</ele><time>2026-04-04T16:43:49.285Z</time></trkpt><trkpt lat="44.4273637" lon="11.2247897"><ele>402.0</ele><time>2026-04-04T16:43:50.285Z</time></trkpt><trkpt lat="44.4273081" lon="11.2248928"><ele>402.0</ele><time>2026-04-04T16:43:51.285Z</time></trkpt><trkpt lat="44.4272539" lon="11.2249997"><ele>402.0</ele><time>2026-04-04T16:43:52.285Z</time></trkpt><trkpt lat="44.4272067" lon="11.2251267"><ele>402.0</ele><time>2026-04-04T16:43:53.285Z</time></trkpt><trkpt lat="44.4271739" lon="11.225249"><ele>401.8333333333333</ele><time>2026-04-04T16:43:54.285Z</time></trkpt><trkpt lat="44.4271623" lon="11.2253587"><ele>401.66666666666663</ele><time>2026-04-04T16:43:55.285Z</time></trkpt><trkpt lat="44.4271567" lon="11.2254711"><ele>401.5</ele><time>2026-04-04T16:43:56.285Z</time></trkpt><trkpt lat="44.4271633" lon="11.2255735"><ele>401.3333333333333</ele><time>2026-04-04T16:43:57.285Z</time></trkpt><trkpt lat="44.4272004" lon="11.2256706"><ele>401.16666666666663</ele><time>2026-04-04T16:43:58.285Z</time></trkpt><trkpt lat="44.4272449" lon="11.225762"><ele>401.0</ele><time>2026-04-04T16:43:59.285Z</time></trkpt><trkpt lat="44.4273036" lon="11.2258633"><ele>399.66666666666663</ele><time>2026-04-04T16:44:00.285Z</time></trkpt><trkpt lat="44.4273599" lon="11.2259742"><ele>398.3333333333333</ele><time>2026-04-04T16:44:01.285Z</time></trkpt><trkpt lat="44.4274173" lon="11.2260704"><ele>397.0</ele><time>2026-04-04T16:44:02.286Z</time></trkpt><trkpt lat="44.4274688" lon="11.2261928"><ele>395.66666666666663</ele><time>2026-04-04T16:44:03.285Z</time></trkpt><trkpt lat="44.4274993" lon="11.2262942"><ele>394.3333333333333</ele><time>2026-04-04T16:44:04.285Z</time></trkpt><trkpt lat="44.4275455" lon="11.2263804"><ele>393.0</ele><time>2026-04-04T16:44:05.285Z</time></trkpt><trkpt lat="44.4276058" lon="11.226436"><ele>393.0</ele><time>2026-04-04T16:44:06.285Z</time></trkpt><trkpt lat="44.4276836" lon="11.2264651"><ele>393.0</ele><time>2026-04-04T16:44:07.285Z</time></trkpt><trkpt lat="44.4277697" lon="11.2264859"><ele>393.0</ele><time>2026-04-04T16:44:08.285Z</time></trkpt><trkpt lat="44.4278593" lon="11.2265133"><ele>393.0</ele><time>2026-04-04T16:44:09.285Z</time></trkpt><trkpt lat="44.4279506" lon="11.2265367"><ele>393.0</ele><time>2026-04-04T16:44:10.286Z</time></trkpt><trkpt lat="44.428021" lon="11.2265491"><ele>393.0</ele><time>2026-04-04T16:44:11.285Z</time></trkpt><trkpt lat="44.4280818" lon="11.226611"><ele>394.2</ele><time>2026-04-04T16:44:12.285Z</time></trkpt><trkpt lat="44.4281162" lon="11.2267006"><ele>395.4</ele><time>2026-04-04T16:44:13.285Z</time></trkpt><trkpt lat="44.4281576" lon="11.2267931"><ele>396.59999999999997</ele><time>2026-04-04T16:44:14.285Z</time></trkpt><trkpt lat="44.4281363" lon="11.227013"><ele>397.79999999999995</ele><time>2026-04-04T16:44:16.285Z</time></trkpt><trkpt lat="44.4280922" lon="11.2271472"><ele>399.0</ele><time>2026-04-04T16:44:17.285Z</time></trkpt><trkpt lat="44.4280601" lon="11.2272257"><ele>399.0</ele><time>2026-04-04T16:44:18.285Z</time></trkpt><trkpt lat="44.4280328" lon="11.2273072"><ele>399.0</ele><time>2026-04-04T16:44:19.285Z</time></trkpt><trkpt lat="44.4280094" lon="11.2274804"><ele>399.0</ele><time>2026-04-04T16:44:21.285Z</time></trkpt><trkpt lat="44.4280705" lon="11.2275566"><ele>399.0</ele><time>2026-04-04T16:44:22.285Z</time></trkpt><trkpt lat="44.4281158" lon="11.227643"><ele>399.0</ele><time>2026-04-04T16:44:23.285Z</time></trkpt><trkpt lat="44.4281698" lon="11.227715"><ele>399.0</ele><time>2026-04-04T16:44:24.286Z</time></trkpt><trkpt lat="44.4282354" lon="11.2278068"><ele>395.6666666666667</ele><time>2026-04-04T16:44:25.285Z</time></trkpt><trkpt lat="44.4282753" lon="11.2279126"><ele>392.3333333333333</ele><time>2026-04-04T16:44:26.285Z</time></trkpt><trkpt lat="44.4283256" lon="11.2280221"><ele>389.0</ele><time>2026-04-04T16:44:27.285Z</time></trkpt><trkpt lat="44.4283905" lon="11.2281045"><ele>385.66666666666663</ele><time>2026-04-04T16:44:28.285Z</time></trkpt><trkpt lat="44.4284506" lon="11.2281734"><ele>382.3333333333333</ele><time>2026-04-04T16:44:29.285Z</time></trkpt><trkpt lat="44.4285255" lon="11.2282333"><ele>379.0</ele><time>2026-04-04T16:44:30.285Z</time></trkpt><trkpt lat="44.4286027" lon="11.2281886"><ele>379.0</ele><time>2026-04-04T16:44:31.285Z</time></trkpt><trkpt lat="44.4286977" lon="11.2280889"><ele>379.0</ele><time>2026-04-04T16:44:32.285Z</time></trkpt><trkpt lat="44.428856" lon="11.2279927"><ele>379.0</ele><time>2026-04-04T16:44:33.285Z</time></trkpt><trkpt lat="44.428976" lon="11.2279782"><ele>379.0</ele><time>2026-04-04T16:44:34.285Z</time></trkpt><trkpt lat="44.4290822" lon="11.2279611"><ele>377.79999999999995</ele><time>2026-04-04T16:44:35.285Z</time></trkpt><trkpt lat="44.42919" lon="11.2279408"><ele>376.59999999999997</ele><time>2026-04-04T16:44:36.285Z</time></trkpt><trkpt lat="44.429312" lon="11.2279197"><ele>375.4</ele><time>2026-04-04T16:44:37.285Z</time></trkpt><trkpt lat="44.4294185" lon="11.2278835"><ele>374.2</ele><time>2026-04-04T16:44:38.285Z</time></trkpt><trkpt lat="44.4295144" lon="11.2278597"><ele>373.0</ele><time>2026-04-04T16:44:39.285Z</time></trkpt><trkpt lat="44.4296193" lon="11.22784"><ele>373.5</ele><time>2026-04-04T16:44:40.285Z</time></trkpt><trkpt lat="44.4297354" lon="11.2278258"><ele>374.0</ele><time>2026-04-04T16:44:41.285Z</time></trkpt><trkpt lat="44.4298416" lon="11.2279801"><ele>374.5</ele><time>2026-04-04T16:44:43.285Z</time></trkpt><trkpt lat="44.4299077" lon="11.228078"><ele>375.0</ele><time>2026-04-04T16:44:44.285Z</time></trkpt><trkpt lat="44.4299738" lon="11.2281822"><ele>373.3333333333333</ele><time>2026-04-04T16:44:45.285Z</time></trkpt><trkpt lat="44.4300474" lon="11.2282889"><ele>371.6666666666667</ele><time>2026-04-04T16:44:46.285Z</time></trkpt><trkpt lat="44.4301271" lon="11.2283665"><ele>370.0</ele><time>2026-04-04T16:44:47.285Z</time></trkpt><trkpt lat="44.4302029" lon="11.2284396"><ele>368.33333333333337</ele><time>2026-04-04T16:44:48.285Z</time></trkpt><trkpt lat="44.4302648" lon="11.2284815"><ele>366.6666666666667</ele><time>2026-04-04T16:44:49.285Z</time></trkpt><trkpt lat="44.430328" lon="11.2284938"><ele>365.0</ele><time>2026-04-04T16:44:50.286Z</time></trkpt><trkpt lat="44.430396" lon="11.228482"><ele>365.0</ele><time>2026-04-04T16:44:51.285Z</time></trkpt><trkpt lat="44.430468" lon="11.2284775"><ele>365.0</ele><time>2026-04-04T16:44:52.285Z</time></trkpt><trkpt lat="44.4305856" lon="11.2284383"><ele>365.0</ele><time>2026-04-04T16:44:53.286Z</time></trkpt><trkpt lat="44.4306893" lon="11.2284037"><ele>365.0</ele><time>2026-04-04T16:44:54.285Z</time></trkpt><trkpt lat="44.4307979" lon="11.2283858"><ele>365.0</ele><time>2026-04-04T16:44:55.286Z</time></trkpt><trkpt lat="44.4309142" lon="11.2283857"><ele>366.2</ele><time>2026-04-04T16:44:56.285Z</time></trkpt><trkpt lat="44.4310194" lon="11.2284152"><ele>367.4</ele><time>2026-04-04T16:44:57.285Z</time></trkpt><trkpt lat="44.4311313" lon="11.2284575"><ele>368.6</ele><time>2026-04-04T16:44:58.285Z</time></trkpt><trkpt lat="44.4312206" lon="11.2285124"><ele>369.8</ele><time>2026-04-04T16:44:59.285Z</time></trkpt><trkpt lat="44.4313002" lon="11.2285736"><ele>371.0</ele><time>2026-04-04T16:45:00.285Z</time></trkpt><trkpt lat="44.4313607" lon="11.2286575"><ele>371.0</ele><time>2026-04-04T16:45:01.285Z</time></trkpt><trkpt lat="44.4314775" lon="11.2287706"><ele>371.0</ele><time>2026-04-04T16:45:03.285Z</time></trkpt><trkpt lat="44.4315433" lon="11.2288477"><ele>371.0</ele><time>2026-04-04T16:45:04.285Z</time></trkpt><trkpt lat="44.431637" lon="11.2289363"><ele>371.0</ele><time>2026-04-04T16:45:05.285Z</time></trkpt><trkpt lat="44.4317523" lon="11.2290855"><ele>370.0</ele><time>2026-04-04T16:45:06.285Z</time></trkpt><trkpt lat="44.4318606" lon="11.2292013"><ele>369.0</ele><time>2026-04-04T16:45:07.285Z</time></trkpt><trkpt lat="44.4319591" lon="11.2293023"><ele>368.0</ele><time>2026-04-04T16:45:08.285Z</time></trkpt><trkpt lat="44.4320524" lon="11.2293967"><ele>367.0</ele><time>2026-04-04T16:45:09.285Z</time></trkpt><trkpt lat="44.4321445" lon="11.2294908"><ele>367.40000000000003</ele><time>2026-04-04T16:45:10.285Z</time></trkpt><trkpt lat="44.4322248" lon="11.2295905"><ele>367.8</ele><time>2026-04-04T16:45:11.285Z</time></trkpt><trkpt lat="44.4323085" lon="11.2296995"><ele>368.2</ele><time>2026-04-04T16:45:12.285Z</time></trkpt><trkpt lat="44.4323915" lon="11.2297974"><ele>368.6</ele><time>2026-04-04T16:45:13.285Z</time></trkpt><trkpt lat="44.4324697" lon="11.2298877"><ele>369.0</ele><time>2026-04-04T16:45:14.285Z</time></trkpt><trkpt lat="44.4325315" lon="11.2299788"><ele>369.0</ele><time>2026-04-04T16:45:15.285Z</time></trkpt><trkpt lat="44.4325789" lon="11.2300786"><ele>369.0</ele><time>2026-04-04T16:45:16.285Z</time></trkpt><trkpt lat="44.4326084" lon="11.2301975"><ele>369.0</ele><time>2026-04-04T16:45:17.285Z</time></trkpt><trkpt lat="44.4326343" lon="11.2303323"><ele>369.0</ele><time>2026-04-04T16:45:18.285Z</time></trkpt><trkpt lat="44.4326605" lon="11.2304799"><ele>369.0</ele><time>2026-04-04T16:45:19.285Z</time></trkpt><trkpt lat="44.4326851" lon="11.2306276"><ele>367.2</ele><time>2026-04-04T16:45:20.285Z</time></trkpt><trkpt lat="44.4327091" lon="11.2307876"><ele>365.4</ele><time>2026-04-04T16:45:21.285Z</time></trkpt><trkpt lat="44.4327312" lon="11.2309286"><ele>363.6</ele><time>2026-04-04T16:45:22.285Z</time></trkpt><trkpt lat="44.4327506" lon="11.231061"><ele>361.8</ele><time>2026-04-04T16:45:23.285Z</time></trkpt><trkpt lat="44.4327703" lon="11.2311798"><ele>360.0</ele><time>2026-04-04T16:45:24.285Z</time></trkpt><trkpt lat="44.4327852" lon="11.2312938"><ele>360.0</ele><time>2026-04-04T16:45:25.285Z</time></trkpt><trkpt lat="44.4328023" lon="11.2313814"><ele>360.0</ele><time>2026-04-04T16:45:26.285Z</time></trkpt><trkpt lat="44.4328235" lon="11.231468"><ele>360.0</ele><time>2026-04-04T16:45:27.285Z</time></trkpt><trkpt lat="44.4328924" lon="11.2316102"><ele>360.0</ele><time>2026-04-04T16:45:29.285Z</time></trkpt><trkpt lat="44.4330025" lon="11.2317052"><ele>360.0</ele><time>2026-04-04T16:45:31.286Z</time></trkpt><trkpt lat="44.4331183" lon="11.2316813"><ele>359.8</ele><time>2026-04-04T16:45:33.285Z</time></trkpt><trkpt lat="44.4332098" lon="11.2315962"><ele>359.6</ele><time>2026-04-04T16:45:35.285Z</time></trkpt><trkpt lat="44.4332949" lon="11.2315177"><ele>359.4</ele><time>2026-04-04T16:45:37.285Z</time></trkpt><trkpt lat="44.4333915" lon="11.2314248"><ele>359.2</ele><time>2026-04-04T16:45:39.285Z</time></trkpt><trkpt lat="44.4334573" lon="11.2313654"><ele>359.0</ele><time>2026-04-04T16:45:40.285Z</time></trkpt><trkpt lat="44.4335344" lon="11.2313235"><ele>359.0</ele><time>2026-04-04T16:45:41.285Z</time></trkpt><trkpt lat="44.4336192" lon="11.2312871"><ele>359.0</ele><time>2026-04-04T16:45:42.285Z</time></trkpt><trkpt lat="44.433684" lon="11.2312683"><ele>359.0</ele><time>2026-04-04T16:45:43.285Z</time></trkpt><trkpt lat="44.4337809" lon="11.2313058"><ele>359.0</ele><time>2026-04-04T16:45:45.285Z</time></trkpt><trkpt lat="44.4338117" lon="11.2314028"><ele>359.0</ele><time>2026-04-04T16:45:46.285Z</time></trkpt><trkpt lat="44.433798" lon="11.2315466"><ele>359.0</ele><time>2026-04-04T16:45:48.285Z</time></trkpt><trkpt lat="44.4337751" lon="11.2316355"><ele>359.0</ele><time>2026-04-04T16:45:50.285Z</time></trkpt><trkpt lat="44.433723" lon="11.2317179"><ele>359.0</ele><time>2026-04-04T16:45:53.285Z</time></trkpt><trkpt lat="44.4336789" lon="11.2317908"><ele>359.0</ele><time>2026-04-04T16:45:56.285Z</time></trkpt><trkpt lat="44.4336363" lon="11.2318769"><ele>359.0</ele><time>2026-04-04T16:50:35.286Z</time></trkpt><trkpt lat="44.4336939" lon="11.2318333"><ele>359.0</ele><time>2026-04-04T16:50:51.285Z</time></trkpt><trkpt lat="44.4337263" lon="11.2317554"><ele>359.0</ele><time>2026-04-04T16:50:56.285Z</time></trkpt><trkpt lat="44.4337852" lon="11.231634"><ele>357.6</ele><time>2026-04-04T16:50:58.285Z</time></trkpt><trkpt lat="44.4338252" lon="11.2314696"><ele>356.2</ele><time>2026-04-04T16:51:00.285Z</time></trkpt><trkpt lat="44.433774" lon="11.2313127"><ele>354.8</ele><time>2026-04-04T16:51:02.285Z</time></trkpt><trkpt lat="44.4336631" lon="11.2312695"><ele>353.40000000000003</ele><time>2026-04-04T16:51:04.285Z</time></trkpt><trkpt lat="44.4335958" lon="11.2312778"><ele>352.0</ele><time>2026-04-04T16:51:05.286Z</time></trkpt><trkpt lat="44.433504" lon="11.2313368"><ele>353.40000000000003</ele><time>2026-04-04T16:51:06.285Z</time></trkpt><trkpt lat="44.4334019" lon="11.231417"><ele>354.8</ele><time>2026-04-04T16:51:07.285Z</time></trkpt><trkpt lat="44.4333151" lon="11.231496"><ele>356.2</ele><time>2026-04-04T16:51:08.285Z</time></trkpt><trkpt lat="44.4332265" lon="11.2315836"><ele>357.6</ele><time>2026-04-04T16:51:09.285Z</time></trkpt><trkpt lat="44.4331443" lon="11.2316543"><ele>359.0</ele><time>2026-04-04T16:51:10.285Z</time></trkpt><trkpt lat="44.4330786" lon="11.2316562"><ele>359.0</ele><time>2026-04-04T16:51:11.285Z</time></trkpt><trkpt lat="44.4330008" lon="11.2316588"><ele>359.0</ele><time>2026-04-04T16:51:12.285Z</time></trkpt><trkpt lat="44.432935" lon="11.2316463"><ele>359.0</ele><time>2026-04-04T16:51:13.285Z</time></trkpt><trkpt lat="44.4328471" lon="11.2315219"><ele>359.0</ele><time>2026-04-04T16:51:15.285Z</time></trkpt><trkpt lat="44.4328227" lon="11.2314259"><ele>359.0</ele><time>2026-04-04T16:51:16.286Z</time></trkpt><trkpt lat="44.4328031" lon="11.2313035"><ele>359.0</ele><time>2026-04-04T16:51:17.285Z</time></trkpt><trkpt lat="44.4327737" lon="11.2311469"><ele>359.25</ele><time>2026-04-04T16:51:18.285Z</time></trkpt><trkpt lat="44.43274" lon="11.2309716"><ele>359.5</ele><time>2026-04-04T16:51:19.285Z</time></trkpt><trkpt lat="44.4327166" lon="11.2308213"><ele>359.75</ele><time>2026-04-04T16:51:20.285Z</time></trkpt><trkpt lat="44.4326938" lon="11.2306694"><ele>360.0</ele><time>2026-04-04T16:51:21.285Z</time></trkpt><trkpt lat="44.4326674" lon="11.2305213"><ele>361.8</ele><time>2026-04-04T16:51:22.285Z</time></trkpt><trkpt lat="44.4326462" lon="11.2303669"><ele>363.6</ele><time>2026-04-04T16:51:23.285Z</time></trkpt><trkpt lat="44.4326192" lon="11.2302233"><ele>365.4</ele><time>2026-04-04T16:51:24.285Z</time></trkpt><trkpt lat="44.4325825" lon="11.2300823"><ele>367.2</ele><time>2026-04-04T16:51:25.285Z</time></trkpt><trkpt lat="44.4325408" lon="11.229985"><ele>369.0</ele><time>2026-04-04T16:51:26.285Z</time></trkpt><trkpt lat="44.4324925" lon="11.2299029"><ele>369.0</ele><time>2026-04-04T16:51:27.285Z</time></trkpt><trkpt lat="44.4324215" lon="11.2298288"><ele>369.0</ele><time>2026-04-04T16:51:28.285Z</time></trkpt><trkpt lat="44.4323519" lon="11.2297523"><ele>369.0</ele><time>2026-04-04T16:51:29.285Z</time></trkpt><trkpt lat="44.4322718" lon="11.2296577"><ele>369.0</ele><time>2026-04-04T16:51:30.285Z</time></trkpt><trkpt lat="44.4321866" lon="11.2295601"><ele>369.0</ele><time>2026-04-04T16:51:31.285Z</time></trkpt><trkpt lat="44.4321108" lon="11.2294658"><ele>368.6</ele><time>2026-04-04T16:51:32.285Z</time></trkpt><trkpt lat="44.4320398" lon="11.2293881"><ele>368.2</ele><time>2026-04-04T16:51:33.285Z</time></trkpt><trkpt lat="44.4319641" lon="11.2293064"><ele>367.8</ele><time>2026-04-04T16:51:34.285Z</time></trkpt><trkpt lat="44.4318832" lon="11.2292206"><ele>367.40000000000003</ele><time>2026-04-04T16:51:35.285Z</time></trkpt><trkpt lat="44.431801" lon="11.2291363"><ele>367.0</ele><time>2026-04-04T16:51:36.286Z</time></trkpt><trkpt lat="44.4317135" lon="11.2290347"><ele>367.8</ele><time>2026-04-04T16:51:37.285Z</time></trkpt><trkpt lat="44.4316233" lon="11.2289415"><ele>368.6</ele><time>2026-04-04T16:51:38.285Z</time></trkpt><trkpt lat="44.4315403" lon="11.2288547"><ele>369.40000000000003</ele><time>2026-04-04T16:51:39.286Z</time></trkpt><trkpt lat="44.4314575" lon="11.2287674"><ele>370.20000000000005</ele><time>2026-04-04T16:51:40.285Z</time></trkpt><trkpt lat="44.4313765" lon="11.2286966"><ele>371.0</ele><time>2026-04-04T16:51:41.285Z</time></trkpt><trkpt lat="44.4313026" lon="11.2286449"><ele>371.0</ele><time>2026-04-04T16:51:42.285Z</time></trkpt><trkpt lat="44.4312281" lon="11.2285985"><ele>371.0</ele><time>2026-04-04T16:51:43.285Z</time></trkpt><trkpt lat="44.4311483" lon="11.2285427"><ele>371.0</ele><time>2026-04-04T16:51:44.285Z</time></trkpt><trkpt lat="44.4310708" lon="11.2284986"><ele>371.0</ele><time>2026-04-04T16:51:45.285Z</time></trkpt><trkpt lat="44.4309732" lon="11.2284338"><ele>371.0</ele><time>2026-04-04T16:51:47.285Z</time></trkpt><trkpt lat="44.4308733" lon="11.2284094"><ele>371.0</ele><time>2026-04-04T16:51:49.285Z</time></trkpt><trkpt lat="44.4307921" lon="11.2284116"><ele>371.0</ele><time>2026-04-04T16:51:50.285Z</time></trkpt><trkpt lat="44.4306858" lon="11.2284495"><ele>371.0</ele><time>2026-04-04T16:51:51.285Z</time></trkpt><trkpt lat="44.4305555" lon="11.2284723"><ele>371.0</ele><time>2026-04-04T16:51:52.285Z</time></trkpt><trkpt lat="44.4304495" lon="11.2285"><ele>371.0</ele><time>2026-04-04T16:51:53.285Z</time></trkpt><trkpt lat="44.4303585" lon="11.2285145"><ele>369.8</ele><time>2026-04-04T16:51:54.285Z</time></trkpt><trkpt lat="44.430272" lon="11.2284974"><ele>368.6</ele><time>2026-04-04T16:51:55.285Z</time></trkpt><trkpt lat="44.4301964" lon="11.2284568"><ele>367.4</ele><time>2026-04-04T16:51:56.285Z</time></trkpt><trkpt lat="44.4301191" lon="11.2283707"><ele>366.2</ele><time>2026-04-04T16:51:57.286Z</time></trkpt><trkpt lat="44.4300252" lon="11.2282709"><ele>365.0</ele><time>2026-04-04T16:51:58.285Z</time></trkpt><trkpt lat="44.4299454" lon="11.2281517"><ele>366.6</ele><time>2026-04-04T16:51:59.285Z</time></trkpt><trkpt lat="44.4298718" lon="11.2280388"><ele>368.2</ele><time>2026-04-04T16:52:00.285Z</time></trkpt><trkpt lat="44.4297917" lon="11.2279396"><ele>369.79999999999995</ele><time>2026-04-04T16:52:01.285Z</time></trkpt><trkpt lat="44.4297139" lon="11.2278548"><ele>371.4</ele><time>2026-04-04T16:52:02.285Z</time></trkpt><trkpt lat="44.4296306" lon="11.2278178"><ele>373.0</ele><time>2026-04-04T16:52:03.285Z</time></trkpt><trkpt lat="44.4295511" lon="11.2278089"><ele>373.0</ele><time>2026-04-04T16:52:04.285Z</time></trkpt><trkpt lat="44.4294362" lon="11.2278211"><ele>373.0</ele><time>2026-04-04T16:52:05.285Z</time></trkpt><trkpt lat="44.4293074" lon="11.2278419"><ele>373.0</ele><time>2026-04-04T16:52:06.285Z</time></trkpt><trkpt lat="44.4291792" lon="11.2278642"><ele>373.0</ele><time>2026-04-04T16:52:07.285Z</time></trkpt><trkpt lat="44.4290456" lon="11.2278962"><ele>373.0</ele><time>2026-04-04T16:52:08.285Z</time></trkpt><trkpt lat="44.4289049" lon="11.2279175"><ele>373.0</ele><time>2026-04-04T16:52:09.285Z</time></trkpt><trkpt lat="44.4287981" lon="11.227968"><ele>373.0</ele><time>2026-04-04T16:52:10.285Z</time></trkpt><trkpt lat="44.4286861" lon="11.2280193"><ele>373.0</ele><time>2026-04-04T16:52:11.285Z</time></trkpt><trkpt lat="44.4285963" lon="11.2280469"><ele>374.2</ele><time>2026-04-04T16:52:12.285Z</time></trkpt><trkpt lat="44.4285307" lon="11.2280443"><ele>375.4</ele><time>2026-04-04T16:52:13.285Z</time></trkpt><trkpt lat="44.4284451" lon="11.2280263"><ele>376.59999999999997</ele><time>2026-04-04T16:52:14.285Z</time></trkpt><trkpt lat="44.4283741" lon="11.2280109"><ele>377.79999999999995</ele><time>2026-04-04T16:52:15.285Z</time></trkpt><trkpt lat="44.4282463" lon="11.2278454"><ele>379.0</ele><time>2026-04-04T16:52:17.285Z</time></trkpt><trkpt lat="44.4281811" lon="11.2277734"><ele>379.0</ele><time>2026-04-04T16:52:18.285Z</time></trkpt><trkpt lat="44.428061" lon="11.2275762"><ele>379.0</ele><time>2026-04-04T16:52:20.285Z</time></trkpt><trkpt lat="44.4280046" lon="11.2275287"><ele>379.0</ele><time>2026-04-04T16:52:21.285Z</time></trkpt><trkpt lat="44.4279724" lon="11.2274492"><ele>379.0</ele><time>2026-04-04T16:52:22.285Z</time></trkpt><trkpt lat="44.4279775" lon="11.2273404"><ele>379.0</ele><time>2026-04-04T16:52:23.285Z</time></trkpt><trkpt lat="44.427993" lon="11.227247"><ele>378.0</ele><time>2026-04-04T16:52:24.286Z</time></trkpt><trkpt lat="44.4280108" lon="11.2271358"><ele>377.0</ele><time>2026-04-04T16:52:25.285Z</time></trkpt><trkpt lat="44.4280462" lon="11.2270171"><ele>376.0</ele><time>2026-04-04T16:52:26.285Z</time></trkpt><trkpt lat="44.4280529" lon="11.2268994"><ele>375.0</ele><time>2026-04-04T16:52:27.285Z</time></trkpt><trkpt lat="44.4280602" lon="11.2267475"><ele>374.0</ele><time>2026-04-04T16:52:28.285Z</time></trkpt><trkpt lat="44.4280578" lon="11.2266505"><ele>373.0</ele><time>2026-04-04T16:52:29.285Z</time></trkpt><trkpt lat="44.4279335" lon="11.2265408"><ele>373.0</ele><time>2026-04-04T16:52:31.286Z</time></trkpt><trkpt lat="44.4278172" lon="11.2264961"><ele>373.0</ele><time>2026-04-04T16:52:32.285Z</time></trkpt><trkpt lat="44.4277073" lon="11.2264869"><ele>373.0</ele><time>2026-04-04T16:52:33.285Z</time></trkpt><trkpt lat="44.4276222" lon="11.2264529"><ele>373.0</ele><time>2026-04-04T16:52:34.285Z</time></trkpt><trkpt lat="44.4275209" lon="11.2263583"><ele>373.0</ele><time>2026-04-04T16:52:36.286Z</time></trkpt><trkpt lat="44.4274395" lon="11.2262545"><ele>378.0</ele><time>2026-04-04T16:52:37.285Z</time></trkpt><trkpt lat="44.4274006" lon="11.2260958"><ele>383.0</ele><time>2026-04-04T16:52:38.285Z</time></trkpt><trkpt lat="44.4273232" lon="11.225915"><ele>388.0</ele><time>2026-04-04T16:52:39.285Z</time></trkpt><trkpt lat="44.4272649" lon="11.2257985"><ele>393.0</ele><time>2026-04-04T16:52:40.285Z</time></trkpt><trkpt lat="44.4272081" lon="11.2256803"><ele>394.3333333333333</ele><time>2026-04-04T16:52:41.285Z</time></trkpt><trkpt lat="44.4271733" lon="11.2255813"><ele>395.66666666666663</ele><time>2026-04-04T16:52:42.286Z</time></trkpt><trkpt lat="44.4271643" lon="11.2254826"><ele>397.0</ele><time>2026-04-04T16:52:43.285Z</time></trkpt><trkpt lat="44.427166" lon="11.2253616"><ele>398.3333333333333</ele><time>2026-04-04T16:52:44.286Z</time></trkpt><trkpt lat="44.4271875" lon="11.22524"><ele>399.66666666666663</ele><time>2026-04-04T16:52:45.285Z</time></trkpt><trkpt lat="44.4272355" lon="11.2251118"><ele>401.0</ele><time>2026-04-04T16:52:46.286Z</time></trkpt><trkpt lat="44.4272811" lon="11.2249731"><ele>401.0</ele><time>2026-04-04T16:52:47.285Z</time></trkpt><trkpt lat="44.4273566" lon="11.2248524"><ele>401.0</ele><time>2026-04-04T16:52:48.285Z</time></trkpt><trkpt lat="44.4273954" lon="11.2247625"><ele>401.0</ele><time>2026-04-04T16:52:49.285Z</time></trkpt><trkpt lat="44.4274206" lon="11.2246419"><ele>401.0</ele><time>2026-04-04T16:52:50.285Z</time></trkpt><trkpt lat="44.4273656" lon="11.2244859"><ele>401.0</ele><time>2026-04-04T16:52:52.285Z</time></trkpt><trkpt lat="44.4273287" lon="11.2244057"><ele>401.20000000000005</ele><time>2026-04-04T16:52:53.285Z</time></trkpt><trkpt lat="44.4272503" lon="11.2242952"><ele>401.40000000000003</ele><time>2026-04-04T16:52:54.285Z</time></trkpt><trkpt lat="44.4271845" lon="11.2241989"><ele>401.6</ele><time>2026-04-04T16:52:55.285Z</time></trkpt><trkpt lat="44.427103" lon="11.224066"><ele>401.8</ele><time>2026-04-04T16:52:56.286Z</time></trkpt><trkpt lat="44.4270486" lon="11.2239592"><ele>402.0</ele><time>2026-04-04T16:52:57.285Z</time></trkpt><trkpt lat="44.4271116" lon="11.223695"><ele>394.75</ele><time>2026-04-04T16:52:58.285Z</time></trkpt><trkpt lat="44.4271084" lon="11.2235276"><ele>387.5</ele><time>2026-04-04T16:52:59.285Z</time></trkpt><trkpt lat="44.4270951" lon="11.2233258"><ele>380.25</ele><time>2026-04-04T16:53:00.285Z</time></trkpt><trkpt lat="44.4270853" lon="11.2231533"><ele>373.0</ele><time>2026-04-04T16:53:01.285Z</time></trkpt><trkpt lat="44.4271028" lon="11.2229882"><ele>376.25</ele><time>2026-04-04T16:53:02.285Z</time></trkpt><trkpt lat="44.4271759" lon="11.2228708"><ele>379.5</ele><time>2026-04-04T16:53:03.285Z</time></trkpt><trkpt lat="44.4272459" lon="11.2227671"><ele>382.75</ele><time>2026-04-04T16:53:04.285Z</time></trkpt><trkpt lat="44.4273021" lon="11.2226411"><ele>386.0</ele><time>2026-04-04T16:53:05.285Z</time></trkpt><trkpt lat="44.4274723" lon="11.2225477"><ele>386.0</ele><time>2026-04-04T16:53:06.285Z</time></trkpt><trkpt lat="44.4276182" lon="11.2224453"><ele>386.0</ele><time>2026-04-04T16:53:07.285Z</time></trkpt><trkpt lat="44.4277284" lon="11.2222957"><ele>386.0</ele><time>2026-04-04T16:53:08.285Z</time></trkpt><trkpt lat="44.4278464" lon="11.2221886"><ele>386.0</ele><time>2026-04-04T16:53:09.285Z</time></trkpt><trkpt lat="44.4279743" lon="11.2221013"><ele>386.0</ele><time>2026-04-04T16:53:10.285Z</time></trkpt><trkpt lat="44.4281339" lon="11.2220746"><ele>386.0</ele><time>2026-04-04T16:53:11.285Z</time></trkpt><trkpt lat="44.4282667" lon="11.2220244"><ele>386.0</ele><time>2026-04-04T16:53:12.286Z</time></trkpt><trkpt lat="44.428414" lon="11.2220047"><ele>387.5</ele><time>2026-04-04T16:53:13.285Z</time></trkpt><trkpt lat="44.4285503" lon="11.2219921"><ele>389.0</ele><time>2026-04-04T16:53:14.285Z</time></trkpt><trkpt lat="44.4286802" lon="11.2219662"><ele>390.5</ele><time>2026-04-04T16:53:15.285Z</time></trkpt><trkpt lat="44.428761" lon="11.2218989"><ele>392.0</ele><time>2026-04-04T16:53:16.285Z</time></trkpt><trkpt lat="44.4288026" lon="11.2217891"><ele>394.40000000000003</ele><time>2026-04-04T16:53:17.285Z</time></trkpt><trkpt lat="44.4288676" lon="11.2216752"><ele>396.8</ele><time>2026-04-04T16:53:19.285Z</time></trkpt><trkpt lat="44.4289276" lon="11.221628"><ele>399.2</ele><time>2026-04-04T16:53:22.285Z</time></trkpt><trkpt lat="44.4290108" lon="11.2216632"><ele>401.6</ele><time>2026-04-04T16:53:30.286Z</time></trkpt><trkpt lat="44.4291374" lon="11.2217459"><ele>404.0</ele><time>2026-04-04T16:53:32.285Z</time></trkpt><trkpt lat="44.4292301" lon="11.2218153"><ele>404.0</ele><time>2026-04-04T16:53:33.285Z</time></trkpt><trkpt lat="44.4293377" lon="11.2218907"><ele>404.0</ele><time>2026-04-04T16:53:34.285Z</time></trkpt><trkpt lat="44.4294351" lon="11.2219517"><ele>404.0</ele><time>2026-04-04T16:53:35.286Z</time></trkpt><trkpt lat="44.4295341" lon="11.2219994"><ele>404.0</ele><time>2026-04-04T16:53:36.286Z</time></trkpt><trkpt lat="44.429638" lon="11.222048"><ele>404.0</ele><time>2026-04-04T16:53:37.286Z</time></trkpt><trkpt lat="44.4297432" lon="11.222081"><ele>402.6</ele><time>2026-04-04T16:53:38.285Z</time></trkpt><trkpt lat="44.4298407" lon="11.2221054"><ele>401.2</ele><time>2026-04-04T16:53:39.285Z</time></trkpt><trkpt lat="44.4299407" lon="11.222126"><ele>399.8</ele><time>2026-04-04T16:53:40.285Z</time></trkpt><trkpt lat="44.4300361" lon="11.2221529"><ele>398.40000000000003</ele><time>2026-04-04T16:53:41.286Z</time></trkpt><trkpt lat="44.4301207" lon="11.2222079"><ele>397.0</ele><time>2026-04-04T16:53:42.286Z</time></trkpt><trkpt lat="44.4302083" lon="11.2222613"><ele>398.75</ele><time>2026-04-04T16:53:43.285Z</time></trkpt><trkpt lat="44.4303055" lon="11.2223363"><ele>400.5</ele><time>2026-04-04T16:53:44.285Z</time></trkpt><trkpt lat="44.430398" lon="11.2224195"><ele>402.25</ele><time>2026-04-04T16:53:45.285Z</time></trkpt><trkpt lat="44.4304928" lon="11.2225028"><ele>404.0</ele><time>2026-04-04T16:53:46.285Z</time></trkpt><trkpt lat="44.4305998" lon="11.2225943"><ele>404.0</ele><time>2026-04-04T16:53:47.285Z</time></trkpt><trkpt lat="44.4307032" lon="11.2226858"><ele>404.0</ele><time>2026-04-04T16:53:48.285Z</time></trkpt><trkpt lat="44.4308079" lon="11.2227706"><ele>404.0</ele><time>2026-04-04T16:53:49.285Z</time></trkpt><trkpt lat="44.4309036" lon="11.222857"><ele>404.0</ele><time>2026-04-04T16:53:50.285Z</time></trkpt><trkpt lat="44.431002" lon="11.2229522"><ele>404.0</ele><time>2026-04-04T16:53:51.285Z</time></trkpt><trkpt lat="44.4310969" lon="11.2230713"><ele>404.0</ele><time>2026-04-04T16:53:52.285Z</time></trkpt><trkpt lat="44.4311949" lon="11.2231927"><ele>404.0</ele><time>2026-04-04T16:53:53.285Z</time></trkpt><trkpt lat="44.4313081" lon="11.2233017"><ele>404.0</ele><time>2026-04-04T16:53:54.285Z</time></trkpt><trkpt lat="44.4314441" lon="11.2234007"><ele>406.5</ele><time>2026-04-04T16:53:55.285Z</time></trkpt><trkpt lat="44.4315687" lon="11.2234896"><ele>409.0</ele><time>2026-04-04T16:53:56.286Z</time></trkpt><trkpt lat="44.4317217" lon="11.2235409"><ele>411.5</ele><time>2026-04-04T16:53:57.285Z</time></trkpt><trkpt lat="44.4318582" lon="11.2236068"><ele>414.0</ele><time>2026-04-04T16:53:58.285Z</time></trkpt><trkpt lat="44.4320034" lon="11.2236787"><ele>413.25</ele><time>2026-04-04T16:53:59.285Z</time></trkpt><trkpt lat="44.4321406" lon="11.2237419"><ele>412.5</ele><time>2026-04-04T16:54:00.285Z</time></trkpt><trkpt lat="44.4322737" lon="11.2237967"><ele>411.75</ele><time>2026-04-04T16:54:01.285Z</time></trkpt><trkpt lat="44.4324046" lon="11.223846"><ele>411.0</ele><time>2026-04-04T16:54:02.285Z</time></trkpt><trkpt lat="44.4325349" lon="11.2238807"><ele>411.0</ele><time>2026-04-04T16:54:03.285Z</time></trkpt><trkpt lat="44.4326646" lon="11.2239133"><ele>411.0</ele><time>2026-04-04T16:54:04.285Z</time></trkpt><trkpt lat="44.4328031" lon="11.2239208"><ele>411.0</ele><time>2026-04-04T16:54:05.285Z</time></trkpt><trkpt lat="44.4329345" lon="11.2239402"><ele>411.0</ele><time>2026-04-04T16:54:06.285Z</time></trkpt><trkpt lat="44.4330734" lon="11.223961"><ele>410.25</ele><time>2026-04-04T16:54:07.285Z</time></trkpt><trkpt lat="44.4332103" lon="11.2239909"><ele>409.5</ele><time>2026-04-04T16:54:08.285Z</time></trkpt><trkpt lat="44.4333464" lon="11.224045"><ele>408.75</ele><time>2026-04-04T16:54:09.285Z</time></trkpt><trkpt lat="44.4335014" lon="11.2241283"><ele>408.0</ele><time>2026-04-04T16:54:10.285Z</time></trkpt><trkpt lat="44.4336508" lon="11.2242411"><ele>408.0</ele><time>2026-04-04T16:54:11.285Z</time></trkpt><trkpt lat="44.4337935" lon="11.2243575"><ele>408.0</ele><time>2026-04-04T16:54:12.285Z</time></trkpt><trkpt lat="44.4339281" lon="11.2244758"><ele>408.0</ele><time>2026-04-04T16:54:13.285Z</time></trkpt><trkpt lat="44.4340574" lon="11.224591"><ele>405.75</ele><time>2026-04-04T16:54:14.285Z</time></trkpt><trkpt lat="44.4341809" lon="11.2246987"><ele>403.5</ele><time>2026-04-04T16:54:15.285Z</time></trkpt><trkpt lat="44.4343004" lon="11.2248047"><ele>401.25</ele><time>2026-04-04T16:54:16.285Z</time></trkpt><trkpt lat="44.4344032" lon="11.2249134"><ele>399.0</ele><time>2026-04-04T16:54:17.285Z</time></trkpt><trkpt lat="44.4344962" lon="11.2250262"><ele>399.0</ele><time>2026-04-04T16:54:18.285Z</time></trkpt><trkpt lat="44.4345795" lon="11.2251454"><ele>399.0</ele><time>2026-04-04T16:54:19.285Z</time></trkpt><trkpt lat="44.4346596" lon="11.2252597"><ele>399.0</ele><time>2026-04-04T16:54:20.285Z</time></trkpt><trkpt lat="44.4347431" lon="11.2253652"><ele>399.0</ele><time>2026-04-04T16:54:21.285Z</time></trkpt><trkpt lat="44.4348339" lon="11.2254379"><ele>397.0</ele><time>2026-04-04T16:54:22.285Z</time></trkpt><trkpt lat="44.4349308" lon="11.2254783"><ele>395.0</ele><time>2026-04-04T16:54:23.285Z</time></trkpt><trkpt lat="44.435031" lon="11.2254748"><ele>393.0</ele><time>2026-04-04T16:54:24.285Z</time></trkpt><trkpt lat="44.4351445" lon="11.2253227"><ele>391.0</ele><time>2026-04-04T16:54:25.285Z</time></trkpt><trkpt lat="44.435232" lon="11.225182"><ele>391.0</ele><time>2026-04-04T16:54:26.285Z</time></trkpt><trkpt lat="44.4353266" lon="11.2250221"><ele>391.0</ele><time>2026-04-04T16:54:27.285Z</time></trkpt><trkpt lat="44.4354257" lon="11.2248575"><ele>391.0</ele><time>2026-04-04T16:54:28.285Z</time></trkpt><trkpt lat="44.4355232" lon="11.2246934"><ele>388.0</ele><time>2026-04-04T16:54:29.285Z</time></trkpt><trkpt lat="44.4356246" lon="11.2245419"><ele>385.0</ele><time>2026-04-04T16:54:30.285Z</time></trkpt><trkpt lat="44.4357334" lon="11.2244076"><ele>382.0</ele><time>2026-04-04T16:54:31.285Z</time></trkpt><trkpt lat="44.4358439" lon="11.2242823"><ele>379.0</ele><time>2026-04-04T16:54:32.285Z</time></trkpt><trkpt lat="44.4359498" lon="11.2241661"><ele>379.0</ele><time>2026-04-04T16:54:33.286Z</time></trkpt><trkpt lat="44.4360502" lon="11.2240652"><ele>379.0</ele><time>2026-04-04T16:54:34.285Z</time></trkpt><trkpt lat="44.4361294" lon="11.2239343"><ele>379.0</ele><time>2026-04-04T16:54:35.286Z</time></trkpt><trkpt lat="44.4361994" lon="11.2237734"><ele>379.0</ele><time>2026-04-04T16:54:36.286Z</time></trkpt><trkpt lat="44.4362629" lon="11.2236065"><ele>380.0</ele><time>2026-04-04T16:54:37.285Z</time></trkpt><trkpt lat="44.4363354" lon="11.2234462"><ele>381.0</ele><time>2026-04-04T16:54:38.285Z</time></trkpt><trkpt lat="44.4364221" lon="11.2233015"><ele>382.0</ele><time>2026-04-04T16:54:39.285Z</time></trkpt><trkpt lat="44.4365334" lon="11.2231857"><ele>383.0</ele><time>2026-04-04T16:54:40.285Z</time></trkpt><trkpt lat="44.4366481" lon="11.22309"><ele>379.0</ele><time>2026-04-04T16:54:41.285Z</time></trkpt><trkpt lat="44.4367668" lon="11.2230285"><ele>375.0</ele><time>2026-04-04T16:54:42.285Z</time></trkpt><trkpt lat="44.4368719" lon="11.2229869"><ele>371.0</ele><time>2026-04-04T16:54:43.286Z</time></trkpt><trkpt lat="44.4370121" lon="11.2230269"><ele>367.0</ele><time>2026-04-04T16:54:44.285Z</time></trkpt><trkpt lat="44.4371455" lon="11.2230156"><ele>367.0</ele><time>2026-04-04T16:54:45.285Z</time></trkpt><trkpt lat="44.437285" lon="11.2229897"><ele>367.0</ele><time>2026-04-04T16:54:46.285Z</time></trkpt><trkpt lat="44.4374072" lon="11.2229018"><ele>367.0</ele><time>2026-04-04T16:54:47.285Z</time></trkpt><trkpt lat="44.4375281" lon="11.2228472"><ele>367.0</ele><time>2026-04-04T16:54:48.285Z</time></trkpt><trkpt lat="44.4376529" lon="11.2227828"><ele>367.0</ele><time>2026-04-04T16:54:49.286Z</time></trkpt><trkpt lat="44.4377619" lon="11.2226942"><ele>367.0</ele><time>2026-04-04T16:54:50.285Z</time></trkpt><trkpt lat="44.4378406" lon="11.2225611"><ele>367.0</ele><time>2026-04-04T16:54:51.285Z</time></trkpt><trkpt lat="44.4378845" lon="11.2224012"><ele>367.0</ele><time>2026-04-04T16:54:52.286Z</time></trkpt><trkpt lat="44.4379223" lon="11.2222238"><ele>366.25</ele><time>2026-04-04T16:54:53.285Z</time></trkpt><trkpt lat="44.4379676" lon="11.2220493"><ele>365.5</ele><time>2026-04-04T16:54:54.286Z</time></trkpt><trkpt lat="44.4379985" lon="11.2218809"><ele>364.75</ele><time>2026-04-04T16:54:55.285Z</time></trkpt><trkpt lat="44.4380351" lon="11.2217278"><ele>364.0</ele><time>2026-04-04T16:54:56.285Z</time></trkpt><trkpt lat="44.4380829" lon="11.2215919"><ele>364.0</ele><time>2026-04-04T16:54:57.285Z</time></trkpt><trkpt lat="44.4381352" lon="11.2214656"><ele>364.0</ele><time>2026-04-04T16:54:58.285Z</time></trkpt><trkpt lat="44.4382065" lon="11.2214202"><ele>364.0</ele><time>2026-04-04T16:54:59.286Z</time></trkpt><trkpt lat="44.4383006" lon="11.2214488"><ele>364.0</ele><time>2026-04-04T16:55:00.285Z</time></trkpt><trkpt lat="44.4383845" lon="11.2214629"><ele>364.0</ele><time>2026-04-04T16:55:01.285Z</time></trkpt><trkpt lat="44.4384691" lon="11.2214769"><ele>364.0</ele><time>2026-04-04T16:55:02.285Z</time></trkpt><trkpt lat="44.438554" lon="11.2214845"><ele>362.6</ele><time>2026-04-04T16:55:03.285Z</time></trkpt><trkpt lat="44.4386376" lon="11.2214723"><ele>361.2</ele><time>2026-04-04T16:55:04.285Z</time></trkpt><trkpt lat="44.4387313" lon="11.2214074"><ele>359.8</ele><time>2026-04-04T16:55:05.285Z</time></trkpt><trkpt lat="44.4388246" lon="11.2213098"><ele>358.40000000000003</ele><time>2026-04-04T16:55:06.285Z</time></trkpt><trkpt lat="44.4389232" lon="11.2211685"><ele>357.0</ele><time>2026-04-04T16:55:07.286Z</time></trkpt><trkpt lat="44.4390335" lon="11.2210172"><ele>357.0</ele><time>2026-04-04T16:55:08.285Z</time></trkpt><trkpt lat="44.4391435" lon="11.2208613"><ele>357.0</ele><time>2026-04-04T16:55:09.285Z</time></trkpt><trkpt lat="44.4392457" lon="11.2206879"><ele>357.0</ele><time>2026-04-04T16:55:10.285Z</time></trkpt><trkpt lat="44.4393387" lon="11.2204959"><ele>351.3333333333333</ele><time>2026-04-04T16:55:11.285Z</time></trkpt><trkpt lat="44.4394278" lon="11.2202943"><ele>345.66666666666663</ele><time>2026-04-04T16:55:12.285Z</time></trkpt><trkpt lat="44.4395178" lon="11.2201"><ele>340.0</ele><time>2026-04-04T16:55:13.285Z</time></trkpt><trkpt lat="44.4396064" lon="11.2199052"><ele>338.66666666666663</ele><time>2026-04-04T16:55:14.285Z</time></trkpt><trkpt lat="44.4396946" lon="11.2197121"><ele>337.3333333333333</ele><time>2026-04-04T16:55:15.285Z</time></trkpt><trkpt lat="44.4397828" lon="11.2195284"><ele>336.0</ele><time>2026-04-04T16:55:16.285Z</time></trkpt><trkpt lat="44.4398696" lon="11.2193387"><ele>336.0</ele><time>2026-04-04T16:55:17.285Z</time></trkpt><trkpt lat="44.4399553" lon="11.2191486"><ele>336.0</ele><time>2026-04-04T16:55:18.285Z</time></trkpt><trkpt lat="44.4400437" lon="11.2189633"><ele>336.0</ele><time>2026-04-04T16:55:19.285Z</time></trkpt><trkpt lat="44.4401279" lon="11.218781"><ele>333.3333333333333</ele><time>2026-04-04T16:55:20.285Z</time></trkpt><trkpt lat="44.4402166" lon="11.2186054"><ele>330.66666666666663</ele><time>2026-04-04T16:55:21.285Z</time></trkpt><trkpt lat="44.4403029" lon="11.2184227"><ele>328.0</ele><time>2026-04-04T16:55:22.285Z</time></trkpt><trkpt lat="44.4403855" lon="11.2182454"><ele>328.3333333333333</ele><time>2026-04-04T16:55:23.286Z</time></trkpt><trkpt lat="44.4404703" lon="11.2180625"><ele>328.6666666666667</ele><time>2026-04-04T16:55:24.285Z</time></trkpt><trkpt lat="44.4405603" lon="11.2178836"><ele>329.0</ele><time>2026-04-04T16:55:25.286Z</time></trkpt><trkpt lat="44.4406404" lon="11.2176975"><ele>329.0</ele><time>2026-04-04T16:55:26.285Z</time></trkpt><trkpt lat="44.4407172" lon="11.2175006"><ele>329.0</ele><time>2026-04-04T16:55:27.286Z</time></trkpt><trkpt lat="44.4407716" lon="11.2173007"><ele>329.0</ele><time>2026-04-04T16:55:28.285Z</time></trkpt><trkpt lat="44.4408105" lon="11.2170938"><ele>328.0</ele><time>2026-04-04T16:55:29.286Z</time></trkpt><trkpt lat="44.4408344" lon="11.2168891"><ele>327.0</ele><time>2026-04-04T16:55:30.285Z</time></trkpt><trkpt lat="44.4408681" lon="11.2166912"><ele>326.0</ele><time>2026-04-04T16:55:31.285Z</time></trkpt><trkpt lat="44.440888" lon="11.2165107"><ele>325.0</ele><time>2026-04-04T16:55:32.285Z</time></trkpt><trkpt lat="44.4409179" lon="11.2163471"><ele>325.0</ele><time>2026-04-04T16:55:33.285Z</time></trkpt><trkpt lat="44.4409649" lon="11.2162013"><ele>325.0</ele><time>2026-04-04T16:55:34.285Z</time></trkpt><trkpt lat="44.4410449" lon="11.2161007"><ele>325.0</ele><time>2026-04-04T16:55:35.285Z</time></trkpt><trkpt lat="44.4411297" lon="11.2160356"><ele>325.0</ele><time>2026-04-04T16:55:36.286Z</time></trkpt><trkpt lat="44.4412886" lon="11.2159961"><ele>328.5</ele><time>2026-04-04T16:55:37.286Z</time></trkpt><trkpt lat="44.4414304" lon="11.2159503"><ele>332.0</ele><time>2026-04-04T16:55:38.285Z</time></trkpt><trkpt lat="44.4415659" lon="11.2159201"><ele>335.5</ele><time>2026-04-04T16:55:39.285Z</time></trkpt><trkpt lat="44.4417259" lon="11.2159104"><ele>339.0</ele><time>2026-04-04T16:55:40.285Z</time></trkpt><trkpt lat="44.441881" lon="11.2159063"><ele>339.0</ele><time>2026-04-04T16:55:41.285Z</time></trkpt><trkpt lat="44.4420396" lon="11.2159209"><ele>339.0</ele><time>2026-04-04T16:55:42.285Z</time></trkpt><trkpt lat="44.4422044" lon="11.2159203"><ele>339.0</ele><time>2026-04-04T16:55:43.285Z</time></trkpt><trkpt lat="44.4423702" lon="11.2159145"><ele>339.0</ele><time>2026-04-04T16:55:44.285Z</time></trkpt><trkpt lat="44.4425412" lon="11.2158997"><ele>339.0</ele><time>2026-04-04T16:55:45.285Z</time></trkpt><trkpt lat="44.4427069" lon="11.2158727"><ele>339.0</ele><time>2026-04-04T16:55:46.285Z</time></trkpt><trkpt lat="44.4428763" lon="11.2158615"><ele>339.3333333333333</ele><time>2026-04-04T16:55:47.285Z</time></trkpt><trkpt lat="44.4430432" lon="11.2158453"><ele>339.66666666666663</ele><time>2026-04-04T16:55:48.285Z</time></trkpt><trkpt lat="44.4432145" lon="11.2158388"><ele>340.0</ele><time>2026-04-04T16:55:49.285Z</time></trkpt><trkpt lat="44.4433769" lon="11.2159006"><ele>340.0</ele><time>2026-04-04T16:55:50.285Z</time></trkpt><trkpt lat="44.443535" lon="11.2159476"><ele>340.0</ele><time>2026-04-04T16:55:51.285Z</time></trkpt><trkpt lat="44.4436771" lon="11.215981"><ele>340.0</ele><time>2026-04-04T16:55:52.285Z</time></trkpt><trkpt lat="44.4438266" lon="11.2159613"><ele>341.25</ele><time>2026-04-04T16:55:53.285Z</time></trkpt><trkpt lat="44.4439656" lon="11.2159621"><ele>342.5</ele><time>2026-04-04T16:55:54.285Z</time></trkpt><trkpt lat="44.4441067" lon="11.2159105"><ele>343.75</ele><time>2026-04-04T16:55:55.285Z</time></trkpt><trkpt lat="44.4442489" lon="11.2159026"><ele>345.0</ele><time>2026-04-04T16:55:56.285Z</time></trkpt><trkpt lat="44.4443713" lon="11.2159364"><ele>345.0</ele><time>2026-04-04T16:55:57.285Z</time></trkpt><trkpt lat="44.4444796" lon="11.2160284"><ele>345.0</ele><time>2026-04-04T16:55:58.285Z</time></trkpt><trkpt lat="44.4445802" lon="11.2161518"><ele>345.0</ele><time>2026-04-04T16:55:59.285Z</time></trkpt><trkpt lat="44.444678" lon="11.2162753"><ele>345.0</ele><time>2026-04-04T16:56:00.285Z</time></trkpt><trkpt lat="44.4447924" lon="11.2163671"><ele>344.0</ele><time>2026-04-04T16:56:01.285Z</time></trkpt><trkpt lat="44.4449211" lon="11.2164378"><ele>343.0</ele><time>2026-04-04T16:56:02.285Z</time></trkpt><trkpt lat="44.4450584" lon="11.2164943"><ele>342.0</ele><time>2026-04-04T16:56:03.285Z</time></trkpt><trkpt lat="44.4451968" lon="11.2165345"><ele>341.0</ele><time>2026-04-04T16:56:04.286Z</time></trkpt><trkpt lat="44.4453295" lon="11.2165576"><ele>343.0</ele><time>2026-04-04T16:56:05.285Z</time></trkpt><trkpt lat="44.4454736" lon="11.216574"><ele>345.0</ele><time>2026-04-04T16:56:06.285Z</time></trkpt><trkpt lat="44.4456225" lon="11.2165699"><ele>347.0</ele><time>2026-04-04T16:56:07.285Z</time></trkpt><trkpt lat="44.4457754" lon="11.2165446"><ele>349.0</ele><time>2026-04-04T16:56:08.285Z</time></trkpt><trkpt lat="44.4459266" lon="11.2165159"><ele>348.0</ele><time>2026-04-04T16:56:09.285Z</time></trkpt><trkpt lat="44.4460795" lon="11.2164699"><ele>347.0</ele><time>2026-04-04T16:56:10.286Z</time></trkpt><trkpt lat="44.4462293" lon="11.2164328"><ele>346.0</ele><time>2026-04-04T16:56:11.285Z</time></trkpt><trkpt lat="44.4463818" lon="11.2164138"><ele>346.0</ele><time>2026-04-04T16:56:12.285Z</time></trkpt><trkpt lat="44.446529" lon="11.216399"><ele>346.0</ele><time>2026-04-04T16:56:13.285Z</time></trkpt><trkpt lat="44.4466719" lon="11.2163941"><ele>346.0</ele><time>2026-04-04T16:56:14.285Z</time></trkpt><trkpt lat="44.4468146" lon="11.2164166"><ele>346.0</ele><time>2026-04-04T16:56:15.285Z</time></trkpt><trkpt lat="44.446949" lon="11.2164542"><ele>347.0</ele><time>2026-04-04T16:56:16.286Z</time></trkpt><trkpt lat="44.4470997" lon="11.2165031"><ele>348.0</ele><time>2026-04-04T16:56:17.286Z</time></trkpt><trkpt lat="44.4472215" lon="11.2165864"><ele>349.0</ele><time>2026-04-04T16:56:18.286Z</time></trkpt><trkpt lat="44.4473468" lon="11.216693"><ele>350.0</ele><time>2026-04-04T16:56:19.285Z</time></trkpt><trkpt lat="44.447476" lon="11.2167741"><ele>350.0</ele><time>2026-04-04T16:56:20.285Z</time></trkpt><trkpt lat="44.4476132" lon="11.2168546"><ele>350.0</ele><time>2026-04-04T16:56:21.285Z</time></trkpt><trkpt lat="44.4477461" lon="11.2169253"><ele>350.0</ele><time>2026-04-04T16:56:22.286Z</time></trkpt><trkpt lat="44.4478696" lon="11.2169878"><ele>350.0</ele><time>2026-04-04T16:56:23.286Z</time></trkpt><trkpt lat="44.4479891" lon="11.2170392"><ele>350.4</ele><time>2026-04-04T16:56:24.285Z</time></trkpt><trkpt lat="44.4480996" lon="11.2170964"><ele>350.8</ele><time>2026-04-04T16:56:25.285Z</time></trkpt><trkpt lat="44.4482084" lon="11.217155"><ele>351.20000000000005</ele><time>2026-04-04T16:56:26.285Z</time></trkpt><trkpt lat="44.4483084" lon="11.2172106"><ele>351.6</ele><time>2026-04-04T16:56:27.285Z</time></trkpt><trkpt lat="44.4483949" lon="11.2172651"><ele>352.0</ele><time>2026-04-04T16:56:28.285Z</time></trkpt><trkpt lat="44.4484843" lon="11.2173234"><ele>353.6</ele><time>2026-04-04T16:56:29.286Z</time></trkpt><trkpt lat="44.4485766" lon="11.2173722"><ele>355.20000000000005</ele><time>2026-04-04T16:56:30.285Z</time></trkpt><trkpt lat="44.448662" lon="11.2174216"><ele>356.8</ele><time>2026-04-04T16:56:31.285Z</time></trkpt><trkpt lat="44.4487648" lon="11.2174634"><ele>358.4</ele><time>2026-04-04T16:56:32.285Z</time></trkpt><trkpt lat="44.4488906" lon="11.2174939"><ele>360.0</ele><time>2026-04-04T16:56:33.285Z</time></trkpt><trkpt lat="44.4490284" lon="11.2175216"><ele>360.5</ele><time>2026-04-04T16:56:34.285Z</time></trkpt><trkpt lat="44.4491728" lon="11.2175437"><ele>361.0</ele><time>2026-04-04T16:56:35.285Z</time></trkpt><trkpt lat="44.4493201" lon="11.2175659"><ele>361.5</ele><time>2026-04-04T16:56:36.286Z</time></trkpt><trkpt lat="44.449469" lon="11.2175892"><ele>362.0</ele><time>2026-04-04T16:56:37.285Z</time></trkpt><trkpt lat="44.4496165" lon="11.21763"><ele>359.33333333333337</ele><time>2026-04-04T16:56:38.285Z</time></trkpt><trkpt lat="44.4497434" lon="11.2176925"><ele>356.6666666666667</ele><time>2026-04-04T16:56:39.285Z</time></trkpt><trkpt lat="44.4498024" lon="11.2179793"><ele>354.0</ele><time>2026-04-04T16:56:40.285Z</time></trkpt><trkpt lat="44.4498907" lon="11.2181282"><ele>357.75</ele><time>2026-04-04T16:56:41.285Z</time></trkpt><trkpt lat="44.4499725" lon="11.2183017"><ele>361.5</ele><time>2026-04-04T16:56:42.285Z</time></trkpt><trkpt lat="44.450056" lon="11.2184738"><ele>365.25</ele><time>2026-04-04T16:56:43.285Z</time></trkpt><trkpt lat="44.4501557" lon="11.2186249"><ele>369.0</ele><time>2026-04-04T16:56:44.285Z</time></trkpt><trkpt lat="44.4502661" lon="11.2187566"><ele>369.0</ele><time>2026-04-04T16:56:45.285Z</time></trkpt><trkpt lat="44.4503894" lon="11.2188584"><ele>369.0</ele><time>2026-04-04T16:56:46.286Z</time></trkpt><trkpt lat="44.4505138" lon="11.218938"><ele>369.0</ele><time>2026-04-04T16:56:47.285Z</time></trkpt><trkpt lat="44.4506479" lon="11.2190112"><ele>369.0</ele><time>2026-04-04T16:56:48.285Z</time></trkpt><trkpt lat="44.450778" lon="11.2190679"><ele>368.75</ele><time>2026-04-04T16:56:49.285Z</time></trkpt><trkpt lat="44.4509109" lon="11.219131"><ele>368.5</ele><time>2026-04-04T16:56:50.285Z</time></trkpt><trkpt lat="44.4510466" lon="11.2191889"><ele>368.25</ele><time>2026-04-04T16:56:51.285Z</time></trkpt><trkpt lat="44.4511745" lon="11.2192485"><ele>368.0</ele><time>2026-04-04T16:56:52.285Z</time></trkpt><trkpt lat="44.4512867" lon="11.219305"><ele>366.25</ele><time>2026-04-04T16:56:53.285Z</time></trkpt><trkpt lat="44.451411" lon="11.2193543"><ele>364.5</ele><time>2026-04-04T16:56:54.285Z</time></trkpt><trkpt lat="44.4515089" lon="11.2194193"><ele>362.75</ele><time>2026-04-04T16:56:55.285Z</time></trkpt><trkpt lat="44.4516171" lon="11.2194856"><ele>361.0</ele><time>2026-04-04T16:56:56.285Z</time></trkpt><trkpt lat="44.4517321" lon="11.2195471"><ele>361.0</ele><time>2026-04-04T16:56:57.285Z</time></trkpt><trkpt lat="44.4518345" lon="11.2196187"><ele>361.0</ele><time>2026-04-04T16:56:58.285Z</time></trkpt><trkpt lat="44.4519395" lon="11.2197042"><ele>361.0</ele><time>2026-04-04T16:56:59.285Z</time></trkpt><trkpt lat="44.4520508" lon="11.2197888"><ele>361.0</ele><time>2026-04-04T16:57:00.285Z</time></trkpt><trkpt lat="44.4521637" lon="11.2198833"><ele>363.0</ele><time>2026-04-04T16:57:01.285Z</time></trkpt><trkpt lat="44.45227" lon="11.2199859"><ele>365.0</ele><time>2026-04-04T16:57:02.285Z</time></trkpt><trkpt lat="44.4523703" lon="11.2200884"><ele>367.0</ele><time>2026-04-04T16:57:03.285Z</time></trkpt><trkpt lat="44.4524665" lon="11.2201755"><ele>369.0</ele><time>2026-04-04T16:57:04.285Z</time></trkpt><trkpt lat="44.4525614" lon="11.2202495"><ele>369.0</ele><time>2026-04-04T16:57:05.286Z</time></trkpt><trkpt lat="44.4526472" lon="11.2202998"><ele>369.0</ele><time>2026-04-04T16:57:06.286Z</time></trkpt><trkpt lat="44.4527364" lon="11.2203373"><ele>369.0</ele><time>2026-04-04T16:57:07.285Z</time></trkpt><trkpt lat="44.4528249" lon="11.2203597"><ele>369.0</ele><time>2026-04-04T16:57:08.285Z</time></trkpt><trkpt lat="44.4529155" lon="11.220371"><ele>369.0</ele><time>2026-04-04T16:57:09.285Z</time></trkpt><trkpt lat="44.4530022" lon="11.2203875"><ele>368.5</ele><time>2026-04-04T16:57:10.285Z</time></trkpt><trkpt lat="44.453084" lon="11.2204072"><ele>368.0</ele><time>2026-04-04T16:57:11.285Z</time></trkpt><trkpt lat="44.4531605" lon="11.2204259"><ele>367.5</ele><time>2026-04-04T16:57:12.285Z</time></trkpt><trkpt lat="44.4532294" lon="11.2204349"><ele>367.0</ele><time>2026-04-04T16:57:13.285Z</time></trkpt><trkpt lat="44.4533047" lon="11.2203789"><ele>366.5</ele><time>2026-04-04T16:57:14.285Z</time></trkpt><trkpt lat="44.453382" lon="11.2203355"><ele>366.0</ele><time>2026-04-04T16:57:15.285Z</time></trkpt><trkpt lat="44.453477" lon="11.2202594"><ele>366.0</ele><time>2026-04-04T16:57:16.285Z</time></trkpt><trkpt lat="44.4536176" lon="11.2202023"><ele>366.0</ele><time>2026-04-04T16:57:17.285Z</time></trkpt><trkpt lat="44.4537408" lon="11.2201501"><ele>366.0</ele><time>2026-04-04T16:57:18.286Z</time></trkpt><trkpt lat="44.4538705" lon="11.2200887"><ele>366.0</ele><time>2026-04-04T16:57:19.285Z</time></trkpt><trkpt lat="44.4539489" lon="11.2200714"><ele>365.4</ele><time>2026-04-04T16:57:20.285Z</time></trkpt><trkpt lat="44.4540655" lon="11.2200732"><ele>364.8</ele><time>2026-04-04T16:57:21.285Z</time></trkpt><trkpt lat="44.4541744" lon="11.2200833"><ele>364.2</ele><time>2026-04-04T16:57:22.285Z</time></trkpt><trkpt lat="44.4542786" lon="11.2201187"><ele>363.59999999999997</ele><time>2026-04-04T16:57:23.285Z</time></trkpt><trkpt lat="44.4543817" lon="11.2201289"><ele>363.0</ele><time>2026-04-04T16:57:24.285Z</time></trkpt><trkpt lat="44.4544956" lon="11.220144"><ele>363.0</ele><time>2026-04-04T16:57:25.285Z</time></trkpt><trkpt lat="44.4545821" lon="11.220121"><ele>363.0</ele><time>2026-04-04T16:57:26.285Z</time></trkpt><trkpt lat="44.4545615" lon="11.2200178"><ele>363.0</ele><time>2026-04-04T16:57:27.285Z</time></trkpt><trkpt lat="44.4545555" lon="11.2199209"><ele>363.0</ele><time>2026-04-04T16:57:28.285Z</time></trkpt><trkpt lat="44.4545501" lon="11.2197543"><ele>363.0</ele><time>2026-04-04T16:57:29.285Z</time></trkpt><trkpt lat="44.4545397" lon="11.2195815"><ele>358.75</ele><time>2026-04-04T16:57:30.285Z</time></trkpt><trkpt lat="44.45447" lon="11.219412"><ele>354.5</ele><time>2026-04-04T16:57:31.285Z</time></trkpt><trkpt lat="44.4544132" lon="11.2192282"><ele>350.25</ele><time>2026-04-04T16:57:32.285Z</time></trkpt><trkpt lat="44.4543629" lon="11.2190244"><ele>346.0</ele><time>2026-04-04T16:57:33.285Z</time></trkpt><trkpt lat="44.4543237" lon="11.2188252"><ele>342.25</ele><time>2026-04-04T16:57:34.285Z</time></trkpt><trkpt lat="44.4543043" lon="11.2186286"><ele>338.5</ele><time>2026-04-04T16:57:35.285Z</time></trkpt><trkpt lat="44.4542813" lon="11.2184562"><ele>334.75</ele><time>2026-04-04T16:57:36.285Z</time></trkpt><trkpt lat="44.4542489" lon="11.2182741"><ele>331.0</ele><time>2026-04-04T16:57:37.285Z</time></trkpt><trkpt lat="44.4542125" lon="11.2181113"><ele>330.0</ele><time>2026-04-04T16:57:38.285Z</time></trkpt><trkpt lat="44.4541998" lon="11.2179826"><ele>329.0</ele><time>2026-04-04T16:57:39.285Z</time></trkpt><trkpt lat="44.4541834" lon="11.2178727"><ele>328.0</ele><time>2026-04-04T16:57:41.285Z</time></trkpt><trkpt lat="44.4542168" lon="11.2177802"><ele>327.0</ele><time>2026-04-04T16:57:43.286Z</time></trkpt><trkpt lat="44.4541826" lon="11.2176495"><ele>326.0</ele><time>2026-04-04T16:57:45.285Z</time></trkpt><trkpt lat="44.4541852" lon="11.217535"><ele>325.0</ele><time>2026-04-04T16:57:47.285Z</time></trkpt><trkpt lat="44.4541402" lon="11.2173943"><ele>325.0</ele><time>2026-04-04T16:57:51.286Z</time></trkpt><trkpt lat="44.454097" lon="11.2173206"><ele>325.0</ele><time>2026-04-04T16:57:52.285Z</time></trkpt><trkpt lat="44.4540434" lon="11.2172342"><ele>325.0</ele><time>2026-04-04T16:57:53.285Z</time></trkpt><trkpt lat="44.4540078" lon="11.2171542"><ele>325.0</ele><time>2026-04-04T16:57:54.285Z</time></trkpt><trkpt lat="44.4539777" lon="11.2170674"><ele>325.0</ele><time>2026-04-04T16:57:55.285Z</time></trkpt><trkpt lat="44.4539554" lon="11.216963"><ele>325.0</ele><time>2026-04-04T16:57:56.286Z</time></trkpt><trkpt lat="44.4539191" lon="11.216861"><ele>325.0</ele><time>2026-04-04T16:57:57.286Z</time></trkpt><trkpt lat="44.4538389" lon="11.2167526"><ele>324.0</ele><time>2026-04-04T16:57:59.285Z</time></trkpt><trkpt lat="44.4537702" lon="11.2167433"><ele>323.0</ele><time>2026-04-04T16:58:01.285Z</time></trkpt><trkpt lat="44.4537967" lon="11.2168392"><ele>322.0</ele><time>2026-04-04T16:58:05.285Z</time></trkpt><trkpt lat="44.4537378" lon="11.2167821"><ele>321.0</ele><time>2026-04-04T16:58:08.285Z</time></trkpt><trkpt lat="44.4536934" lon="11.2166616"><ele>320.0</ele><time>2026-04-04T16:58:10.285Z</time></trkpt><trkpt lat="44.4536333" lon="11.2166104"><ele>319.0</ele><time>2026-04-04T16:58:12.286Z</time></trkpt><trkpt lat="44.4535911" lon="11.2165038"><ele>311.8</ele><time>2026-04-04T16:58:13.286Z</time></trkpt><trkpt lat="44.4535248" lon="11.2163464"><ele>304.59999999999997</ele><time>2026-04-04T16:58:15.285Z</time></trkpt><trkpt lat="44.453483" lon="11.2162513"><ele>297.4</ele><time>2026-04-04T16:58:16.286Z</time></trkpt><trkpt lat="44.4534077" lon="11.216181"><ele>290.2</ele><time>2026-04-04T16:58:17.285Z</time></trkpt><trkpt lat="44.4533393" lon="11.2161368"><ele>283.0</ele><time>2026-04-04T16:58:18.285Z</time></trkpt><trkpt lat="44.4532322" lon="11.2159619"><ele>283.0</ele><time>2026-04-04T16:58:20.285Z</time></trkpt><trkpt lat="44.4531886" lon="11.2158286"><ele>283.0</ele><time>2026-04-04T16:58:22.285Z</time></trkpt><trkpt lat="44.4531489" lon="11.2156165"><ele>283.0</ele><time>2026-04-04T16:58:24.285Z</time></trkpt><trkpt lat="44.4531126" lon="11.2154879"><ele>283.0</ele><time>2026-04-04T16:58:25.285Z</time></trkpt><trkpt lat="44.4530239" lon="11.2152117"><ele>282.0</ele><time>2026-04-04T16:58:26.285Z</time></trkpt><trkpt lat="44.452969" lon="11.2150646"><ele>281.0</ele><time>2026-04-04T16:58:27.286Z</time></trkpt><trkpt lat="44.4529237" lon="11.2149529"><ele>280.0</ele><time>2026-04-04T16:58:28.285Z</time></trkpt><trkpt lat="44.4528953" lon="11.2148651"><ele>279.0</ele><time>2026-04-04T16:58:29.285Z</time></trkpt><trkpt lat="44.4528487" lon="11.2146752"><ele>278.0</ele><time>2026-04-04T16:58:31.286Z</time></trkpt><trkpt lat="44.4528209" lon="11.2145799"><ele>275.33333333333337</ele><time>2026-04-04T16:58:32.286Z</time></trkpt><trkpt lat="44.4527849" lon="11.2144922"><ele>272.6666666666667</ele><time>2026-04-04T16:58:33.285Z</time></trkpt><trkpt lat="44.4527774" lon="11.2143834"><ele>270.0</ele><time>2026-04-04T16:58:34.285Z</time></trkpt><trkpt lat="44.4526847" lon="11.2143538"><ele>267.3333333333333</ele><time>2026-04-04T16:58:36.285Z</time></trkpt><trkpt lat="44.4526465" lon="11.2142116"><ele>264.66666666666663</ele><time>2026-04-04T16:58:39.285Z</time></trkpt><trkpt lat="44.4526297" lon="11.2141131"><ele>262.0</ele><time>2026-04-04T16:58:40.285Z</time></trkpt><trkpt lat="44.4526179" lon="11.2140186"><ele>261.66666666666663</ele><time>2026-04-04T16:58:41.285Z</time></trkpt><trkpt lat="44.4526553" lon="11.2139243"><ele>261.3333333333333</ele><time>2026-04-04T16:58:42.285Z</time></trkpt><trkpt lat="44.4526632" lon="11.2137946"><ele>261.0</ele><time>2026-04-04T16:58:44.285Z</time></trkpt><trkpt lat="44.4527265" lon="11.2138202"><ele>260.6666666666667</ele><time>2026-04-04T16:58:45.285Z</time></trkpt><trkpt lat="44.4528159" lon="11.2138775"><ele>260.33333333333337</ele><time>2026-04-04T16:58:46.286Z</time></trkpt><trkpt lat="44.4529169" lon="11.21395"><ele>260.0</ele><time>2026-04-04T16:58:48.285Z</time></trkpt><trkpt lat="44.4529521" lon="11.2138552"><ele>260.0</ele><time>2026-04-04T16:58:51.285Z</time></trkpt><trkpt lat="44.4529137" lon="11.2137025"><ele>260.0</ele><time>2026-04-04T16:58:53.286Z</time></trkpt><trkpt lat="44.4529192" lon="11.2135647"><ele>260.0</ele><time>2026-04-04T16:58:55.285Z</time></trkpt><trkpt lat="44.4529257" lon="11.2134416"><ele>260.0</ele><time>2026-04-04T16:58:57.285Z</time></trkpt><trkpt lat="44.4529513" lon="11.2133028"><ele>260.0</ele><time>2026-04-04T16:58:59.285Z</time></trkpt><trkpt lat="44.452977" lon="11.2131914"><ele>257.6</ele><time>2026-04-04T16:59:01.285Z</time></trkpt><trkpt lat="44.4530049" lon="11.2130974"><ele>255.2</ele><time>2026-04-04T16:59:02.285Z</time></trkpt><trkpt lat="44.4530601" lon="11.2129744"><ele>252.8</ele><time>2026-04-04T16:59:04.285Z</time></trkpt><trkpt lat="44.4530878" lon="11.2128848"><ele>250.4</ele><time>2026-04-04T16:59:05.285Z</time></trkpt><trkpt lat="44.4531288" lon="11.2127103"><ele>248.0</ele><time>2026-04-04T16:59:06.285Z</time></trkpt><trkpt lat="44.4531374" lon="11.2125885"><ele>248.0</ele><time>2026-04-04T16:59:07.285Z</time></trkpt><trkpt lat="44.4531246" lon="11.2124555"><ele>248.0</ele><time>2026-04-04T16:59:08.285Z</time></trkpt><trkpt lat="44.4530969" lon="11.2122844"><ele>248.0</ele><time>2026-04-04T16:59:10.286Z</time></trkpt><trkpt lat="44.4530932" lon="11.2120715"><ele>248.0</ele><time>2026-04-04T16:59:11.285Z</time></trkpt><trkpt lat="44.4530703" lon="11.2119693"><ele>248.0</ele><time>2026-04-04T16:59:12.285Z</time></trkpt><trkpt lat="44.4530326" lon="11.211816"><ele>247.0</ele><time>2026-04-04T16:59:13.285Z</time></trkpt><trkpt lat="44.4529917" lon="11.2116812"><ele>246.0</ele><time>2026-04-04T16:59:16.285Z</time></trkpt><trkpt lat="44.4530831" lon="11.2116834"><ele>245.0</ele><time>2026-04-04T16:59:18.286Z</time></trkpt><trkpt lat="44.4530928" lon="11.2115701"><ele>244.0</ele><time>2026-04-04T16:59:20.285Z</time></trkpt><trkpt lat="44.4531063" lon="11.2114731"><ele>243.0</ele><time>2026-04-04T16:59:22.285Z</time></trkpt><trkpt lat="44.4531286" lon="11.211263"><ele>243.0</ele><time>2026-04-04T16:59:25.285Z</time></trkpt><trkpt lat="44.453121" lon="11.211159"><ele>243.0</ele><time>2026-04-04T16:59:27.285Z</time></trkpt><trkpt lat="44.4531123" lon="11.2110716"><ele>243.0</ele><time>2026-04-04T16:59:29.286Z</time></trkpt><trkpt lat="44.4531253" lon="11.2109492"><ele>243.0</ele><time>2026-04-04T16:59:36.285Z</time></trkpt><trkpt lat="44.4531515" lon="11.2106928"><ele>243.0</ele><time>2026-04-04T16:59:38.285Z</time></trkpt><trkpt lat="44.4531137" lon="11.2105413"><ele>241.83333333333334</ele><time>2026-04-04T16:59:39.285Z</time></trkpt><trkpt lat="44.4531004" lon="11.2104028"><ele>240.66666666666669</ele><time>2026-04-04T16:59:40.285Z</time></trkpt><trkpt lat="44.4530881" lon="11.2103064"><ele>239.5</ele><time>2026-04-04T16:59:41.285Z</time></trkpt><trkpt lat="44.4530552" lon="11.2101842"><ele>238.33333333333334</ele><time>2026-04-04T16:59:42.285Z</time></trkpt><trkpt lat="44.4530238" lon="11.2100616"><ele>237.16666666666669</ele><time>2026-04-04T16:59:43.285Z</time></trkpt><trkpt lat="44.4530253" lon="11.2099674"><ele>236.0</ele><time>2026-04-04T16:59:44.285Z</time></trkpt><trkpt lat="44.4530382" lon="11.2098619"><ele>235.60000000000002</ele><time>2026-04-04T16:59:45.286Z</time></trkpt><trkpt lat="44.4530823" lon="11.2097025"><ele>235.20000000000002</ele><time>2026-04-04T16:59:47.286Z</time></trkpt><trkpt lat="44.4530797" lon="11.2095214"><ele>234.79999999999998</ele><time>2026-04-04T16:59:49.286Z</time></trkpt><trkpt lat="44.4530726" lon="11.2093979"><ele>234.39999999999998</ele><time>2026-04-04T16:59:51.286Z</time></trkpt><trkpt lat="44.4531465" lon="11.2093427"><ele>234.0</ele><time>2026-04-04T16:59:53.286Z</time></trkpt><trkpt lat="44.4532593" lon="11.2092818"><ele>234.0</ele><time>2026-04-04T16:59:55.285Z</time></trkpt><trkpt lat="44.4533644" lon="11.2092742"><ele>233.99999999999997</ele><time>2026-04-04T16:59:57.285Z</time></trkpt><trkpt lat="44.4534017" lon="11.2091681"><ele>233.99999999999997</ele><time>2026-04-04T16:59:59.285Z</time></trkpt><trkpt lat="44.4534483" lon="11.209106"><ele>234.0</ele><time>2026-04-04T17:00:03.285Z</time></trkpt><trkpt lat="44.4533825" lon="11.2090424"><ele>234.0</ele><time>2026-04-04T17:00:07.285Z</time></trkpt><trkpt lat="44.4532483" lon="11.209012"><ele>238.2</ele><time>2026-04-04T17:00:09.285Z</time></trkpt><trkpt lat="44.4531749" lon="11.2089851"><ele>242.39999999999998</ele><time>2026-04-04T17:00:10.285Z</time></trkpt><trkpt lat="44.4530683" lon="11.2089323"><ele>246.6</ele><time>2026-04-04T17:00:12.285Z</time></trkpt><trkpt lat="44.4530268" lon="11.2088489"><ele>250.8</ele><time>2026-04-04T17:00:13.285Z</time></trkpt><trkpt lat="44.4529872" lon="11.2086835"><ele>255.0</ele><time>2026-04-04T17:00:15.285Z</time></trkpt><trkpt lat="44.452937" lon="11.2085658"><ele>246.2</ele><time>2026-04-04T17:00:17.285Z</time></trkpt><trkpt lat="44.452902" lon="11.2084839"><ele>237.4</ele><time>2026-04-04T17:00:18.285Z</time></trkpt><trkpt lat="44.4528683" lon="11.2083298"><ele>228.60000000000002</ele><time>2026-04-04T17:00:20.286Z</time></trkpt><trkpt lat="44.4528533" lon="11.2082183"><ele>219.8</ele><time>2026-04-04T17:00:21.285Z</time></trkpt><trkpt lat="44.4528012" lon="11.2080599"><ele>211.0</ele><time>2026-04-04T17:00:23.285Z</time></trkpt><trkpt lat="44.4526817" lon="11.2078864"><ele>210.71428571428572</ele><time>2026-04-04T17:00:25.285Z</time></trkpt><trkpt lat="44.4526881" lon="11.2077733"><ele>210.42857142857144</ele><time>2026-04-04T17:00:27.285Z</time></trkpt><trkpt lat="44.4526724" lon="11.2076633"><ele>210.14285714285714</ele><time>2026-04-04T17:00:33.285Z</time></trkpt><trkpt lat="44.4526795" lon="11.2075456"><ele>209.85714285714286</ele><time>2026-04-04T17:00:53.285Z</time></trkpt><trkpt lat="44.452674" lon="11.2074509"><ele>209.57142857142856</ele><time>2026-04-04T17:00:56.285Z</time></trkpt><trkpt lat="44.4526729" lon="11.2073612"><ele>209.28571428571428</ele><time>2026-04-04T17:01:01.285Z</time></trkpt><trkpt lat="44.4527041" lon="11.2074457"><ele>209.0</ele><time>2026-04-04T17:01:44.285Z</time></trkpt><trkpt lat="44.4527183" lon="11.2073448"><ele>208.28571428571428</ele><time>2026-04-04T17:02:47.285Z</time></trkpt><trkpt lat="44.4527001" lon="11.2072525"><ele>207.57142857142856</ele><time>2026-04-04T17:02:50.285Z</time></trkpt><trkpt lat="44.4526441" lon="11.2071537"><ele>206.85714285714286</ele><time>2026-04-04T17:02:53.285Z</time></trkpt><trkpt lat="44.4526777" lon="11.207042"><ele>206.14285714285714</ele><time>2026-04-04T17:02:55.285Z</time></trkpt><trkpt lat="44.4527003" lon="11.2069551"><ele>205.42857142857144</ele><time>2026-04-04T17:03:00.285Z</time></trkpt><trkpt lat="44.4527461" lon="11.2068919"><ele>204.71428571428572</ele><time>2026-04-04T17:03:13.285Z</time></trkpt><trkpt lat="44.4527847" lon="11.2068154"><ele>204.0</ele><time>2026-04-04T17:03:17.285Z</time></trkpt><trkpt lat="44.4527244" lon="11.2068864"><ele>204.0</ele><time>2026-04-04T17:03:53.285Z</time></trkpt><trkpt lat="44.4526801" lon="11.2069775"><ele>204.0</ele><time>2026-04-04T17:03:56.286Z</time></trkpt><trkpt lat="44.4526457" lon="11.20706"><ele>204.0</ele><time>2026-04-04T17:04:28.285Z</time></trkpt><trkpt lat="44.452678" lon="11.2071639"><ele>204.0</ele><time>2026-04-04T17:04:31.285Z</time></trkpt><trkpt lat="44.4526444" lon="11.2070881"><ele>204.0</ele><time>2026-04-04T17:05:18.285Z</time></trkpt><trkpt lat="44.4526701" lon="11.2071827"><ele>204.0</ele><time>2026-04-04T17:06:34.286Z</time></trkpt><trkpt lat="44.4527091" lon="11.2072679"><ele>204.0</ele><time>2026-04-04T17:06:38.286Z</time></trkpt><trkpt lat="44.4526831" lon="11.207174"><ele>204.0</ele><time>2026-04-04T17:06:49.285Z</time></trkpt><trkpt lat="44.4526498" lon="11.2070629"><ele>204.0</ele><time>2026-04-04T17:06:52.285Z</time></trkpt><trkpt lat="44.452684" lon="11.2069658"><ele>204.0</ele><time>2026-04-04T17:07:44.286Z</time></trkpt><trkpt lat="44.4526887" lon="11.2071422"><ele>204.0</ele><time>2026-04-04T17:10:06.337Z</time></trkpt><trkpt lat="44.4526525" lon="11.2070563"><ele>204.0</ele><time>2026-04-04T17:10:10.231Z</time></trkpt><trkpt lat="44.4527586" lon="11.2068163"><ele>204.0</ele><time>2026-04-04T17:12:00.285Z</time></trkpt><trkpt lat="44.4527962" lon="11.2067414"><ele>204.0</ele><time>2026-04-04T17:12:01.311Z</time></trkpt><trkpt lat="44.4529206" lon="11.2066922"><ele>204.0</ele><time>2026-04-04T17:12:03.285Z</time></trkpt><trkpt lat="44.4529763" lon="11.2066263"><ele>204.0</ele><time>2026-04-04T17:12:04.285Z</time></trkpt><trkpt lat="44.4530291" lon="11.2065637"><ele>204.0</ele><time>2026-04-04T17:12:05.285Z</time></trkpt><trkpt lat="44.4530636" lon="11.2064814"><ele>204.0</ele><time>2026-04-04T17:12:06.285Z</time></trkpt><trkpt lat="44.4530994" lon="11.2064057"><ele>206.0</ele><time>2026-04-04T17:12:07.285Z</time></trkpt><trkpt lat="44.4531373" lon="11.2062738"><ele>208.0</ele><time>2026-04-04T17:12:09.285Z</time></trkpt><trkpt lat="44.4531749" lon="11.2061688"><ele>210.0</ele><time>2026-04-04T17:12:11.285Z</time></trkpt><trkpt lat="44.4532389" lon="11.2061229"><ele>212.0</ele><time>2026-04-04T17:12:13.285Z</time></trkpt><trkpt lat="44.4532958" lon="11.2060321"><ele>214.0</ele><time>2026-04-04T17:13:18.285Z</time></trkpt><trkpt lat="44.453353" lon="11.2059849"><ele>216.0</ele><time>2026-04-04T17:14:24.285Z</time></trkpt><trkpt lat="44.4534409" lon="11.2060193"><ele>216.0</ele><time>2026-04-04T17:14:25.285Z</time></trkpt><trkpt lat="44.4535246" lon="11.206083"><ele>216.0</ele><time>2026-04-04T17:14:26.285Z</time></trkpt><trkpt lat="44.4536237" lon="11.2061436"><ele>216.0</ele><time>2026-04-04T17:14:27.285Z</time></trkpt><trkpt lat="44.4537392" lon="11.2061971"><ele>216.0</ele><time>2026-04-04T17:14:28.285Z</time></trkpt><trkpt lat="44.4538698" lon="11.2062434"><ele>218.25</ele><time>2026-04-04T17:14:29.285Z</time></trkpt><trkpt lat="44.4539852" lon="11.2062761"><ele>220.5</ele><time>2026-04-04T17:14:30.285Z</time></trkpt><trkpt lat="44.4540994" lon="11.2063381"><ele>222.75</ele><time>2026-04-04T17:14:31.285Z</time></trkpt><trkpt lat="44.4542091" lon="11.2064026"><ele>225.0</ele><time>2026-04-04T17:14:32.285Z</time></trkpt><trkpt lat="44.4543186" lon="11.2064668"><ele>229.8</ele><time>2026-04-04T17:14:33.285Z</time></trkpt><trkpt lat="44.454445" lon="11.2065263"><ele>234.6</ele><time>2026-04-04T17:14:34.285Z</time></trkpt><trkpt lat="44.4545519" lon="11.2065998"><ele>239.39999999999998</ele><time>2026-04-04T17:14:35.285Z</time></trkpt><trkpt lat="44.4546414" lon="11.206642"><ele>244.2</ele><time>2026-04-04T17:14:36.285Z</time></trkpt><trkpt lat="44.4547355" lon="11.2066455"><ele>249.0</ele><time>2026-04-04T17:14:37.286Z</time></trkpt><trkpt lat="44.4548506" lon="11.2066043"><ele>250.0</ele><time>2026-04-04T17:14:38.285Z</time></trkpt><trkpt lat="44.4549576" lon="11.2065113"><ele>251.0</ele><time>2026-04-04T17:14:39.285Z</time></trkpt><trkpt lat="44.4550752" lon="11.2064408"><ele>252.0</ele><time>2026-04-04T17:14:40.285Z</time></trkpt><trkpt lat="44.4550425" lon="11.2062796"><ele>253.0</ele><time>2026-04-04T17:14:41.285Z</time></trkpt><trkpt lat="44.4549962" lon="11.206075"><ele>253.0</ele><time>2026-04-04T17:14:42.285Z</time></trkpt><trkpt lat="44.4549183" lon="11.2060805"><ele>253.0</ele><time>2026-04-04T17:14:43.285Z</time></trkpt><trkpt lat="44.4548731" lon="11.2059965"><ele>253.0</ele><time>2026-04-04T17:14:44.285Z</time></trkpt><trkpt lat="44.4548218" lon="11.2059379"><ele>253.0</ele><time>2026-04-04T17:14:45.285Z</time></trkpt><trkpt lat="44.4547381" lon="11.2058993"><ele>253.0</ele><time>2026-04-04T17:14:46.285Z</time></trkpt><trkpt lat="44.454582" lon="11.2057786"><ele>245.0</ele><time>2026-04-04T17:14:48.285Z</time></trkpt><trkpt lat="44.4544712" lon="11.2057213"><ele>237.0</ele><time>2026-04-04T17:14:50.285Z</time></trkpt><trkpt lat="44.4543352" lon="11.2056637"><ele>229.0</ele><time>2026-04-04T17:14:51.285Z</time></trkpt><trkpt lat="44.4540825" lon="11.2055436"><ele>229.0</ele><time>2026-04-04T17:14:53.285Z</time></trkpt><trkpt lat="44.4539707" lon="11.2054784"><ele>229.0</ele><time>2026-04-04T17:14:54.285Z</time></trkpt><trkpt lat="44.4538746" lon="11.2053821"><ele>229.0</ele><time>2026-04-04T17:14:55.285Z</time></trkpt><trkpt lat="44.4537751" lon="11.2053014"><ele>229.0</ele><time>2026-04-04T17:14:56.285Z</time></trkpt><trkpt lat="44.4536833" lon="11.2051722"><ele>224.5</ele><time>2026-04-04T17:14:57.285Z</time></trkpt><trkpt lat="44.4535771" lon="11.2050507"><ele>220.0</ele><time>2026-04-04T17:14:58.285Z</time></trkpt><trkpt lat="44.4534787" lon="11.2049169"><ele>215.5</ele><time>2026-04-04T17:14:59.285Z</time></trkpt><trkpt lat="44.453399" lon="11.2047588"><ele>211.0</ele><time>2026-04-04T17:15:00.285Z</time></trkpt><trkpt lat="44.4532905" lon="11.2046847"><ele>211.0</ele><time>2026-04-04T17:15:01.285Z</time></trkpt><trkpt lat="44.4531899" lon="11.2046018"><ele>211.0</ele><time>2026-04-04T17:15:02.285Z</time></trkpt><trkpt lat="44.4531046" lon="11.2045385"><ele>211.0</ele><time>2026-04-04T17:15:03.285Z</time></trkpt><trkpt lat="44.4530243" lon="11.2044722"><ele>211.0</ele><time>2026-04-04T17:15:04.285Z</time></trkpt><trkpt lat="44.4529694" lon="11.2043444"><ele>211.0</ele><time>2026-04-04T17:15:05.285Z</time></trkpt><trkpt lat="44.4529016" lon="11.2041917"><ele>205.60000000000002</ele><time>2026-04-04T17:15:06.285Z</time></trkpt><trkpt lat="44.4528446" lon="11.2040427"><ele>200.2</ele><time>2026-04-04T17:15:07.285Z</time></trkpt><trkpt lat="44.4527814" lon="11.2039109"><ele>194.8</ele><time>2026-04-04T17:15:08.285Z</time></trkpt><trkpt lat="44.4527351" lon="11.2037681"><ele>189.39999999999998</ele><time>2026-04-04T17:15:09.285Z</time></trkpt><trkpt lat="44.4527138" lon="11.2036337"><ele>184.0</ele><time>2026-04-04T17:15:10.285Z</time></trkpt><trkpt lat="44.45272" lon="11.203511"><ele>183.39999999999998</ele><time>2026-04-04T17:15:11.285Z</time></trkpt><trkpt lat="44.4527449" lon="11.2033945"><ele>182.8</ele><time>2026-04-04T17:15:12.285Z</time></trkpt><trkpt lat="44.4527939" lon="11.2033155"><ele>182.2</ele><time>2026-04-04T17:15:13.285Z</time></trkpt><trkpt lat="44.4528451" lon="11.2031935"><ele>181.60000000000002</ele><time>2026-04-04T17:15:14.285Z</time></trkpt><trkpt lat="44.452907" lon="11.2030534"><ele>181.0</ele><time>2026-04-04T17:15:15.285Z</time></trkpt><trkpt lat="44.452972" lon="11.202913"><ele>178.60000000000002</ele><time>2026-04-04T17:15:16.285Z</time></trkpt><trkpt lat="44.4530344" lon="11.2027639"><ele>176.2</ele><time>2026-04-04T17:15:17.285Z</time></trkpt><trkpt lat="44.4530761" lon="11.2026575"><ele>173.8</ele><time>2026-04-04T17:15:18.285Z</time></trkpt><trkpt lat="44.4530988" lon="11.2025556"><ele>171.39999999999998</ele><time>2026-04-04T17:15:19.285Z</time></trkpt><trkpt lat="44.4531155" lon="11.2024372"><ele>169.0</ele><time>2026-04-04T17:15:20.285Z</time></trkpt><trkpt lat="44.4531576" lon="11.2023153"><ele>169.0</ele><time>2026-04-04T17:15:21.285Z</time></trkpt><trkpt lat="44.4532039" lon="11.2022091"><ele>169.0</ele><time>2026-04-04T17:15:22.285Z</time></trkpt><trkpt lat="44.4532644" lon="11.202071"><ele>169.0</ele><time>2026-04-04T17:15:23.285Z</time></trkpt><trkpt lat="44.4533177" lon="11.2019774"><ele>169.0</ele><time>2026-04-04T17:15:24.285Z</time></trkpt><trkpt lat="44.45337" lon="11.2019049"><ele>169.0</ele><time>2026-04-04T17:15:25.285Z</time></trkpt><trkpt lat="44.4534284" lon="11.2018496"><ele>169.0</ele><time>2026-04-04T17:15:26.285Z</time></trkpt><trkpt lat="44.4534868" lon="11.2017702"><ele>169.0</ele><time>2026-04-04T17:15:27.285Z</time></trkpt><trkpt lat="44.4535701" lon="11.2017912"><ele>169.0</ele><time>2026-04-04T17:15:28.285Z</time></trkpt><trkpt lat="44.4536591" lon="11.2018181"><ele>169.0</ele><time>2026-04-04T17:15:29.286Z</time></trkpt><trkpt lat="44.4537235" lon="11.2017762"><ele>169.0</ele><time>2026-04-04T17:15:30.285Z</time></trkpt><trkpt lat="44.4537999" lon="11.2017296"><ele>169.0</ele><time>2026-04-04T17:15:31.285Z</time></trkpt><trkpt lat="44.4538661" lon="11.2016582"><ele>169.0</ele><time>2026-04-04T17:15:32.285Z</time></trkpt><trkpt lat="44.4539449" lon="11.2015833"><ele>171.2</ele><time>2026-04-04T17:15:33.285Z</time></trkpt><trkpt lat="44.454024" lon="11.2014997"><ele>173.39999999999998</ele><time>2026-04-04T17:15:34.285Z</time></trkpt><trkpt lat="44.4541124" lon="11.2014112"><ele>175.6</ele><time>2026-04-04T17:15:35.285Z</time></trkpt><trkpt lat="44.4542074" lon="11.201313"><ele>177.8</ele><time>2026-04-04T17:15:36.285Z</time></trkpt><trkpt lat="44.4543018" lon="11.2012136"><ele>180.0</ele><time>2026-04-04T17:15:37.285Z</time></trkpt><trkpt lat="44.4543918" lon="11.2011098"><ele>175.4</ele><time>2026-04-04T17:15:38.285Z</time></trkpt><trkpt lat="44.4544849" lon="11.2010035"><ele>170.8</ele><time>2026-04-04T17:15:39.285Z</time></trkpt><trkpt lat="44.4545804" lon="11.200892"><ele>166.2</ele><time>2026-04-04T17:15:40.285Z</time></trkpt><trkpt lat="44.4546512" lon="11.2008022"><ele>161.6</ele><time>2026-04-04T17:15:41.285Z</time></trkpt><trkpt lat="44.454731" lon="11.2007192"><ele>157.0</ele><time>2026-04-04T17:15:42.285Z</time></trkpt><trkpt lat="44.4547984" lon="11.2006524"><ele>154.5</ele><time>2026-04-04T17:15:43.285Z</time></trkpt><trkpt lat="44.4548538" lon="11.2005718"><ele>152.0</ele><time>2026-04-04T17:15:44.286Z</time></trkpt><trkpt lat="44.4549055" lon="11.2004902"><ele>149.5</ele><time>2026-04-04T17:15:45.285Z</time></trkpt><trkpt lat="44.4549487" lon="11.2003925"><ele>147.0</ele><time>2026-04-04T17:15:46.285Z</time></trkpt><trkpt lat="44.4549634" lon="11.2002879"><ele>144.5</ele><time>2026-04-04T17:15:47.285Z</time></trkpt><trkpt lat="44.4549604" lon="11.2001902"><ele>142.0</ele><time>2026-04-04T17:15:48.285Z</time></trkpt><trkpt lat="44.4549482" lon="11.2000221"><ele>142.0</ele><time>2026-04-04T17:15:50.286Z</time></trkpt><trkpt lat="44.4548922" lon="11.1998689"><ele>142.0</ele><time>2026-04-04T17:15:52.285Z</time></trkpt><trkpt lat="44.4548257" lon="11.19974"><ele>142.0</ele><time>2026-04-04T17:15:54.285Z</time></trkpt><trkpt lat="44.4547777" lon="11.1996152"><ele>142.0</ele><time>2026-04-04T17:15:56.285Z</time></trkpt><trkpt lat="44.4547265" lon="11.1994865"><ele>142.0</ele><time>2026-04-04T17:15:58.285Z</time></trkpt><trkpt lat="44.4546684" lon="11.1993637"><ele>139.2</ele><time>2026-04-04T17:16:00.285Z</time></trkpt><trkpt lat="44.454581" lon="11.1993117"><ele>136.39999999999998</ele><time>2026-04-04T17:16:02.285Z</time></trkpt><trkpt lat="44.4544879" lon="11.1993084"><ele>133.60000000000002</ele><time>2026-04-04T17:16:04.285Z</time></trkpt><trkpt lat="44.4543785" lon="11.1993293"><ele>130.8</ele><time>2026-04-04T17:16:06.285Z</time></trkpt><trkpt lat="44.4543092" lon="11.1993402"><ele>128.0</ele><time>2026-04-04T17:16:07.285Z</time></trkpt><trkpt lat="44.4542266" lon="11.1993471"><ele>128.0</ele><time>2026-04-04T17:16:08.285Z</time></trkpt><trkpt lat="44.4541391" lon="11.1993525"><ele>128.0</ele><time>2026-04-04T17:16:09.285Z</time></trkpt><trkpt lat="44.4540442" lon="11.1993453"><ele>128.0</ele><time>2026-04-04T17:16:10.285Z</time></trkpt><trkpt lat="44.4539493" lon="11.1993217"><ele>128.0</ele><time>2026-04-04T17:16:11.285Z</time></trkpt><trkpt lat="44.4538529" lon="11.1992796"><ele>128.0</ele><time>2026-04-04T17:16:12.285Z</time></trkpt><trkpt lat="44.4537519" lon="11.1992069"><ele>127.0</ele><time>2026-04-04T17:16:13.285Z</time></trkpt><trkpt lat="44.4536599" lon="11.1991249"><ele>126.00000000000001</ele><time>2026-04-04T17:16:14.285Z</time></trkpt><trkpt lat="44.4535707" lon="11.1990598"><ele>125.00000000000001</ele><time>2026-04-04T17:16:15.285Z</time></trkpt><trkpt lat="44.4534767" lon="11.1989881"><ele>124.0</ele><time>2026-04-04T17:16:16.285Z</time></trkpt><trkpt lat="44.4533849" lon="11.1989197"><ele>123.0</ele><time>2026-04-04T17:16:17.285Z</time></trkpt><trkpt lat="44.4532961" lon="11.1988488"><ele>122.0</ele><time>2026-04-04T17:16:18.285Z</time></trkpt><trkpt lat="44.4532299" lon="11.1987595"><ele>121.00000000000001</ele><time>2026-04-04T17:16:19.285Z</time></trkpt><trkpt lat="44.4531563" lon="11.1985486"><ele>120.00000000000001</ele><time>2026-04-04T17:16:21.285Z</time></trkpt><trkpt lat="44.4531596" lon="11.1984267"><ele>119.0</ele><time>2026-04-04T17:16:22.286Z</time></trkpt><trkpt lat="44.4531783" lon="11.1983216"><ele>118.0</ele><time>2026-04-04T17:16:23.285Z</time></trkpt><trkpt lat="44.4531827" lon="11.1982288"><ele>118.0</ele><time>2026-04-04T17:16:24.285Z</time></trkpt><trkpt lat="44.4531058" lon="11.1980838"><ele>118.0</ele><time>2026-04-04T17:16:26.285Z</time></trkpt><trkpt lat="44.4530379" lon="11.198009"><ele>118.0</ele><time>2026-04-04T17:16:27.285Z</time></trkpt><trkpt lat="44.4529276" lon="11.1979299"><ele>118.0</ele><time>2026-04-04T17:16:28.285Z</time></trkpt><trkpt lat="44.4527453" lon="11.1977653"><ele>118.0</ele><time>2026-04-04T17:16:29.285Z</time></trkpt><trkpt lat="44.4526296" lon="11.1976755"><ele>118.0</ele><time>2026-04-04T17:16:30.285Z</time></trkpt><trkpt lat="44.4525157" lon="11.1975837"><ele>118.0</ele><time>2026-04-04T17:16:31.285Z</time></trkpt><trkpt lat="44.4524244" lon="11.1975108"><ele>118.0</ele><time>2026-04-04T17:16:32.286Z</time></trkpt><trkpt lat="44.4523466" lon="11.1974349"><ele>118.00000000000001</ele><time>2026-04-04T17:16:33.285Z</time></trkpt><trkpt lat="44.4523027" lon="11.1973682"><ele>118.0</ele><time>2026-04-04T17:16:34.285Z</time></trkpt><trkpt lat="44.4522938" lon="11.1971905"><ele>118.0</ele><time>2026-04-04T17:16:36.285Z</time></trkpt><trkpt lat="44.4523144" lon="11.1970784"><ele>118.0</ele><time>2026-04-04T17:16:37.286Z</time></trkpt><trkpt lat="44.4523363" lon="11.1969702"><ele>118.00000000000001</ele><time>2026-04-04T17:16:38.285Z</time></trkpt><trkpt lat="44.4523894" lon="11.1968998"><ele>118.0</ele><time>2026-04-04T17:16:39.285Z</time></trkpt><trkpt lat="44.4524293" lon="11.1968106"><ele>118.00000000000001</ele><time>2026-04-04T17:16:40.286Z</time></trkpt><trkpt lat="44.4524587" lon="11.1967319"><ele>118.0</ele><time>2026-04-04T17:16:41.285Z</time></trkpt><trkpt lat="44.4524642" lon="11.1965882"><ele>118.0</ele><time>2026-04-04T17:16:43.285Z</time></trkpt><trkpt lat="44.452392" lon="11.1964707"><ele>118.0</ele><time>2026-04-04T17:16:45.285Z</time></trkpt><trkpt lat="44.4523431" lon="11.1963995"><ele>118.00000000000001</ele><time>2026-04-04T17:16:46.285Z</time></trkpt><trkpt lat="44.4522764" lon="11.196309"><ele>118.0</ele><time>2026-04-04T17:16:47.285Z</time></trkpt><trkpt lat="44.4522283" lon="11.1962411"><ele>118.16666666666667</ele><time>2026-04-04T17:16:48.286Z</time></trkpt><trkpt lat="44.4521665" lon="11.1961777"><ele>118.33333333333334</ele><time>2026-04-04T17:16:49.285Z</time></trkpt><trkpt lat="44.4520936" lon="11.1961283"><ele>118.5</ele><time>2026-04-04T17:16:50.285Z</time></trkpt><trkpt lat="44.4520124" lon="11.1960764"><ele>118.66666666666666</ele><time>2026-04-04T17:16:51.285Z</time></trkpt><trkpt lat="44.4519219" lon="11.1960244"><ele>118.83333333333333</ele><time>2026-04-04T17:16:52.285Z</time></trkpt><trkpt lat="44.4518437" lon="11.1959696"><ele>119.0</ele><time>2026-04-04T17:16:53.285Z</time></trkpt><trkpt lat="44.4517683" lon="11.1959221"><ele>119.0</ele><time>2026-04-04T17:16:54.285Z</time></trkpt><trkpt lat="44.4517007" lon="11.1958815"><ele>119.0</ele><time>2026-04-04T17:16:55.285Z</time></trkpt><trkpt lat="44.4516351" lon="11.1958504"><ele>119.0</ele><time>2026-04-04T17:16:56.285Z</time></trkpt><trkpt lat="44.4515679" lon="11.1958177"><ele>119.0</ele><time>2026-04-04T17:16:57.285Z</time></trkpt><trkpt lat="44.4515026" lon="11.1957796"><ele>119.0</ele><time>2026-04-04T17:16:58.285Z</time></trkpt><trkpt lat="44.4514341" lon="11.1957464"><ele>119.0</ele><time>2026-04-04T17:16:59.286Z</time></trkpt><trkpt lat="44.4513641" lon="11.1956937"><ele>119.0</ele><time>2026-04-04T17:17:00.285Z</time></trkpt><trkpt lat="44.4512958" lon="11.1956297"><ele>119.66666666666666</ele><time>2026-04-04T17:17:01.285Z</time></trkpt><trkpt lat="44.451221" lon="11.1955906"><ele>120.33333333333333</ele><time>2026-04-04T17:17:02.286Z</time></trkpt><trkpt lat="44.4511481" lon="11.1955547"><ele>121.0</ele><time>2026-04-04T17:17:03.285Z</time></trkpt><trkpt lat="44.4510801" lon="11.1955195"><ele>121.66666666666666</ele><time>2026-04-04T17:17:04.285Z</time></trkpt><trkpt lat="44.4510155" lon="11.1954913"><ele>122.33333333333333</ele><time>2026-04-04T17:17:05.285Z</time></trkpt><trkpt lat="44.4509292" lon="11.1954389"><ele>123.0</ele><time>2026-04-04T17:17:07.285Z</time></trkpt><trkpt lat="44.4508563" lon="11.1953999"><ele>123.0</ele><time>2026-04-04T17:17:09.285Z</time></trkpt><trkpt lat="44.4507844" lon="11.1953713"><ele>123.0</ele><time>2026-04-04T17:17:11.285Z</time></trkpt><trkpt lat="44.4506941" lon="11.1953041"><ele>123.0</ele><time>2026-04-04T17:17:14.285Z</time></trkpt><trkpt lat="44.4506327" lon="11.1952705"><ele>123.0</ele><time>2026-04-04T17:17:16.285Z</time></trkpt><trkpt lat="44.4505603" lon="11.195189"><ele>123.0</ele><time>2026-04-04T17:17:19.285Z</time></trkpt><trkpt lat="44.4505595" lon="11.1950379"><ele>123.0</ele><time>2026-04-04T17:17:21.285Z</time></trkpt><trkpt lat="44.4505829" lon="11.1949549"><ele>123.00000000000001</ele><time>2026-04-04T17:17:22.285Z</time></trkpt><trkpt lat="44.4506132" lon="11.1948695"><ele>123.0</ele><time>2026-04-04T17:17:23.285Z</time></trkpt><trkpt lat="44.450644" lon="11.1947799"><ele>123.00000000000001</ele><time>2026-04-04T17:17:24.285Z</time></trkpt><trkpt lat="44.4506716" lon="11.1946803"><ele>123.00000000000001</ele><time>2026-04-04T17:17:25.285Z</time></trkpt><trkpt lat="44.4507036" lon="11.1945776"><ele>123.0</ele><time>2026-04-04T17:17:26.285Z</time></trkpt><trkpt lat="44.4507359" lon="11.1944764"><ele>123.00000000000001</ele><time>2026-04-04T17:17:27.285Z</time></trkpt><trkpt lat="44.4507651" lon="11.1943865"><ele>123.00000000000001</ele><time>2026-04-04T17:17:28.285Z</time></trkpt><trkpt lat="44.4507948" lon="11.1943086"><ele>123.60000000000001</ele><time>2026-04-04T17:17:29.285Z</time></trkpt><trkpt lat="44.4508531" lon="11.194271"><ele>124.20000000000002</ele><time>2026-04-04T17:17:30.285Z</time></trkpt><trkpt lat="44.4510063" lon="11.1942672"><ele>124.8</ele><time>2026-04-04T17:17:32.286Z</time></trkpt><trkpt lat="44.4511051" lon="11.1943497"><ele>125.4</ele><time>2026-04-04T17:17:33.285Z</time></trkpt><trkpt lat="44.4512115" lon="11.1944155"><ele>126.0</ele><time>2026-04-04T17:17:34.286Z</time></trkpt><trkpt lat="44.4513187" lon="11.1944797"><ele>126.75</ele><time>2026-04-04T17:17:35.285Z</time></trkpt><trkpt lat="44.4514263" lon="11.1945483"><ele>127.5</ele><time>2026-04-04T17:17:36.285Z</time></trkpt><trkpt lat="44.4515328" lon="11.19462"><ele>128.25</ele><time>2026-04-04T17:17:37.285Z</time></trkpt><trkpt lat="44.451644" lon="11.1946878"><ele>129.0</ele><time>2026-04-04T17:17:38.285Z</time></trkpt><trkpt lat="44.4517522" lon="11.1947532"><ele>129.0</ele><time>2026-04-04T17:17:39.285Z</time></trkpt><trkpt lat="44.4518554" lon="11.1948171"><ele>129.0</ele><time>2026-04-04T17:17:40.285Z</time></trkpt><trkpt lat="44.4519574" lon="11.1948876"><ele>129.0</ele><time>2026-04-04T17:17:41.285Z</time></trkpt><trkpt lat="44.4520621" lon="11.1949506"><ele>129.0</ele><time>2026-04-04T17:17:42.285Z</time></trkpt><trkpt lat="44.4521629" lon="11.1950181"><ele>128.4</ele><time>2026-04-04T17:17:43.285Z</time></trkpt><trkpt lat="44.4522634" lon="11.1950843"><ele>127.80000000000001</ele><time>2026-04-04T17:17:44.285Z</time></trkpt><trkpt lat="44.452364" lon="11.1951463"><ele>127.19999999999999</ele><time>2026-04-04T17:17:45.286Z</time></trkpt><trkpt lat="44.4524603" lon="11.1952048"><ele>126.6</ele><time>2026-04-04T17:17:46.285Z</time></trkpt><trkpt lat="44.4525569" lon="11.1952649"><ele>126.0</ele><time>2026-04-04T17:17:47.285Z</time></trkpt><trkpt lat="44.4526545" lon="11.1953256"><ele>126.0</ele><time>2026-04-04T17:17:48.285Z</time></trkpt><trkpt lat="44.4527564" lon="11.1953936"><ele>126.0</ele><time>2026-04-04T17:17:49.285Z</time></trkpt><trkpt lat="44.4528573" lon="11.1954586"><ele>126.0</ele><time>2026-04-04T17:17:50.285Z</time></trkpt><trkpt lat="44.4529574" lon="11.1955211"><ele>126.0</ele><time>2026-04-04T17:17:51.285Z</time></trkpt><trkpt lat="44.453056" lon="11.1955916"><ele>126.0</ele><time>2026-04-04T17:17:52.285Z</time></trkpt><trkpt lat="44.4531543" lon="11.1956581"><ele>125.19999999999999</ele><time>2026-04-04T17:17:53.285Z</time></trkpt><trkpt lat="44.4532457" lon="11.1957193"><ele>124.39999999999999</ele><time>2026-04-04T17:17:54.285Z</time></trkpt><trkpt lat="44.4533405" lon="11.1957855"><ele>123.6</ele><time>2026-04-04T17:17:55.285Z</time></trkpt><trkpt lat="44.4534331" lon="11.1958614"><ele>122.8</ele><time>2026-04-04T17:17:56.285Z</time></trkpt><trkpt lat="44.4535286" lon="11.195935"><ele>122.0</ele><time>2026-04-04T17:17:57.285Z</time></trkpt><trkpt lat="44.4536247" lon="11.1960133"><ele>122.0</ele><time>2026-04-04T17:17:58.285Z</time></trkpt><trkpt lat="44.4537191" lon="11.1960938"><ele>122.0</ele><time>2026-04-04T17:17:59.285Z</time></trkpt><trkpt lat="44.453813" lon="11.1961787"><ele>122.0</ele><time>2026-04-04T17:18:00.286Z</time></trkpt><trkpt lat="44.453906" lon="11.1962694"><ele>122.0</ele><time>2026-04-04T17:18:01.285Z</time></trkpt><trkpt lat="44.454086" lon="11.1964656"><ele>121.0</ele><time>2026-04-04T17:18:03.285Z</time></trkpt><trkpt lat="44.4541784" lon="11.1965666"><ele>120.0</ele><time>2026-04-04T17:18:04.285Z</time></trkpt><trkpt lat="44.4542701" lon="11.1966708"><ele>119.0</ele><time>2026-04-04T17:18:05.285Z</time></trkpt><trkpt lat="44.4543648" lon="11.1967706"><ele>118.0</ele><time>2026-04-04T17:18:06.285Z</time></trkpt><trkpt lat="44.4544544" lon="11.1968682"><ele>118.0</ele><time>2026-04-04T17:18:07.285Z</time></trkpt><trkpt lat="44.4545443" lon="11.1969656"><ele>118.00000000000001</ele><time>2026-04-04T17:18:08.286Z</time></trkpt><trkpt lat="44.4546313" lon="11.197062"><ele>118.00000000000001</ele><time>2026-04-04T17:18:09.285Z</time></trkpt><trkpt lat="44.4547186" lon="11.1971539"><ele>118.0</ele><time>2026-04-04T17:18:10.285Z</time></trkpt><trkpt lat="44.4548018" lon="11.1972452"><ele>118.0</ele><time>2026-04-04T17:18:11.285Z</time></trkpt><trkpt lat="44.4548871" lon="11.1973336"><ele>117.5</ele><time>2026-04-04T17:18:12.285Z</time></trkpt><trkpt lat="44.454979" lon="11.1974275"><ele>117.0</ele><time>2026-04-04T17:18:13.285Z</time></trkpt><trkpt lat="44.4550755" lon="11.1975314"><ele>116.5</ele><time>2026-04-04T17:18:14.285Z</time></trkpt><trkpt lat="44.4551704" lon="11.1976402"><ele>116.0</ele><time>2026-04-04T17:18:15.285Z</time></trkpt><trkpt lat="44.455274" lon="11.1977502"><ele>116.0</ele><time>2026-04-04T17:18:16.285Z</time></trkpt><trkpt lat="44.4553751" lon="11.1978569"><ele>116.0</ele><time>2026-04-04T17:18:17.285Z</time></trkpt><trkpt lat="44.4554816" lon="11.1979671"><ele>116.0</ele><time>2026-04-04T17:18:18.286Z</time></trkpt><trkpt lat="44.4555853" lon="11.1980711"><ele>116.0</ele><time>2026-04-04T17:18:19.285Z</time></trkpt><trkpt lat="44.4556821" lon="11.1981728"><ele>115.5</ele><time>2026-04-04T17:18:20.285Z</time></trkpt><trkpt lat="44.4557809" lon="11.1982754"><ele>115.0</ele><time>2026-04-04T17:18:21.285Z</time></trkpt><trkpt lat="44.4558773" lon="11.1983748"><ele>114.5</ele><time>2026-04-04T17:18:22.285Z</time></trkpt><trkpt lat="44.455974" lon="11.1984723"><ele>114.0</ele><time>2026-04-04T17:18:23.285Z</time></trkpt><trkpt lat="44.4560747" lon="11.1985793"><ele>114.0</ele><time>2026-04-04T17:18:24.285Z</time></trkpt><trkpt lat="44.45619" lon="11.1986913"><ele>114.0</ele><time>2026-04-04T17:18:25.285Z</time></trkpt><trkpt lat="44.4563121" lon="11.1988103"><ele>114.0</ele><time>2026-04-04T17:18:26.286Z</time></trkpt><trkpt lat="44.4564411" lon="11.1989393"><ele>114.0</ele><time>2026-04-04T17:18:27.285Z</time></trkpt><trkpt lat="44.4565745" lon="11.1990764"><ele>113.66666666666666</ele><time>2026-04-04T17:18:28.286Z</time></trkpt><trkpt lat="44.4567083" lon="11.1992205"><ele>113.33333333333333</ele><time>2026-04-04T17:18:29.285Z</time></trkpt><trkpt lat="44.4568368" lon="11.1993607"><ele>113.0</ele><time>2026-04-04T17:18:30.286Z</time></trkpt><trkpt lat="44.456957" lon="11.1995147"><ele>113.0</ele><time>2026-04-04T17:18:31.285Z</time></trkpt><trkpt lat="44.4570946" lon="11.1996332"><ele>113.0</ele><time>2026-04-04T17:18:32.285Z</time></trkpt><trkpt lat="44.4572243" lon="11.1997543"><ele>113.0</ele><time>2026-04-04T17:18:33.285Z</time></trkpt><trkpt lat="44.4573512" lon="11.1998533"><ele>112.25</ele><time>2026-04-04T17:18:34.285Z</time></trkpt><trkpt lat="44.4574907" lon="11.1999092"><ele>111.5</ele><time>2026-04-04T17:18:35.285Z</time></trkpt><trkpt lat="44.4576421" lon="11.1999302"><ele>110.75</ele><time>2026-04-04T17:18:36.285Z</time></trkpt><trkpt lat="44.4577733" lon="11.1999407"><ele>110.0</ele><time>2026-04-04T17:18:37.285Z</time></trkpt><trkpt lat="44.4578989" lon="11.1999535"><ele>110.0</ele><time>2026-04-04T17:18:38.285Z</time></trkpt><trkpt lat="44.4580268" lon="11.1999557"><ele>110.0</ele><time>2026-04-04T17:18:39.285Z</time></trkpt><trkpt lat="44.458168" lon="11.1999746"><ele>110.0</ele><time>2026-04-04T17:18:40.285Z</time></trkpt><trkpt lat="44.4583" lon="11.1999853"><ele>110.0</ele><time>2026-04-04T17:18:41.285Z</time></trkpt><trkpt lat="44.4584363" lon="11.2000039"><ele>110.0</ele><time>2026-04-04T17:18:42.286Z</time></trkpt><trkpt lat="44.4585678" lon="11.2000087"><ele>110.0</ele><time>2026-04-04T17:18:43.285Z</time></trkpt><trkpt lat="44.4587041" lon="11.20002"><ele>110.0</ele><time>2026-04-04T17:18:44.285Z</time></trkpt><trkpt lat="44.4588365" lon="11.2000228"><ele>110.0</ele><time>2026-04-04T17:18:45.285Z</time></trkpt><trkpt lat="44.4589718" lon="11.2000097"><ele>110.25</ele><time>2026-04-04T17:18:46.286Z</time></trkpt><trkpt lat="44.4591088" lon="11.1999756"><ele>110.5</ele><time>2026-04-04T17:18:47.286Z</time></trkpt><trkpt lat="44.4592431" lon="11.1999266"><ele>110.75</ele><time>2026-04-04T17:18:48.285Z</time></trkpt><trkpt lat="44.4593784" lon="11.1998691"><ele>111.0</ele><time>2026-04-04T17:18:49.285Z</time></trkpt><trkpt lat="44.4595041" lon="11.199804"><ele>110.0</ele><time>2026-04-04T17:18:50.285Z</time></trkpt><trkpt lat="44.4596376" lon="11.1997385"><ele>109.0</ele><time>2026-04-04T17:18:51.285Z</time></trkpt><trkpt lat="44.4597781" lon="11.1996734"><ele>108.0</ele><time>2026-04-04T17:18:52.285Z</time></trkpt><trkpt lat="44.4599157" lon="11.1996089"><ele>107.0</ele><time>2026-04-04T17:18:53.285Z</time></trkpt><trkpt lat="44.4600445" lon="11.1995399"><ele>107.0</ele><time>2026-04-04T17:18:54.285Z</time></trkpt><trkpt lat="44.4601773" lon="11.199469"><ele>107.0</ele><time>2026-04-04T17:18:55.285Z</time></trkpt><trkpt lat="44.4603021" lon="11.1993887"><ele>107.0</ele><time>2026-04-04T17:18:56.285Z</time></trkpt><trkpt lat="44.4604302" lon="11.1993022"><ele>107.0</ele><time>2026-04-04T17:18:57.285Z</time></trkpt><trkpt lat="44.4605425" lon="11.199205"><ele>107.5</ele><time>2026-04-04T17:18:58.285Z</time></trkpt><trkpt lat="44.4606583" lon="11.1991041"><ele>108.0</ele><time>2026-04-04T17:18:59.285Z</time></trkpt><trkpt lat="44.460773" lon="11.1990074"><ele>108.5</ele><time>2026-04-04T17:19:00.285Z</time></trkpt><trkpt lat="44.4608889" lon="11.1989152"><ele>109.0</ele><time>2026-04-04T17:19:01.285Z</time></trkpt><trkpt lat="44.4610079" lon="11.1988242"><ele>108.75</ele><time>2026-04-04T17:19:02.285Z</time></trkpt><trkpt lat="44.4611243" lon="11.198743"><ele>108.5</ele><time>2026-04-04T17:19:03.285Z</time></trkpt><trkpt lat="44.4612649" lon="11.198686"><ele>108.25</ele><time>2026-04-04T17:19:04.285Z</time></trkpt><trkpt lat="44.4614128" lon="11.1986379"><ele>108.0</ele><time>2026-04-04T17:19:05.285Z</time></trkpt><trkpt lat="44.4615709" lon="11.1986035"><ele>108.0</ele><time>2026-04-04T17:19:06.285Z</time></trkpt><trkpt lat="44.4617283" lon="11.1985633"><ele>108.0</ele><time>2026-04-04T17:19:07.285Z</time></trkpt><trkpt lat="44.4618834" lon="11.1985268"><ele>108.0</ele><time>2026-04-04T17:19:08.285Z</time></trkpt><trkpt lat="44.462027" lon="11.1984931"><ele>108.5</ele><time>2026-04-04T17:19:09.285Z</time></trkpt><trkpt lat="44.4621656" lon="11.1984558"><ele>109.0</ele><time>2026-04-04T17:19:10.285Z</time></trkpt><trkpt lat="44.4623006" lon="11.1984252"><ele>109.5</ele><time>2026-04-04T17:19:11.285Z</time></trkpt><trkpt lat="44.4624352" lon="11.1983945"><ele>110.0</ele><time>2026-04-04T17:19:12.285Z</time></trkpt><trkpt lat="44.462567" lon="11.198366"><ele>110.0</ele><time>2026-04-04T17:19:13.285Z</time></trkpt><trkpt lat="44.4626924" lon="11.1983355"><ele>110.0</ele><time>2026-04-04T17:19:14.285Z</time></trkpt><trkpt lat="44.462815" lon="11.1983092"><ele>110.0</ele><time>2026-04-04T17:19:15.285Z</time></trkpt><trkpt lat="44.4629308" lon="11.1982821"><ele>110.0</ele><time>2026-04-04T17:19:16.285Z</time></trkpt><trkpt lat="44.4630433" lon="11.19826"><ele>109.8</ele><time>2026-04-04T17:19:17.285Z</time></trkpt><trkpt lat="44.4631517" lon="11.198255"><ele>109.6</ele><time>2026-04-04T17:19:18.285Z</time></trkpt><trkpt lat="44.4632537" lon="11.1982566"><ele>109.4</ele><time>2026-04-04T17:19:19.285Z</time></trkpt><trkpt lat="44.4633514" lon="11.1982578"><ele>109.2</ele><time>2026-04-04T17:19:20.285Z</time></trkpt><trkpt lat="44.46345" lon="11.1982856"><ele>109.0</ele><time>2026-04-04T17:19:21.285Z</time></trkpt><trkpt lat="44.4635375" lon="11.1983493"><ele>109.0</ele><time>2026-04-04T17:19:22.285Z</time></trkpt><trkpt lat="44.4636065" lon="11.1984498"><ele>109.0</ele><time>2026-04-04T17:19:23.285Z</time></trkpt><trkpt lat="44.4636576" lon="11.1985867"><ele>109.0</ele><time>2026-04-04T17:19:24.285Z</time></trkpt><trkpt lat="44.4636947" lon="11.1987891"><ele>109.0</ele><time>2026-04-04T17:19:25.285Z</time></trkpt><trkpt lat="44.4637389" lon="11.1989715"><ele>107.5</ele><time>2026-04-04T17:19:26.285Z</time></trkpt><trkpt lat="44.4637706" lon="11.1991523"><ele>106.0</ele><time>2026-04-04T17:19:27.285Z</time></trkpt><trkpt lat="44.4638071" lon="11.1993671"><ele>104.5</ele><time>2026-04-04T17:19:28.285Z</time></trkpt><trkpt lat="44.4638332" lon="11.1995592"><ele>103.0</ele><time>2026-04-04T17:19:29.285Z</time></trkpt><trkpt lat="44.4638563" lon="11.1997157"><ele>103.0</ele><time>2026-04-04T17:19:30.285Z</time></trkpt><trkpt lat="44.463929" lon="11.1998609"><ele>103.0</ele><time>2026-04-04T17:19:31.285Z</time></trkpt><trkpt lat="44.464017" lon="11.1999706"><ele>103.0</ele><time>2026-04-04T17:19:32.285Z</time></trkpt><trkpt lat="44.464115" lon="11.2000536"><ele>103.0</ele><time>2026-04-04T17:19:33.285Z</time></trkpt><trkpt lat="44.4642154" lon="11.200068"><ele>103.0</ele><time>2026-04-04T17:19:34.285Z</time></trkpt><trkpt lat="44.4643086" lon="11.2000492"><ele>103.0</ele><time>2026-04-04T17:19:35.285Z</time></trkpt><trkpt lat="44.4643968" lon="11.1999768"><ele>103.0</ele><time>2026-04-04T17:19:36.285Z</time></trkpt><trkpt lat="44.4644659" lon="11.1998532"><ele>103.0</ele><time>2026-04-04T17:19:37.286Z</time></trkpt><trkpt lat="44.4645127" lon="11.1996894"><ele>103.0</ele><time>2026-04-04T17:19:38.285Z</time></trkpt><trkpt lat="44.4645613" lon="11.1995365"><ele>103.00000000000001</ele><time>2026-04-04T17:19:39.285Z</time></trkpt><trkpt lat="44.4646083" lon="11.1994065"><ele>103.0</ele><time>2026-04-04T17:19:40.285Z</time></trkpt><trkpt lat="44.4646481" lon="11.1992899"><ele>103.0</ele><time>2026-04-04T17:19:41.285Z</time></trkpt><trkpt lat="44.4646838" lon="11.1991903"><ele>103.0</ele><time>2026-04-04T17:19:42.285Z</time></trkpt><trkpt lat="44.464717" lon="11.1990997"><ele>103.00000000000001</ele><time>2026-04-04T17:19:43.286Z</time></trkpt><trkpt lat="44.4647408" lon="11.199012"><ele>103.0</ele><time>2026-04-04T17:19:44.285Z</time></trkpt><trkpt lat="44.4647777" lon="11.1989225"><ele>103.83333333333334</ele><time>2026-04-04T17:19:45.285Z</time></trkpt><trkpt lat="44.4648129" lon="11.1988384"><ele>104.66666666666667</ele><time>2026-04-04T17:19:46.285Z</time></trkpt><trkpt lat="44.4648487" lon="11.198743"><ele>105.5</ele><time>2026-04-04T17:19:47.285Z</time></trkpt><trkpt lat="44.464883" lon="11.1986442"><ele>106.33333333333334</ele><time>2026-04-04T17:19:48.285Z</time></trkpt><trkpt lat="44.4649202" lon="11.1985374"><ele>107.16666666666667</ele><time>2026-04-04T17:19:49.285Z</time></trkpt><trkpt lat="44.4649562" lon="11.1984213"><ele>108.0</ele><time>2026-04-04T17:19:50.285Z</time></trkpt><trkpt lat="44.4649971" lon="11.1983033"><ele>109.0</ele><time>2026-04-04T17:19:51.285Z</time></trkpt><trkpt lat="44.4650474" lon="11.1981588"><ele>110.0</ele><time>2026-04-04T17:19:52.285Z</time></trkpt><trkpt lat="44.4650982" lon="11.1980079"><ele>111.0</ele><time>2026-04-04T17:19:53.286Z</time></trkpt><trkpt lat="44.4651498" lon="11.1978641"><ele>112.0</ele><time>2026-04-04T17:19:54.285Z</time></trkpt><trkpt lat="44.4652035" lon="11.197719"><ele>112.0</ele><time>2026-04-04T17:19:55.285Z</time></trkpt><trkpt lat="44.4652729" lon="11.1975988"><ele>111.99999999999999</ele><time>2026-04-04T17:19:56.285Z</time></trkpt><trkpt lat="44.4653443" lon="11.1974883"><ele>111.99999999999999</ele><time>2026-04-04T17:19:57.285Z</time></trkpt><trkpt lat="44.4654127" lon="11.1973861"><ele>112.0</ele><time>2026-04-04T17:19:58.285Z</time></trkpt><trkpt lat="44.465482" lon="11.19729"><ele>112.0</ele><time>2026-04-04T17:19:59.285Z</time></trkpt><trkpt lat="44.4655587" lon="11.1971906"><ele>109.8</ele><time>2026-04-04T17:20:00.285Z</time></trkpt><trkpt lat="44.4656406" lon="11.1970884"><ele>107.6</ele><time>2026-04-04T17:20:01.286Z</time></trkpt><trkpt lat="44.4657329" lon="11.1969925"><ele>105.39999999999999</ele><time>2026-04-04T17:20:02.285Z</time></trkpt><trkpt lat="44.4658198" lon="11.196901"><ele>103.19999999999999</ele><time>2026-04-04T17:20:03.285Z</time></trkpt><trkpt lat="44.4659032" lon="11.1968111"><ele>101.0</ele><time>2026-04-04T17:20:04.285Z</time></trkpt><trkpt lat="44.4659828" lon="11.196722"><ele>101.0</ele><time>2026-04-04T17:20:05.285Z</time></trkpt><trkpt lat="44.4660598" lon="11.1966315"><ele>101.0</ele><time>2026-04-04T17:20:06.285Z</time></trkpt><trkpt lat="44.4661519" lon="11.1965202"><ele>101.0</ele><time>2026-04-04T17:20:07.285Z</time></trkpt><trkpt lat="44.4662607" lon="11.1963804"><ele>101.0</ele><time>2026-04-04T17:20:08.285Z</time></trkpt><trkpt lat="44.4663775" lon="11.1962314"><ele>101.0</ele><time>2026-04-04T17:20:09.285Z</time></trkpt><trkpt lat="44.466497" lon="11.1960933"><ele>101.0</ele><time>2026-04-04T17:20:10.285Z</time></trkpt><trkpt lat="44.4666155" lon="11.19597"><ele>101.0</ele><time>2026-04-04T17:20:11.285Z</time></trkpt><trkpt lat="44.4667338" lon="11.1958561"><ele>101.0</ele><time>2026-04-04T17:20:12.285Z</time></trkpt><trkpt lat="44.4668341" lon="11.1957576"><ele>101.6</ele><time>2026-04-04T17:20:13.285Z</time></trkpt><trkpt lat="44.4669225" lon="11.195651"><ele>102.19999999999999</ele><time>2026-04-04T17:20:14.285Z</time></trkpt><trkpt lat="44.4669957" lon="11.1955402"><ele>102.80000000000001</ele><time>2026-04-04T17:20:15.285Z</time></trkpt><trkpt lat="44.4670604" lon="11.1954295"><ele>103.4</ele><time>2026-04-04T17:20:16.285Z</time></trkpt><trkpt lat="44.4670485" lon="11.1952596"><ele>104.0</ele><time>2026-04-04T17:20:17.285Z</time></trkpt><trkpt lat="44.4670354" lon="11.1951086"><ele>104.0</ele><time>2026-04-04T17:20:18.285Z</time></trkpt><trkpt lat="44.4670131" lon="11.1948787"><ele>104.0</ele><time>2026-04-04T17:20:19.285Z</time></trkpt><trkpt lat="44.4669423" lon="11.1946488"><ele>104.0</ele><time>2026-04-04T17:20:20.285Z</time></trkpt><trkpt lat="44.4668268" lon="11.1942849"><ele>107.0</ele><time>2026-04-04T17:20:21.285Z</time></trkpt><trkpt lat="44.466738" lon="11.1939836"><ele>110.0</ele><time>2026-04-04T17:20:22.286Z</time></trkpt><trkpt lat="44.4666225" lon="11.1936699"><ele>110.0</ele><time>2026-04-04T17:20:23.285Z</time></trkpt><trkpt lat="44.4664939" lon="11.1933813"><ele>110.0</ele><time>2026-04-04T17:20:24.285Z</time></trkpt><trkpt lat="44.466369" lon="11.1931093"><ele>109.66666666666666</ele><time>2026-04-04T17:20:25.285Z</time></trkpt><trkpt lat="44.4662563" lon="11.1928472"><ele>109.33333333333334</ele><time>2026-04-04T17:20:26.285Z</time></trkpt><trkpt lat="44.4661474" lon="11.1926058"><ele>109.0</ele><time>2026-04-04T17:20:27.285Z</time></trkpt><trkpt lat="44.4660465" lon="11.192374"><ele>110.0</ele><time>2026-04-04T17:20:28.285Z</time></trkpt><trkpt lat="44.4659409" lon="11.1921437"><ele>111.0</ele><time>2026-04-04T17:20:29.286Z</time></trkpt><trkpt lat="44.4658306" lon="11.1919412"><ele>112.0</ele><time>2026-04-04T17:20:30.285Z</time></trkpt><trkpt lat="44.4657099" lon="11.1917555"><ele>112.0</ele><time>2026-04-04T17:20:31.285Z</time></trkpt><trkpt lat="44.4655817" lon="11.1915788"><ele>112.0</ele><time>2026-04-04T17:20:32.285Z</time></trkpt><trkpt lat="44.4654685" lon="11.1913792"><ele>112.0</ele><time>2026-04-04T17:20:33.286Z</time></trkpt><trkpt lat="44.4653669" lon="11.1911377"><ele>112.0</ele><time>2026-04-04T17:20:34.285Z</time></trkpt><trkpt lat="44.4652999" lon="11.1908684"><ele>112.0</ele><time>2026-04-04T17:20:35.285Z</time></trkpt><trkpt lat="44.4652428" lon="11.1906121"><ele>112.0</ele><time>2026-04-04T17:20:36.285Z</time></trkpt><trkpt lat="44.4652205" lon="11.1903455"><ele>112.0</ele><time>2026-04-04T17:20:37.285Z</time></trkpt><trkpt lat="44.4652213" lon="11.1900368"><ele>112.0</ele><time>2026-04-04T17:20:38.285Z</time></trkpt><trkpt lat="44.4651854" lon="11.1897618"><ele>112.0</ele><time>2026-04-04T17:20:39.285Z</time></trkpt><trkpt lat="44.4650883" lon="11.1895014"><ele>112.66666666666667</ele><time>2026-04-04T17:20:40.285Z</time></trkpt><trkpt lat="44.4650058" lon="11.1892468"><ele>113.33333333333334</ele><time>2026-04-04T17:20:41.285Z</time></trkpt><trkpt lat="44.4649216" lon="11.1889911"><ele>114.0</ele><time>2026-04-04T17:20:42.285Z</time></trkpt><trkpt lat="44.4648371" lon="11.1887339"><ele>116.33333333333334</ele><time>2026-04-04T17:20:43.285Z</time></trkpt><trkpt lat="44.4647527" lon="11.1884884"><ele>118.66666666666667</ele><time>2026-04-04T17:20:44.285Z</time></trkpt><trkpt lat="44.4646762" lon="11.1882383"><ele>121.0</ele><time>2026-04-04T17:20:45.285Z</time></trkpt><trkpt lat="44.4646764" lon="11.1879932"><ele>120.66666666666667</ele><time>2026-04-04T17:20:46.285Z</time></trkpt><trkpt lat="44.464647" lon="11.1877322"><ele>120.33333333333334</ele><time>2026-04-04T17:20:47.285Z</time></trkpt><trkpt lat="44.4646447" lon="11.1874765"><ele>120.0</ele><time>2026-04-04T17:20:48.285Z</time></trkpt><trkpt lat="44.4646651" lon="11.1871956"><ele>120.0</ele><time>2026-04-04T17:20:49.285Z</time></trkpt><trkpt lat="44.4647657" lon="11.18691"><ele>120.0</ele><time>2026-04-04T17:20:50.285Z</time></trkpt><trkpt lat="44.4649192" lon="11.1867732"><ele>120.0</ele><time>2026-04-04T17:20:51.285Z</time></trkpt><trkpt lat="44.4649769" lon="11.1865472"><ele>120.25</ele><time>2026-04-04T17:20:52.285Z</time></trkpt><trkpt lat="44.4650386" lon="11.1863269"><ele>120.5</ele><time>2026-04-04T17:20:53.286Z</time></trkpt><trkpt lat="44.4650429" lon="11.1861414"><ele>120.75</ele><time>2026-04-04T17:20:54.285Z</time></trkpt><trkpt lat="44.4650353" lon="11.1859763"><ele>121.0</ele><time>2026-04-04T17:20:55.285Z</time></trkpt><trkpt lat="44.4649895" lon="11.1858497"><ele>121.00000000000001</ele><time>2026-04-04T17:20:56.285Z</time></trkpt><trkpt lat="44.464968" lon="11.185698"><ele>121.0</ele><time>2026-04-04T17:20:57.285Z</time></trkpt><trkpt lat="44.4649444" lon="11.1855625"><ele>121.0</ele><time>2026-04-04T17:20:58.285Z</time></trkpt><trkpt lat="44.4649305" lon="11.1854553"><ele>121.0</ele><time>2026-04-04T17:20:59.286Z</time></trkpt><trkpt lat="44.4649193" lon="11.1853462"><ele>121.00000000000001</ele><time>2026-04-04T17:21:00.285Z</time></trkpt><trkpt lat="44.4649126" lon="11.1852538"><ele>121.0</ele><time>2026-04-04T17:21:01.285Z</time></trkpt><trkpt lat="44.4649025" lon="11.185368"><ele>121.00000000000001</ele><time>2026-04-04T17:21:05.285Z</time></trkpt><trkpt lat="44.4649234" lon="11.1854997"><ele>121.0</ele><time>2026-04-04T17:21:06.286Z</time></trkpt><trkpt lat="44.4649369" lon="11.1856328"><ele>121.0</ele><time>2026-04-04T17:21:07.285Z</time></trkpt><trkpt lat="44.4649557" lon="11.1857496"><ele>121.0</ele><time>2026-04-04T17:21:08.285Z</time></trkpt><trkpt lat="44.4649756" lon="11.1858374"><ele>121.00000000000001</ele><time>2026-04-04T17:21:09.285Z</time></trkpt><trkpt lat="44.4649951" lon="11.1859278"><ele>121.0</ele><time>2026-04-04T17:21:53.285Z</time></trkpt><trkpt lat="44.4650002" lon="11.1858306"><ele>120.75</ele><time>2026-04-04T17:21:56.285Z</time></trkpt><trkpt lat="44.4649649" lon="11.1856581"><ele>120.5</ele><time>2026-04-04T17:21:58.285Z</time></trkpt><trkpt lat="44.4649419" lon="11.1854991"><ele>120.25</ele><time>2026-04-04T17:21:59.285Z</time></trkpt><trkpt lat="44.464922" lon="11.1853281"><ele>120.0</ele><time>2026-04-04T17:22:00.285Z</time></trkpt><trkpt lat="44.4649128" lon="11.1851388"><ele>120.0</ele><time>2026-04-04T17:22:01.285Z</time></trkpt><trkpt lat="44.4649096" lon="11.1849875"><ele>120.0</ele><time>2026-04-04T17:22:02.285Z</time></trkpt><trkpt lat="44.4648767" lon="11.1848425"><ele>120.0</ele><time>2026-04-04T17:22:04.285Z</time></trkpt><trkpt lat="44.4647768" lon="11.1848006"><ele>120.0</ele><time>2026-04-04T17:22:06.285Z</time></trkpt><trkpt lat="44.4646672" lon="11.1848029"><ele>120.0</ele><time>2026-04-04T17:22:08.285Z</time></trkpt><trkpt lat="44.4645681" lon="11.1847588"><ele>119.2</ele><time>2026-04-04T17:22:10.285Z</time></trkpt><trkpt lat="44.4645401" lon="11.184678"><ele>118.4</ele><time>2026-04-04T17:22:11.285Z</time></trkpt><trkpt lat="44.4645149" lon="11.1845829"><ele>117.6</ele><time>2026-04-04T17:22:12.285Z</time></trkpt><trkpt lat="44.4645183" lon="11.1843986"><ele>116.8</ele><time>2026-04-04T17:22:13.285Z</time></trkpt><trkpt lat="44.4645183" lon="11.1841538"><ele>116.0</ele><time>2026-04-04T17:22:14.285Z</time></trkpt><trkpt lat="44.4645086" lon="11.1839457"><ele>116.0</ele><time>2026-04-04T17:22:15.285Z</time></trkpt><trkpt lat="44.4644916" lon="11.1837509"><ele>116.0</ele><time>2026-04-04T17:22:16.285Z</time></trkpt><trkpt lat="44.4644719" lon="11.1835509"><ele>116.0</ele><time>2026-04-04T17:22:17.285Z</time></trkpt><trkpt lat="44.464466" lon="11.1833913"><ele>116.0</ele><time>2026-04-04T17:22:18.285Z</time></trkpt><trkpt lat="44.4644171" lon="11.1831346"><ele>116.33333333333333</ele><time>2026-04-04T17:22:20.285Z</time></trkpt><trkpt lat="44.4643951" lon="11.1830291"><ele>116.66666666666666</ele><time>2026-04-04T17:22:21.285Z</time></trkpt><trkpt lat="44.4643779" lon="11.182937"><ele>117.0</ele><time>2026-04-04T17:22:22.285Z</time></trkpt><trkpt lat="44.4643238" lon="11.1828525"><ele>117.33333333333334</ele><time>2026-04-04T17:22:24.285Z</time></trkpt><trkpt lat="44.4642531" lon="11.1828615"><ele>117.66666666666667</ele><time>2026-04-04T17:22:26.285Z</time></trkpt><trkpt lat="44.4641904" lon="11.1829119"><ele>118.0</ele><time>2026-04-04T17:22:28.285Z</time></trkpt><trkpt lat="44.4641079" lon="11.1829477"><ele>118.0</ele><time>2026-04-04T17:22:31.285Z</time></trkpt><trkpt lat="44.4641521" lon="11.1828806"><ele>118.00000000000001</ele><time>2026-04-04T17:25:22.285Z</time></trkpt><trkpt lat="44.4642352" lon="11.1828657"><ele>118.00000000000001</ele><time>2026-04-04T17:25:24.285Z</time></trkpt><trkpt lat="44.4643202" lon="11.1829138"><ele>118.0</ele><time>2026-04-04T17:25:26.285Z</time></trkpt><trkpt lat="44.4643773" lon="11.183059"><ele>118.0</ele><time>2026-04-04T17:25:28.286Z</time></trkpt><trkpt lat="44.4644083" lon="11.1831867"><ele>117.60000000000001</ele><time>2026-04-04T17:25:29.285Z</time></trkpt><trkpt lat="44.4644462" lon="11.1833363"><ele>117.20000000000002</ele><time>2026-04-04T17:25:30.285Z</time></trkpt><trkpt lat="44.4644623" lon="11.1834786"><ele>116.8</ele><time>2026-04-04T17:25:31.285Z</time></trkpt><trkpt lat="44.4644724" lon="11.1835993"><ele>116.4</ele><time>2026-04-04T17:25:32.285Z</time></trkpt><trkpt lat="44.4644714" lon="11.1836956"><ele>116.0</ele><time>2026-04-04T17:25:33.285Z</time></trkpt><trkpt lat="44.4644155" lon="11.1838236"><ele>116.0</ele><time>2026-04-04T17:25:35.285Z</time></trkpt><trkpt lat="44.4643334" lon="11.1838781"><ele>116.0</ele><time>2026-04-04T17:25:37.285Z</time></trkpt><trkpt lat="44.4642518" lon="11.1839141"><ele>116.0</ele><time>2026-04-04T17:25:39.285Z</time></trkpt><trkpt lat="44.4641614" lon="11.1839516"><ele>116.0</ele><time>2026-04-04T17:25:41.285Z</time></trkpt><trkpt lat="44.4640602" lon="11.1839879"><ele>116.0</ele><time>2026-04-04T17:25:43.286Z</time></trkpt><trkpt lat="44.4639731" lon="11.1840221"><ele>115.83333333333333</ele><time>2026-04-04T17:25:45.285Z</time></trkpt><trkpt lat="44.4638957" lon="11.1840564"><ele>115.66666666666666</ele><time>2026-04-04T17:25:47.285Z</time></trkpt><trkpt lat="44.4638264" lon="11.1841036"><ele>115.5</ele><time>2026-04-04T17:25:49.285Z</time></trkpt><trkpt lat="44.4637703" lon="11.184166"><ele>115.33333333333334</ele><time>2026-04-04T17:25:52.285Z</time></trkpt><trkpt lat="44.463724" lon="11.1842531"><ele>115.16666666666667</ele><time>2026-04-04T17:26:01.285Z</time></trkpt><trkpt lat="44.4637366" lon="11.1843781"><ele>115.0</ele><time>2026-04-04T17:26:06.285Z</time></trkpt><trkpt lat="44.4638022" lon="11.184451"><ele>115.00000000000001</ele><time>2026-04-04T17:26:10.285Z</time></trkpt><trkpt lat="44.4638425" lon="11.18436"><ele>115.0</ele><time>2026-04-04T17:26:14.285Z</time></trkpt><trkpt lat="44.4638303" lon="11.1842709"><ele>115.0</ele><time>2026-04-04T17:26:16.285Z</time></trkpt><trkpt lat="44.4638346" lon="11.1841793"><ele>115.0</ele><time>2026-04-04T17:26:18.286Z</time></trkpt><trkpt lat="44.4638974" lon="11.1841322"><ele>115.00000000000001</ele><time>2026-04-04T17:26:20.286Z</time></trkpt><trkpt lat="44.463975" lon="11.1840906"><ele>115.0</ele><time>2026-04-04T17:26:22.285Z</time></trkpt><trkpt lat="44.4640738" lon="11.1840511"><ele>115.2</ele><time>2026-04-04T17:26:24.285Z</time></trkpt><trkpt lat="44.464186" lon="11.184003"><ele>115.4</ele><time>2026-04-04T17:26:26.285Z</time></trkpt><trkpt lat="44.4642791" lon="11.1839631"><ele>115.6</ele><time>2026-04-04T17:26:28.285Z</time></trkpt><trkpt lat="44.4643452" lon="11.183934"><ele>115.8</ele><time>2026-04-04T17:26:30.285Z</time></trkpt><trkpt lat="44.4644238" lon="11.1838927"><ele>116.0</ele><time>2026-04-04T17:26:33.285Z</time></trkpt><trkpt lat="44.4644874" lon="11.1838131"><ele>115.99999999999999</ele><time>2026-04-04T17:26:36.285Z</time></trkpt><trkpt lat="44.4644942" lon="11.1837027"><ele>116.0</ele><time>2026-04-04T17:26:38.285Z</time></trkpt><trkpt lat="44.4645027" lon="11.1835606"><ele>116.0</ele><time>2026-04-04T17:26:40.285Z</time></trkpt><trkpt lat="44.4644842" lon="11.1833998"><ele>116.0</ele><time>2026-04-04T17:26:42.285Z</time></trkpt><trkpt lat="44.4644691" lon="11.1833034"><ele>115.99999999999999</ele><time>2026-04-04T17:26:43.285Z</time></trkpt><trkpt lat="44.4644533" lon="11.1832076"><ele>116.0</ele><time>2026-04-04T17:26:44.285Z</time></trkpt><trkpt lat="44.4644379" lon="11.1831163"><ele>116.4</ele><time>2026-04-04T17:26:45.285Z</time></trkpt><trkpt lat="44.4644" lon="11.1829533"><ele>116.8</ele><time>2026-04-04T17:26:47.285Z</time></trkpt><trkpt lat="44.4643599" lon="11.1828004"><ele>117.20000000000002</ele><time>2026-04-04T17:26:49.285Z</time></trkpt><trkpt lat="44.4643382" lon="11.1827175"><ele>117.60000000000001</ele><time>2026-04-04T17:26:50.285Z</time></trkpt><trkpt lat="44.4643167" lon="11.1826318"><ele>118.0</ele><time>2026-04-04T17:26:51.285Z</time></trkpt><trkpt lat="44.4642756" lon="11.1824869"><ele>117.75</ele><time>2026-04-04T17:26:53.285Z</time></trkpt><trkpt lat="44.4642284" lon="11.1823316"><ele>117.5</ele><time>2026-04-04T17:26:55.285Z</time></trkpt><trkpt lat="44.4641837" lon="11.1821667"><ele>117.25</ele><time>2026-04-04T17:26:57.285Z</time></trkpt><trkpt lat="44.4641461" lon="11.1820021"><ele>117.0</ele><time>2026-04-04T17:26:59.285Z</time></trkpt><trkpt lat="44.4641071" lon="11.1818432"><ele>117.0</ele><time>2026-04-04T17:27:01.285Z</time></trkpt><trkpt lat="44.4640688" lon="11.181708"><ele>116.99999999999999</ele><time>2026-04-04T17:27:03.285Z</time></trkpt><trkpt lat="44.4640261" lon="11.1815709"><ele>116.99999999999999</ele><time>2026-04-04T17:27:05.285Z</time></trkpt><trkpt lat="44.4639912" lon="11.1814308"><ele>117.0</ele><time>2026-04-04T17:27:07.285Z</time></trkpt><trkpt lat="44.4639606" lon="11.1813089"><ele>117.0</ele><time>2026-04-04T17:27:09.285Z</time></trkpt><trkpt lat="44.4639444" lon="11.1812229"><ele>116.8</ele><time>2026-04-04T17:27:11.285Z</time></trkpt><trkpt lat="44.4639265" lon="11.1811108"><ele>116.6</ele><time>2026-04-04T17:27:14.285Z</time></trkpt><trkpt lat="44.4638732" lon="11.1810087"><ele>116.39999999999999</ele><time>2026-04-04T17:27:17.285Z</time></trkpt><trkpt lat="44.4638089" lon="11.1810204"><ele>116.19999999999999</ele><time>2026-04-04T17:27:18.285Z</time></trkpt><trkpt lat="44.4637075" lon="11.1810587"><ele>116.0</ele><time>2026-04-04T17:27:20.285Z</time></trkpt><trkpt lat="44.4635693" lon="11.1811257"><ele>115.99999999999999</ele><time>2026-04-04T17:27:23.285Z</time></trkpt><trkpt lat="44.4634921" lon="11.1811539"><ele>116.0</ele><time>2026-04-04T17:27:25.285Z</time></trkpt><trkpt lat="44.4634178" lon="11.1811609"><ele>116.0</ele><time>2026-04-04T17:27:26.285Z</time></trkpt><trkpt lat="44.4633393" lon="11.1811784"><ele>116.0</ele><time>2026-04-04T17:27:27.285Z</time></trkpt><trkpt lat="44.4632848" lon="11.1812338"><ele>115.99999999999999</ele><time>2026-04-04T17:27:28.285Z</time></trkpt><trkpt lat="44.463214" lon="11.1812609"><ele>116.0</ele><time>2026-04-04T17:27:29.285Z</time></trkpt><trkpt lat="44.4631235" lon="11.1813327"><ele>116.0</ele><time>2026-04-04T17:27:32.285Z</time></trkpt><trkpt lat="44.4632067" lon="11.1813388"><ele>116.0</ele><time>2026-04-04T17:27:35.285Z</time></trkpt><trkpt lat="44.4632735" lon="11.1813249"><ele>116.0</ele><time>2026-04-04T17:27:37.285Z</time></trkpt><trkpt lat="44.463362" lon="11.1812538"><ele>116.0</ele><time>2026-04-04T17:27:39.285Z</time></trkpt><trkpt lat="44.4634544" lon="11.1812026"><ele>116.0</ele><time>2026-04-04T17:27:41.285Z</time></trkpt><trkpt lat="44.463555" lon="11.1811659"><ele>115.99999999999999</ele><time>2026-04-04T17:27:43.285Z</time></trkpt><trkpt lat="44.4636376" lon="11.1811233"><ele>116.0</ele><time>2026-04-04T17:27:45.285Z</time></trkpt><trkpt lat="44.4637266" lon="11.1810909"><ele>116.0</ele><time>2026-04-04T17:27:47.285Z</time></trkpt><trkpt lat="44.4637935" lon="11.1810609"><ele>116.0</ele><time>2026-04-04T17:27:49.285Z</time></trkpt><trkpt lat="44.4638678" lon="11.1810701"><ele>115.99999999999999</ele><time>2026-04-04T17:27:51.285Z</time></trkpt><trkpt lat="44.463907" lon="11.1811809"><ele>116.0</ele><time>2026-04-04T17:27:59.285Z</time></trkpt><trkpt lat="44.4639394" lon="11.1812816"><ele>115.99999999999999</ele><time>2026-04-04T17:28:00.285Z</time></trkpt><trkpt lat="44.4639706" lon="11.1813802"><ele>116.0</ele><time>2026-04-04T17:28:01.285Z</time></trkpt><trkpt lat="44.4640059" lon="11.1814914"><ele>116.0</ele><time>2026-04-04T17:28:02.285Z</time></trkpt><trkpt lat="44.4640339" lon="11.1816014"><ele>116.0</ele><time>2026-04-04T17:28:03.285Z</time></trkpt><trkpt lat="44.4640628" lon="11.1817078"><ele>115.99999999999999</ele><time>2026-04-04T17:28:04.285Z</time></trkpt><trkpt lat="44.4640901" lon="11.1818126"><ele>116.0</ele><time>2026-04-04T17:28:05.285Z</time></trkpt><trkpt lat="44.4641148" lon="11.1819156"><ele>116.16666666666666</ele><time>2026-04-04T17:28:06.285Z</time></trkpt><trkpt lat="44.4641442" lon="11.1820126"><ele>116.33333333333333</ele><time>2026-04-04T17:28:07.285Z</time></trkpt><trkpt lat="44.4641674" lon="11.1821"><ele>116.5</ele><time>2026-04-04T17:28:08.285Z</time></trkpt><trkpt lat="44.4641886" lon="11.1821899"><ele>116.66666666666666</ele><time>2026-04-04T17:28:09.285Z</time></trkpt><trkpt lat="44.4642097" lon="11.182278"><ele>116.83333333333333</ele><time>2026-04-04T17:28:10.286Z</time></trkpt><trkpt lat="44.464249" lon="11.1824263"><ele>117.0</ele><time>2026-04-04T17:28:12.285Z</time></trkpt><trkpt lat="44.4642784" lon="11.1825505"><ele>117.16666666666667</ele><time>2026-04-04T17:28:14.285Z</time></trkpt><trkpt lat="44.4642988" lon="11.1826562"><ele>117.33333333333334</ele><time>2026-04-04T17:28:16.285Z</time></trkpt><trkpt lat="44.4643252" lon="11.1827457"><ele>117.5</ele><time>2026-04-04T17:28:18.285Z</time></trkpt><trkpt lat="44.4643155" lon="11.1828642"><ele>117.66666666666667</ele><time>2026-04-04T17:28:21.285Z</time></trkpt><trkpt lat="44.4642436" lon="11.1829085"><ele>117.83333333333334</ele><time>2026-04-04T17:28:24.285Z</time></trkpt><trkpt lat="44.4641747" lon="11.1829453"><ele>118.0</ele><time>2026-04-04T17:28:30.286Z</time></trkpt><trkpt lat="44.4640931" lon="11.1829556"><ele>118.0</ele><time>2026-04-04T17:37:05.285Z</time></trkpt><trkpt lat="44.4640889" lon="11.183044"><ele>118.0</ele><time>2026-04-04T17:39:52.285Z</time></trkpt><trkpt lat="44.4641462" lon="11.1830017"><ele>118.0</ele><time>2026-04-04T17:40:38.285Z</time></trkpt><trkpt lat="44.4641024" lon="11.1830686"><ele>118.0</ele><time>2026-04-04T17:59:08.212Z</time></trkpt><trkpt lat="44.4641611" lon="11.1831063"><ele>118.0</ele><time>2026-04-04T17:59:16.366Z</time></trkpt><trkpt lat="44.4641267" lon="11.1830316"><ele>118.0</ele><time>2026-04-04T17:59:31.301Z</time></trkpt><trkpt lat="44.464114" lon="11.1829402"><ele>118.0</ele><time>2026-04-04T17:59:43.301Z</time></trkpt><trkpt lat="44.4640768" lon="11.1828647"><ele>118.0</ele><time>2026-04-04T17:59:51.23Z</time></trkpt><trkpt lat="44.4640864" lon="11.1830303"><ele>118.00000000000001</ele><time>2026-04-04T18:01:16.784Z</time></trkpt><trkpt lat="44.4641415" lon="11.1831576"><ele>118.00000000000001</ele><time>2026-04-04T18:03:24.57Z</time></trkpt><trkpt lat="44.4640929" lon="11.1830545"><ele>118.0</ele><time>2026-04-04T18:24:34.301Z</time></trkpt><trkpt lat="44.4641342" lon="11.1831227"><ele>118.0</ele><time>2026-04-04T18:39:26.301Z</time></trkpt><trkpt lat="44.4641404" lon="11.1832321"><ele>118.0</ele><time>2026-04-04T18:57:45.301Z</time></trkpt><trkpt lat="44.4641349" lon="11.1831438"><ele>118.0</ele><time>2026-04-04T19:09:37.302Z</time></trkpt><trkpt lat="44.4641642" lon="11.1830544"><ele>118.0</ele><time>2026-04-04T21:37:12.285Z</time></trkpt><trkpt lat="44.4641854" lon="11.1829695"><ele>118.0</ele><time>2026-04-04T21:37:22.287Z</time></trkpt><trkpt lat="44.4641383" lon="11.1830297"><ele>118.0</ele><time>2026-04-04T22:14:21.282Z</time></trkpt><trkpt lat="44.4640746" lon="11.1830796"><ele>118.0</ele><time>2026-04-04T22:14:25.271Z</time></trkpt><trkpt lat="44.4639955" lon="11.1830912"><ele>118.0</ele><time>2026-04-04T22:14:29.274Z</time></trkpt><trkpt lat="44.4639223" lon="11.1831"><ele>118.00000000000001</ele><time>2026-04-04T22:14:33.265Z</time></trkpt><trkpt lat="44.4638534" lon="11.1831149"><ele>118.0</ele><time>2026-04-04T22:14:37.274Z</time></trkpt><trkpt lat="44.4638456" lon="11.1832025"><ele>118.0</ele><time>2026-04-04T22:14:42.275Z</time></trkpt><trkpt lat="44.4639102" lon="11.1831629"><ele>118.0</ele><time>2026-04-04T22:15:19.253Z</time></trkpt><trkpt lat="44.4640057" lon="11.1830714"><ele>118.00000000000001</ele><time>2026-04-04T22:15:20.268Z</time></trkpt><trkpt lat="44.4640751" lon="11.1830124"><ele>118.0</ele><time>2026-04-04T22:15:21.266Z</time></trkpt><trkpt lat="44.4641503" lon="11.1829663"><ele>118.0</ele><time>2026-04-04T22:15:23.267Z</time></trkpt><trkpt lat="44.4641361" lon="11.1830913"><ele>118.0</ele><time>2026-04-04T22:26:18.22Z</time></trkpt><trkpt lat="44.464078" lon="11.1831314"><ele>118.0</ele><time>2026-04-04T22:26:57.22Z</time></trkpt><trkpt lat="44.4641433" lon="11.1831016"><ele>118.0</ele><time>2026-04-04T22:27:03.22Z</time></trkpt><trkpt lat="44.4641562" lon="11.1832278"><ele>118.0</ele><time>2026-04-05T05:39:56.261Z</time></trkpt><trkpt lat="44.4641722" lon="11.1833145"><ele>118.0</ele><time>2026-04-05T05:39:57.265Z</time></trkpt><trkpt lat="44.4641881" lon="11.1832268"><ele>118.0</ele><time>2026-04-05T05:40:02.26Z</time></trkpt><trkpt lat="44.4641463" lon="11.1831602"><ele>118.0</ele><time>2026-04-05T08:56:03.148Z</time></trkpt><trkpt lat="44.4641446" lon="11.1829614"><ele>118.0</ele><time>2026-04-05T08:56:05.29Z</time></trkpt></trkseg></trk></gpx>